<?xml version="1.0" encoding="UTF-8" standalone="no" ?>
<gpx xmlns="http://www.topografix.com/GPX/1/1" xmlns:xsi="http://www.w3.org/2001/XMLSchema-instance" xsi:schemaLocation="http://www.topografix.com/GPX/1/1 http://www.topografix.com/GPX/1/1/gpx.xsd" version="1.1" creator="VisuGPX - https://www.visugpx.com">
  <metadata>
    <name>9 févr. 2022</name>
    <desc><![CDATA[grp_trc:]]></desc>
  </metadata>
  <trk>
    <name><![CDATA[9 févr. 2022]]></name>
    <cmt><![CDATA[08:19:04]]></cmt>
    <desc><![CDATA[comment ...]]></desc>
    <trkseg>
      <trkpt lat="45.1405" lon="5.88833">
        <ele>1380</ele>
        <time>2022-02-09T07:19:03Z</time>
      </trkpt>
      <trkpt lat="45.14051" lon="5.88832">
        <ele>1382</ele>
        <time>2022-02-09T07:19:04Z</time>
      </trkpt>
      <trkpt lat="45.1405" lon="5.88837">
        <ele>1388</ele>
        <time>2022-02-09T07:19:08Z</time>
      </trkpt>
      <trkpt lat="45.14046" lon="5.88836">
        <ele>1395</ele>
        <time>2022-02-09T07:19:48Z</time>
      </trkpt>
      <trkpt lat="45.14047" lon="5.88841">
        <ele>1398</ele>
        <time>2022-02-09T07:21:10Z</time>
      </trkpt>
      <trkpt lat="45.14043" lon="5.8884">
        <ele>1398</ele>
        <time>2022-02-09T07:21:47Z</time>
      </trkpt>
      <trkpt lat="45.1404" lon="5.8884">
        <ele>1401</ele>
        <time>2022-02-09T07:21:53Z</time>
      </trkpt>
      <trkpt lat="45.14032" lon="5.88843">
        <ele>1404</ele>
        <time>2022-02-09T07:22:07Z</time>
      </trkpt>
      <trkpt lat="45.14034" lon="5.88839">
        <ele>1404</ele>
        <time>2022-02-09T07:22:16Z</time>
      </trkpt>
      <trkpt lat="45.14037" lon="5.88836">
        <ele>1405</ele>
        <time>2022-02-09T07:22:20Z</time>
      </trkpt>
      <trkpt lat="45.14044" lon="5.88831">
        <ele>1408</ele>
        <time>2022-02-09T07:22:29Z</time>
      </trkpt>
      <trkpt lat="45.14057" lon="5.88814">
        <ele>1411</ele>
        <time>2022-02-09T07:22:48Z</time>
      </trkpt>
      <trkpt lat="45.14061" lon="5.88811">
        <ele>1412</ele>
        <time>2022-02-09T07:22:53Z</time>
      </trkpt>
      <trkpt lat="45.14065" lon="5.88808">
        <ele>1414</ele>
        <time>2022-02-09T07:22:58Z</time>
      </trkpt>
      <trkpt lat="45.14067" lon="5.88804">
        <ele>1415</ele>
        <time>2022-02-09T07:23:03Z</time>
      </trkpt>
      <trkpt lat="45.14068" lon="5.88798">
        <ele>1415</ele>
        <time>2022-02-09T07:23:08Z</time>
      </trkpt>
      <trkpt lat="45.14067" lon="5.88794">
        <ele>1416</ele>
        <time>2022-02-09T07:23:13Z</time>
      </trkpt>
      <trkpt lat="45.14063" lon="5.8879">
        <ele>1417</ele>
        <time>2022-02-09T07:23:19Z</time>
      </trkpt>
      <trkpt lat="45.1406" lon="5.8879">
        <ele>1415</ele>
        <time>2022-02-09T07:23:22Z</time>
      </trkpt>
      <trkpt lat="45.14053" lon="5.88788">
        <ele>1413</ele>
        <time>2022-02-09T07:23:30Z</time>
      </trkpt>
      <trkpt lat="45.14033" lon="5.88772">
        <ele>1420</ele>
        <time>2022-02-09T07:24:05Z</time>
      </trkpt>
      <trkpt lat="45.14014" lon="5.88765">
        <ele>1418</ele>
        <time>2022-02-09T07:24:27Z</time>
      </trkpt>
      <trkpt lat="45.13993" lon="5.88743">
        <ele>1424</ele>
        <time>2022-02-09T07:25:01Z</time>
      </trkpt>
      <trkpt lat="45.13989" lon="5.88742">
        <ele>1422</ele>
        <time>2022-02-09T07:25:06Z</time>
      </trkpt>
      <trkpt lat="45.13974" lon="5.8874">
        <ele>1421</ele>
        <time>2022-02-09T07:25:23Z</time>
      </trkpt>
      <trkpt lat="45.13966" lon="5.88741">
        <ele>1422</ele>
        <time>2022-02-09T07:25:33Z</time>
      </trkpt>
      <trkpt lat="45.13959" lon="5.88741">
        <ele>1423</ele>
        <time>2022-02-09T07:25:45Z</time>
      </trkpt>
      <trkpt lat="45.13955" lon="5.88741">
        <ele>1423</ele>
        <time>2022-02-09T07:25:50Z</time>
      </trkpt>
      <trkpt lat="45.13951" lon="5.88743">
        <ele>1425</ele>
        <time>2022-02-09T07:25:56Z</time>
      </trkpt>
      <trkpt lat="45.13948" lon="5.88743">
        <ele>1425</ele>
        <time>2022-02-09T07:26:01Z</time>
      </trkpt>
      <trkpt lat="45.13944" lon="5.88744">
        <ele>1427</ele>
        <time>2022-02-09T07:26:06Z</time>
      </trkpt>
      <trkpt lat="45.13925" lon="5.88742">
        <ele>1432</ele>
        <time>2022-02-09T07:26:35Z</time>
      </trkpt>
      <trkpt lat="45.13917" lon="5.88742">
        <ele>1435</ele>
        <time>2022-02-09T07:26:46Z</time>
      </trkpt>
      <trkpt lat="45.13914" lon="5.88742">
        <ele>1437</ele>
        <time>2022-02-09T07:26:53Z</time>
      </trkpt>
      <trkpt lat="45.1391" lon="5.88741">
        <ele>1437</ele>
        <time>2022-02-09T07:27:00Z</time>
      </trkpt>
      <trkpt lat="45.13907" lon="5.88743">
        <ele>1440</ele>
        <time>2022-02-09T07:27:06Z</time>
      </trkpt>
      <trkpt lat="45.13903" lon="5.88743">
        <ele>1441</ele>
        <time>2022-02-09T07:27:13Z</time>
      </trkpt>
      <trkpt lat="45.13885" lon="5.88743">
        <ele>1448</ele>
        <time>2022-02-09T07:27:44Z</time>
      </trkpt>
      <trkpt lat="45.13881" lon="5.88745">
        <ele>1451</ele>
        <time>2022-02-09T07:27:51Z</time>
      </trkpt>
      <trkpt lat="45.13878" lon="5.88746">
        <ele>1453</ele>
        <time>2022-02-09T07:27:58Z</time>
      </trkpt>
      <trkpt lat="45.13863" lon="5.88747">
        <ele>1460</ele>
        <time>2022-02-09T07:28:28Z</time>
      </trkpt>
      <trkpt lat="45.13856" lon="5.88746">
        <ele>1461</ele>
        <time>2022-02-09T07:28:42Z</time>
      </trkpt>
      <trkpt lat="45.13852" lon="5.88747">
        <ele>1461</ele>
        <time>2022-02-09T07:28:49Z</time>
      </trkpt>
      <trkpt lat="45.13848" lon="5.88748">
        <ele>1461</ele>
        <time>2022-02-09T07:28:55Z</time>
      </trkpt>
      <trkpt lat="45.13841" lon="5.88748">
        <ele>1462</ele>
        <time>2022-02-09T07:29:07Z</time>
      </trkpt>
      <trkpt lat="45.13819" lon="5.88749">
        <ele>1466</ele>
        <time>2022-02-09T07:29:41Z</time>
      </trkpt>
      <trkpt lat="45.13801" lon="5.88747">
        <ele>1470</ele>
        <time>2022-02-09T07:30:11Z</time>
      </trkpt>
      <trkpt lat="45.1379" lon="5.88747">
        <ele>1473</ele>
        <time>2022-02-09T07:30:29Z</time>
      </trkpt>
      <trkpt lat="45.13775" lon="5.88747">
        <ele>1478</ele>
        <time>2022-02-09T07:30:55Z</time>
      </trkpt>
      <trkpt lat="45.13768" lon="5.88746">
        <ele>1481</ele>
        <time>2022-02-09T07:31:07Z</time>
      </trkpt>
      <trkpt lat="45.13764" lon="5.88744">
        <ele>1485</ele>
        <time>2022-02-09T07:31:17Z</time>
      </trkpt>
      <trkpt lat="45.13761" lon="5.88745">
        <ele>1488</ele>
        <time>2022-02-09T07:31:26Z</time>
      </trkpt>
      <trkpt lat="45.13747" lon="5.88749">
        <ele>1493</ele>
        <time>2022-02-09T07:32:02Z</time>
      </trkpt>
      <trkpt lat="45.13743" lon="5.8875">
        <ele>1495</ele>
        <time>2022-02-09T07:32:20Z</time>
      </trkpt>
      <trkpt lat="45.13739" lon="5.88751">
        <ele>1496</ele>
        <time>2022-02-09T07:32:29Z</time>
      </trkpt>
      <trkpt lat="45.13736" lon="5.88751">
        <ele>1497</ele>
        <time>2022-02-09T07:32:37Z</time>
      </trkpt>
      <trkpt lat="45.13733" lon="5.88751">
        <ele>1499</ele>
        <time>2022-02-09T07:32:44Z</time>
      </trkpt>
      <trkpt lat="45.13729" lon="5.88752">
        <ele>1500</ele>
        <time>2022-02-09T07:32:52Z</time>
      </trkpt>
      <trkpt lat="45.13726" lon="5.88751">
        <ele>1501</ele>
        <time>2022-02-09T07:32:59Z</time>
      </trkpt>
      <trkpt lat="45.13722" lon="5.8875">
        <ele>1502</ele>
        <time>2022-02-09T07:33:05Z</time>
      </trkpt>
      <trkpt lat="45.13719" lon="5.88748">
        <ele>1503</ele>
        <time>2022-02-09T07:33:12Z</time>
      </trkpt>
      <trkpt lat="45.13715" lon="5.88749">
        <ele>1504</ele>
        <time>2022-02-09T07:33:19Z</time>
      </trkpt>
      <trkpt lat="45.13711" lon="5.88749">
        <ele>1505</ele>
        <time>2022-02-09T07:33:25Z</time>
      </trkpt>
      <trkpt lat="45.13708" lon="5.8875">
        <ele>1505</ele>
        <time>2022-02-09T07:33:32Z</time>
      </trkpt>
      <trkpt lat="45.137" lon="5.88749">
        <ele>1508</ele>
        <time>2022-02-09T07:33:46Z</time>
      </trkpt>
      <trkpt lat="45.1369" lon="5.88754">
        <ele>1513</ele>
        <time>2022-02-09T07:34:06Z</time>
      </trkpt>
      <trkpt lat="45.13686" lon="5.88754">
        <ele>1514</ele>
        <time>2022-02-09T07:34:11Z</time>
      </trkpt>
      <trkpt lat="45.13676" lon="5.88757">
        <ele>1518</ele>
        <time>2022-02-09T07:34:29Z</time>
      </trkpt>
      <trkpt lat="45.13673" lon="5.88757">
        <ele>1519</ele>
        <time>2022-02-09T07:34:37Z</time>
      </trkpt>
      <trkpt lat="45.13669" lon="5.88758">
        <ele>1520</ele>
        <time>2022-02-09T07:34:43Z</time>
      </trkpt>
      <trkpt lat="45.13654" lon="5.88758">
        <ele>1524</ele>
        <time>2022-02-09T07:35:06Z</time>
      </trkpt>
      <trkpt lat="45.13651" lon="5.8876">
        <ele>1525</ele>
        <time>2022-02-09T07:35:11Z</time>
      </trkpt>
      <trkpt lat="45.13643" lon="5.88759">
        <ele>1527</ele>
        <time>2022-02-09T07:35:23Z</time>
      </trkpt>
      <trkpt lat="45.13639" lon="5.88759">
        <ele>1528</ele>
        <time>2022-02-09T07:35:28Z</time>
      </trkpt>
      <trkpt lat="45.13624" lon="5.8876">
        <ele>1529</ele>
        <time>2022-02-09T07:35:55Z</time>
      </trkpt>
      <trkpt lat="45.13621" lon="5.88761">
        <ele>1530</ele>
        <time>2022-02-09T07:36:00Z</time>
      </trkpt>
      <trkpt lat="45.13617" lon="5.88761">
        <ele>1530</ele>
        <time>2022-02-09T07:36:06Z</time>
      </trkpt>
      <trkpt lat="45.13609" lon="5.88762">
        <ele>1532</ele>
        <time>2022-02-09T07:36:19Z</time>
      </trkpt>
      <trkpt lat="45.13605" lon="5.88761">
        <ele>1534</ele>
        <time>2022-02-09T07:36:24Z</time>
      </trkpt>
      <trkpt lat="45.13601" lon="5.88761">
        <ele>1535</ele>
        <time>2022-02-09T07:36:30Z</time>
      </trkpt>
      <trkpt lat="45.13594" lon="5.88763">
        <ele>1538</ele>
        <time>2022-02-09T07:36:44Z</time>
      </trkpt>
      <trkpt lat="45.13591" lon="5.88762">
        <ele>1540</ele>
        <time>2022-02-09T07:36:51Z</time>
      </trkpt>
      <trkpt lat="45.13577" lon="5.88764">
        <ele>1545</ele>
        <time>2022-02-09T07:37:22Z</time>
      </trkpt>
      <trkpt lat="45.13573" lon="5.88764">
        <ele>1545</ele>
        <time>2022-02-09T07:37:31Z</time>
      </trkpt>
      <trkpt lat="45.1357" lon="5.88762">
        <ele>1546</ele>
        <time>2022-02-09T07:37:40Z</time>
      </trkpt>
      <trkpt lat="45.13567" lon="5.88761">
        <ele>1547</ele>
        <time>2022-02-09T07:37:47Z</time>
      </trkpt>
      <trkpt lat="45.13559" lon="5.88763">
        <ele>1549</ele>
        <time>2022-02-09T07:38:04Z</time>
      </trkpt>
      <trkpt lat="45.13555" lon="5.88762">
        <ele>1552</ele>
        <time>2022-02-09T07:38:11Z</time>
      </trkpt>
      <trkpt lat="45.13552" lon="5.88762">
        <ele>1553</ele>
        <time>2022-02-09T07:38:17Z</time>
      </trkpt>
      <trkpt lat="45.13545" lon="5.88761">
        <ele>1556</ele>
        <time>2022-02-09T07:38:28Z</time>
      </trkpt>
      <trkpt lat="45.13541" lon="5.8876">
        <ele>1559</ele>
        <time>2022-02-09T07:38:33Z</time>
      </trkpt>
      <trkpt lat="45.13534" lon="5.8876">
        <ele>1562</ele>
        <time>2022-02-09T07:38:45Z</time>
      </trkpt>
      <trkpt lat="45.13519" lon="5.88755">
        <ele>1567</ele>
        <time>2022-02-09T07:39:11Z</time>
      </trkpt>
      <trkpt lat="45.13508" lon="5.88753">
        <ele>1572</ele>
        <time>2022-02-09T07:39:29Z</time>
      </trkpt>
      <trkpt lat="45.13505" lon="5.88754">
        <ele>1573</ele>
        <time>2022-02-09T07:39:35Z</time>
      </trkpt>
      <trkpt lat="45.13494" lon="5.88754">
        <ele>1575</ele>
        <time>2022-02-09T07:39:55Z</time>
      </trkpt>
      <trkpt lat="45.13479" lon="5.8875">
        <ele>1577</ele>
        <time>2022-02-09T07:40:21Z</time>
      </trkpt>
      <trkpt lat="45.13476" lon="5.8875">
        <ele>1578</ele>
        <time>2022-02-09T07:40:27Z</time>
      </trkpt>
      <trkpt lat="45.13465" lon="5.88751">
        <ele>1580</ele>
        <time>2022-02-09T07:40:52Z</time>
      </trkpt>
      <trkpt lat="45.13462" lon="5.8875">
        <ele>1580</ele>
        <time>2022-02-09T07:40:57Z</time>
      </trkpt>
      <trkpt lat="45.13444" lon="5.88748">
        <ele>1588</ele>
        <time>2022-02-09T07:41:32Z</time>
      </trkpt>
      <trkpt lat="45.1344" lon="5.88749">
        <ele>1589</ele>
        <time>2022-02-09T07:41:41Z</time>
      </trkpt>
      <trkpt lat="45.13433" lon="5.88749">
        <ele>1592</ele>
        <time>2022-02-09T07:41:59Z</time>
      </trkpt>
      <trkpt lat="45.1343" lon="5.88747">
        <ele>1593</ele>
        <time>2022-02-09T07:42:07Z</time>
      </trkpt>
      <trkpt lat="45.13426" lon="5.88748">
        <ele>1595</ele>
        <time>2022-02-09T07:42:25Z</time>
      </trkpt>
      <trkpt lat="45.13423" lon="5.88749">
        <ele>1597</ele>
        <time>2022-02-09T07:42:32Z</time>
      </trkpt>
      <trkpt lat="45.13419" lon="5.88749">
        <ele>1598</ele>
        <time>2022-02-09T07:42:38Z</time>
      </trkpt>
      <trkpt lat="45.13415" lon="5.88748">
        <ele>1600</ele>
        <time>2022-02-09T07:42:48Z</time>
      </trkpt>
      <trkpt lat="45.13408" lon="5.88747">
        <ele>1602</ele>
        <time>2022-02-09T07:43:04Z</time>
      </trkpt>
      <trkpt lat="45.13405" lon="5.88744">
        <ele>1603</ele>
        <time>2022-02-09T07:43:10Z</time>
      </trkpt>
      <trkpt lat="45.13398" lon="5.88743">
        <ele>1605</ele>
        <time>2022-02-09T07:43:26Z</time>
      </trkpt>
      <trkpt lat="45.13384" lon="5.88746">
        <ele>1611</ele>
        <time>2022-02-09T07:43:56Z</time>
      </trkpt>
      <trkpt lat="45.13377" lon="5.88749">
        <ele>1615</ele>
        <time>2022-02-09T07:44:12Z</time>
      </trkpt>
      <trkpt lat="45.13373" lon="5.8875">
        <ele>1617</ele>
        <time>2022-02-09T07:44:29Z</time>
      </trkpt>
      <trkpt lat="45.1337" lon="5.88751">
        <ele>1618</ele>
        <time>2022-02-09T07:44:36Z</time>
      </trkpt>
      <trkpt lat="45.13366" lon="5.88752">
        <ele>1620</ele>
        <time>2022-02-09T07:44:43Z</time>
      </trkpt>
      <trkpt lat="45.13359" lon="5.88752">
        <ele>1623</ele>
        <time>2022-02-09T07:44:59Z</time>
      </trkpt>
      <trkpt lat="45.13355" lon="5.88752">
        <ele>1626</ele>
        <time>2022-02-09T07:45:06Z</time>
      </trkpt>
      <trkpt lat="45.13352" lon="5.88752">
        <ele>1628</ele>
        <time>2022-02-09T07:45:13Z</time>
      </trkpt>
      <trkpt lat="45.13348" lon="5.8875">
        <ele>1629</ele>
        <time>2022-02-09T07:45:21Z</time>
      </trkpt>
      <trkpt lat="45.13345" lon="5.88749">
        <ele>1630</ele>
        <time>2022-02-09T07:45:29Z</time>
      </trkpt>
      <trkpt lat="45.13331" lon="5.88744">
        <ele>1636</ele>
        <time>2022-02-09T07:45:59Z</time>
      </trkpt>
      <trkpt lat="45.13321" lon="5.8874">
        <ele>1639</ele>
        <time>2022-02-09T07:46:24Z</time>
      </trkpt>
      <trkpt lat="45.13318" lon="5.8874">
        <ele>1640</ele>
        <time>2022-02-09T07:46:31Z</time>
      </trkpt>
      <trkpt lat="45.13315" lon="5.88743">
        <ele>1640</ele>
        <time>2022-02-09T07:46:42Z</time>
      </trkpt>
      <trkpt lat="45.13314" lon="5.88749">
        <ele>1639</ele>
        <time>2022-02-09T07:46:47Z</time>
      </trkpt>
      <trkpt lat="45.13313" lon="5.88755">
        <ele>1638</ele>
        <time>2022-02-09T07:46:52Z</time>
      </trkpt>
      <trkpt lat="45.13312" lon="5.88766">
        <ele>1637</ele>
        <time>2022-02-09T07:47:02Z</time>
      </trkpt>
      <trkpt lat="45.13313" lon="5.88783">
        <ele>1637</ele>
        <time>2022-02-09T07:47:15Z</time>
      </trkpt>
      <trkpt lat="45.13314" lon="5.88788">
        <ele>1637</ele>
        <time>2022-02-09T07:47:20Z</time>
      </trkpt>
      <trkpt lat="45.13316" lon="5.88826">
        <ele>1640</ele>
        <time>2022-02-09T07:47:50Z</time>
      </trkpt>
      <trkpt lat="45.13318" lon="5.88836">
        <ele>1640</ele>
        <time>2022-02-09T07:47:58Z</time>
      </trkpt>
      <trkpt lat="45.1332" lon="5.88846">
        <ele>1641</ele>
        <time>2022-02-09T07:48:06Z</time>
      </trkpt>
      <trkpt lat="45.13322" lon="5.88883">
        <ele>1649</ele>
        <time>2022-02-09T07:48:36Z</time>
      </trkpt>
      <trkpt lat="45.13324" lon="5.88899">
        <ele>1651</ele>
        <time>2022-02-09T07:48:52Z</time>
      </trkpt>
      <trkpt lat="45.13326" lon="5.88904">
        <ele>1651</ele>
        <time>2022-02-09T07:48:56Z</time>
      </trkpt>
      <trkpt lat="45.13336" lon="5.88921">
        <ele>1656</ele>
        <time>2022-02-09T07:49:14Z</time>
      </trkpt>
      <trkpt lat="45.13339" lon="5.88931">
        <ele>1660</ele>
        <time>2022-02-09T07:49:21Z</time>
      </trkpt>
      <trkpt lat="45.13338" lon="5.88941">
        <ele>1663</ele>
        <time>2022-02-09T07:49:36Z</time>
      </trkpt>
      <trkpt lat="45.13338" lon="5.88946">
        <ele>1663</ele>
        <time>2022-02-09T07:49:46Z</time>
      </trkpt>
      <trkpt lat="45.13338" lon="5.88966">
        <ele>1665</ele>
        <time>2022-02-09T07:50:19Z</time>
      </trkpt>
      <trkpt lat="45.1334" lon="5.88987">
        <ele>1668</ele>
        <time>2022-02-09T07:50:55Z</time>
      </trkpt>
      <trkpt lat="45.13341" lon="5.88992">
        <ele>1669</ele>
        <time>2022-02-09T07:51:03Z</time>
      </trkpt>
      <trkpt lat="45.13341" lon="5.88997">
        <ele>1670</ele>
        <time>2022-02-09T07:51:17Z</time>
      </trkpt>
      <trkpt lat="45.1334" lon="5.89002">
        <ele>1672</ele>
        <time>2022-02-09T07:51:23Z</time>
      </trkpt>
      <trkpt lat="45.13339" lon="5.89008">
        <ele>1672</ele>
        <time>2022-02-09T07:51:29Z</time>
      </trkpt>
      <trkpt lat="45.13333" lon="5.89015">
        <ele>1674</ele>
        <time>2022-02-09T07:51:41Z</time>
      </trkpt>
      <trkpt lat="45.13332" lon="5.89019">
        <ele>1675</ele>
        <time>2022-02-09T07:51:48Z</time>
      </trkpt>
      <trkpt lat="45.1333" lon="5.89024">
        <ele>1676</ele>
        <time>2022-02-09T07:51:57Z</time>
      </trkpt>
      <trkpt lat="45.13328" lon="5.89045">
        <ele>1674</ele>
        <time>2022-02-09T07:52:14Z</time>
      </trkpt>
      <trkpt lat="45.13323" lon="5.89065">
        <ele>1672</ele>
        <time>2022-02-09T07:52:31Z</time>
      </trkpt>
      <trkpt lat="45.13317" lon="5.89078">
        <ele>1673</ele>
        <time>2022-02-09T07:52:40Z</time>
      </trkpt>
      <trkpt lat="45.13315" lon="5.89082">
        <ele>1673</ele>
        <time>2022-02-09T07:52:44Z</time>
      </trkpt>
      <trkpt lat="45.13316" lon="5.89087">
        <ele>1671</ele>
        <time>2022-02-09T07:52:52Z</time>
      </trkpt>
      <trkpt lat="45.13319" lon="5.89091">
        <ele>1669</ele>
        <time>2022-02-09T07:52:57Z</time>
      </trkpt>
      <trkpt lat="45.13322" lon="5.89094">
        <ele>1668</ele>
        <time>2022-02-09T07:53:03Z</time>
      </trkpt>
      <trkpt lat="45.13326" lon="5.89098">
        <ele>1668</ele>
        <time>2022-02-09T07:53:08Z</time>
      </trkpt>
      <trkpt lat="45.13332" lon="5.89105">
        <ele>1669</ele>
        <time>2022-02-09T07:53:18Z</time>
      </trkpt>
      <trkpt lat="45.13339" lon="5.89125">
        <ele>1669</ele>
        <time>2022-02-09T07:53:39Z</time>
      </trkpt>
      <trkpt lat="45.13343" lon="5.89139">
        <ele>1670</ele>
        <time>2022-02-09T07:53:51Z</time>
      </trkpt>
      <trkpt lat="45.13345" lon="5.89144">
        <ele>1671</ele>
        <time>2022-02-09T07:53:56Z</time>
      </trkpt>
      <trkpt lat="45.13347" lon="5.89149">
        <ele>1670</ele>
        <time>2022-02-09T07:54:01Z</time>
      </trkpt>
      <trkpt lat="45.13348" lon="5.89154">
        <ele>1669</ele>
        <time>2022-02-09T07:54:05Z</time>
      </trkpt>
      <trkpt lat="45.13349" lon="5.89159">
        <ele>1669</ele>
        <time>2022-02-09T07:54:09Z</time>
      </trkpt>
      <trkpt lat="45.13352" lon="5.89191">
        <ele>1678</ele>
        <time>2022-02-09T07:54:35Z</time>
      </trkpt>
      <trkpt lat="45.13353" lon="5.89196">
        <ele>1679</ele>
        <time>2022-02-09T07:54:39Z</time>
      </trkpt>
      <trkpt lat="45.13354" lon="5.89201">
        <ele>1681</ele>
        <time>2022-02-09T07:54:44Z</time>
      </trkpt>
      <trkpt lat="45.13354" lon="5.89207">
        <ele>1682</ele>
        <time>2022-02-09T07:54:49Z</time>
      </trkpt>
      <trkpt lat="45.13356" lon="5.89218">
        <ele>1685</ele>
        <time>2022-02-09T07:54:59Z</time>
      </trkpt>
      <trkpt lat="45.13358" lon="5.89223">
        <ele>1688</ele>
        <time>2022-02-09T07:55:05Z</time>
      </trkpt>
      <trkpt lat="45.13359" lon="5.89227">
        <ele>1688</ele>
        <time>2022-02-09T07:55:11Z</time>
      </trkpt>
      <trkpt lat="45.13361" lon="5.89231">
        <ele>1692</ele>
        <time>2022-02-09T07:55:18Z</time>
      </trkpt>
      <trkpt lat="45.13361" lon="5.89236">
        <ele>1695</ele>
        <time>2022-02-09T07:55:25Z</time>
      </trkpt>
      <trkpt lat="45.13364" lon="5.89246">
        <ele>1699</ele>
        <time>2022-02-09T07:55:36Z</time>
      </trkpt>
      <trkpt lat="45.13365" lon="5.89251">
        <ele>1698</ele>
        <time>2022-02-09T07:55:42Z</time>
      </trkpt>
      <trkpt lat="45.13373" lon="5.89269">
        <ele>1703</ele>
        <time>2022-02-09T07:56:06Z</time>
      </trkpt>
      <trkpt lat="45.13375" lon="5.89273">
        <ele>1703</ele>
        <time>2022-02-09T07:56:13Z</time>
      </trkpt>
      <trkpt lat="45.13381" lon="5.89279">
        <ele>1702</ele>
        <time>2022-02-09T07:56:26Z</time>
      </trkpt>
      <trkpt lat="45.13384" lon="5.89284">
        <ele>1702</ele>
        <time>2022-02-09T07:56:33Z</time>
      </trkpt>
      <trkpt lat="45.13387" lon="5.89287">
        <ele>1701</ele>
        <time>2022-02-09T07:56:40Z</time>
      </trkpt>
      <trkpt lat="45.13391" lon="5.89289">
        <ele>1701</ele>
        <time>2022-02-09T07:56:47Z</time>
      </trkpt>
      <trkpt lat="45.13403" lon="5.89316">
        <ele>1703</ele>
        <time>2022-02-09T07:57:17Z</time>
      </trkpt>
      <trkpt lat="45.13405" lon="5.8932">
        <ele>1703</ele>
        <time>2022-02-09T07:57:22Z</time>
      </trkpt>
      <trkpt lat="45.13407" lon="5.89337">
        <ele>1705</ele>
        <time>2022-02-09T07:57:36Z</time>
      </trkpt>
      <trkpt lat="45.13411" lon="5.89351">
        <ele>1706</ele>
        <time>2022-02-09T07:57:50Z</time>
      </trkpt>
      <trkpt lat="45.13414" lon="5.89356">
        <ele>1706</ele>
        <time>2022-02-09T07:57:55Z</time>
      </trkpt>
      <trkpt lat="45.13415" lon="5.89361">
        <ele>1706</ele>
        <time>2022-02-09T07:58:00Z</time>
      </trkpt>
      <trkpt lat="45.13417" lon="5.89365">
        <ele>1707</ele>
        <time>2022-02-09T07:58:06Z</time>
      </trkpt>
      <trkpt lat="45.1342" lon="5.89369">
        <ele>1708</ele>
        <time>2022-02-09T07:58:12Z</time>
      </trkpt>
      <trkpt lat="45.13424" lon="5.89377">
        <ele>1710</ele>
        <time>2022-02-09T07:58:24Z</time>
      </trkpt>
      <trkpt lat="45.13425" lon="5.89382">
        <ele>1711</ele>
        <time>2022-02-09T07:58:28Z</time>
      </trkpt>
      <trkpt lat="45.13427" lon="5.89387">
        <ele>1712</ele>
        <time>2022-02-09T07:58:33Z</time>
      </trkpt>
      <trkpt lat="45.13428" lon="5.89398">
        <ele>1714</ele>
        <time>2022-02-09T07:58:46Z</time>
      </trkpt>
      <trkpt lat="45.13429" lon="5.89403">
        <ele>1715</ele>
        <time>2022-02-09T07:58:51Z</time>
      </trkpt>
      <trkpt lat="45.13429" lon="5.89408">
        <ele>1715</ele>
        <time>2022-02-09T07:58:57Z</time>
      </trkpt>
      <trkpt lat="45.13431" lon="5.89413">
        <ele>1716</ele>
        <time>2022-02-09T07:59:03Z</time>
      </trkpt>
      <trkpt lat="45.13434" lon="5.89423">
        <ele>1718</ele>
        <time>2022-02-09T07:59:16Z</time>
      </trkpt>
      <trkpt lat="45.13436" lon="5.89428">
        <ele>1719</ele>
        <time>2022-02-09T07:59:23Z</time>
      </trkpt>
      <trkpt lat="45.13438" lon="5.89433">
        <ele>1720</ele>
        <time>2022-02-09T07:59:29Z</time>
      </trkpt>
      <trkpt lat="45.13438" lon="5.89439">
        <ele>1720</ele>
        <time>2022-02-09T07:59:35Z</time>
      </trkpt>
      <trkpt lat="45.1344" lon="5.89443">
        <ele>1722</ele>
        <time>2022-02-09T07:59:41Z</time>
      </trkpt>
      <trkpt lat="45.13442" lon="5.89458">
        <ele>1723</ele>
        <time>2022-02-09T07:59:56Z</time>
      </trkpt>
      <trkpt lat="45.13443" lon="5.89469">
        <ele>1725</ele>
        <time>2022-02-09T08:00:05Z</time>
      </trkpt>
      <trkpt lat="45.13439" lon="5.89479">
        <ele>1729</ele>
        <time>2022-02-09T08:00:16Z</time>
      </trkpt>
      <trkpt lat="45.13437" lon="5.89483">
        <ele>1729</ele>
        <time>2022-02-09T08:00:22Z</time>
      </trkpt>
      <trkpt lat="45.13434" lon="5.89485">
        <ele>1728</ele>
        <time>2022-02-09T08:00:29Z</time>
      </trkpt>
      <trkpt lat="45.13428" lon="5.89489">
        <ele>1727</ele>
        <time>2022-02-09T08:00:42Z</time>
      </trkpt>
      <trkpt lat="45.13429" lon="5.89495">
        <ele>1729</ele>
        <time>2022-02-09T08:00:50Z</time>
      </trkpt>
      <trkpt lat="45.13431" lon="5.89499">
        <ele>1731</ele>
        <time>2022-02-09T08:00:59Z</time>
      </trkpt>
      <trkpt lat="45.13433" lon="5.89503">
        <ele>1732</ele>
        <time>2022-02-09T08:01:09Z</time>
      </trkpt>
      <trkpt lat="45.1343" lon="5.89506">
        <ele>1733</ele>
        <time>2022-02-09T08:01:16Z</time>
      </trkpt>
      <trkpt lat="45.13427" lon="5.89506">
        <ele>1735</ele>
        <time>2022-02-09T08:01:24Z</time>
      </trkpt>
      <trkpt lat="45.13424" lon="5.89509">
        <ele>1738</ele>
        <time>2022-02-09T08:01:33Z</time>
      </trkpt>
      <trkpt lat="45.13423" lon="5.89514">
        <ele>1737</ele>
        <time>2022-02-09T08:01:39Z</time>
      </trkpt>
      <trkpt lat="45.13426" lon="5.89517">
        <ele>1733</ele>
        <time>2022-02-09T08:01:45Z</time>
      </trkpt>
      <trkpt lat="45.13429" lon="5.89521">
        <ele>1733</ele>
        <time>2022-02-09T08:01:51Z</time>
      </trkpt>
      <trkpt lat="45.13432" lon="5.89525">
        <ele>1735</ele>
        <time>2022-02-09T08:01:57Z</time>
      </trkpt>
      <trkpt lat="45.13435" lon="5.89528">
        <ele>1740</ele>
        <time>2022-02-09T08:02:04Z</time>
      </trkpt>
      <trkpt lat="45.13434" lon="5.89532">
        <ele>1745</ele>
        <time>2022-02-09T08:02:32Z</time>
      </trkpt>
      <trkpt lat="45.1343" lon="5.89532">
        <ele>1745</ele>
        <time>2022-02-09T08:02:39Z</time>
      </trkpt>
      <trkpt lat="45.13429" lon="5.89537">
        <ele>1751</ele>
        <time>2022-02-09T08:02:46Z</time>
      </trkpt>
      <trkpt lat="45.13429" lon="5.89542">
        <ele>1753</ele>
        <time>2022-02-09T08:02:55Z</time>
      </trkpt>
      <trkpt lat="45.13431" lon="5.89547">
        <ele>1754</ele>
        <time>2022-02-09T08:03:03Z</time>
      </trkpt>
      <trkpt lat="45.13433" lon="5.89552">
        <ele>1753</ele>
        <time>2022-02-09T08:03:12Z</time>
      </trkpt>
      <trkpt lat="45.13439" lon="5.89557">
        <ele>1753</ele>
        <time>2022-02-09T08:03:25Z</time>
      </trkpt>
      <trkpt lat="45.13441" lon="5.89562">
        <ele>1755</ele>
        <time>2022-02-09T08:03:32Z</time>
      </trkpt>
      <trkpt lat="45.13444" lon="5.89564">
        <ele>1756</ele>
        <time>2022-02-09T08:03:39Z</time>
      </trkpt>
      <trkpt lat="45.13448" lon="5.89567">
        <ele>1759</ele>
        <time>2022-02-09T08:03:44Z</time>
      </trkpt>
      <trkpt lat="45.13449" lon="5.89572">
        <ele>1760</ele>
        <time>2022-02-09T08:03:47Z</time>
      </trkpt>
      <trkpt lat="45.13452" lon="5.89576">
        <ele>1764</ele>
        <time>2022-02-09T08:03:57Z</time>
      </trkpt>
      <trkpt lat="45.13455" lon="5.89579">
        <ele>1766</ele>
        <time>2022-02-09T08:04:05Z</time>
      </trkpt>
      <trkpt lat="45.13459" lon="5.89578">
        <ele>1766</ele>
        <time>2022-02-09T08:04:32Z</time>
      </trkpt>
      <trkpt lat="45.13464" lon="5.89577">
        <ele>1766</ele>
        <time>2022-02-09T08:04:45Z</time>
      </trkpt>
      <trkpt lat="45.13471" lon="5.89575">
        <ele>1767</ele>
        <time>2022-02-09T08:04:53Z</time>
      </trkpt>
      <trkpt lat="45.1347" lon="5.8958">
        <ele>1766</ele>
        <time>2022-02-09T08:05:04Z</time>
      </trkpt>
      <trkpt lat="45.13469" lon="5.89585">
        <ele>1768</ele>
        <time>2022-02-09T08:05:12Z</time>
      </trkpt>
      <trkpt lat="45.13466" lon="5.8959">
        <ele>1769</ele>
        <time>2022-02-09T08:05:17Z</time>
      </trkpt>
      <trkpt lat="45.13467" lon="5.89595">
        <ele>1769</ele>
        <time>2022-02-09T08:05:27Z</time>
      </trkpt>
      <trkpt lat="45.13467" lon="5.896">
        <ele>1769</ele>
        <time>2022-02-09T08:05:35Z</time>
      </trkpt>
      <trkpt lat="45.13468" lon="5.89605">
        <ele>1773</ele>
        <time>2022-02-09T08:05:41Z</time>
      </trkpt>
      <trkpt lat="45.13472" lon="5.89605">
        <ele>1773</ele>
        <time>2022-02-09T08:05:47Z</time>
      </trkpt>
      <trkpt lat="45.13471" lon="5.8961">
        <ele>1773</ele>
        <time>2022-02-09T08:05:54Z</time>
      </trkpt>
      <trkpt lat="45.13473" lon="5.89621">
        <ele>1775</ele>
        <time>2022-02-09T08:06:04Z</time>
      </trkpt>
      <trkpt lat="45.13473" lon="5.89626">
        <ele>1776</ele>
        <time>2022-02-09T08:06:09Z</time>
      </trkpt>
      <trkpt lat="45.13475" lon="5.89631">
        <ele>1778</ele>
        <time>2022-02-09T08:06:27Z</time>
      </trkpt>
      <trkpt lat="45.13471" lon="5.8963">
        <ele>1777</ele>
        <time>2022-02-09T08:06:37Z</time>
      </trkpt>
      <trkpt lat="45.13465" lon="5.89627">
        <ele>1776</ele>
        <time>2022-02-09T08:06:54Z</time>
      </trkpt>
      <trkpt lat="45.13461" lon="5.89629">
        <ele>1777</ele>
        <time>2022-02-09T08:07:08Z</time>
      </trkpt>
      <trkpt lat="45.13458" lon="5.8963">
        <ele>1779</ele>
        <time>2022-02-09T08:07:17Z</time>
      </trkpt>
      <trkpt lat="45.13455" lon="5.89632">
        <ele>1779</ele>
        <time>2022-02-09T08:07:24Z</time>
      </trkpt>
      <trkpt lat="45.13447" lon="5.89632">
        <ele>1781</ele>
        <time>2022-02-09T08:07:35Z</time>
      </trkpt>
      <trkpt lat="45.13443" lon="5.89634">
        <ele>1785</ele>
        <time>2022-02-09T08:07:41Z</time>
      </trkpt>
      <trkpt lat="45.13437" lon="5.89638">
        <ele>1788</ele>
        <time>2022-02-09T08:07:58Z</time>
      </trkpt>
      <trkpt lat="45.13436" lon="5.89643">
        <ele>1789</ele>
        <time>2022-02-09T08:08:05Z</time>
      </trkpt>
      <trkpt lat="45.13437" lon="5.89649">
        <ele>1793</ele>
        <time>2022-02-09T08:08:10Z</time>
      </trkpt>
      <trkpt lat="45.13435" lon="5.89654">
        <ele>1794</ele>
        <time>2022-02-09T08:08:16Z</time>
      </trkpt>
      <trkpt lat="45.13435" lon="5.89659">
        <ele>1796</ele>
        <time>2022-02-09T08:08:22Z</time>
      </trkpt>
      <trkpt lat="45.13436" lon="5.89664">
        <ele>1796</ele>
        <time>2022-02-09T08:08:26Z</time>
      </trkpt>
      <trkpt lat="45.13438" lon="5.89668">
        <ele>1795</ele>
        <time>2022-02-09T08:08:30Z</time>
      </trkpt>
      <trkpt lat="45.13441" lon="5.89672">
        <ele>1796</ele>
        <time>2022-02-09T08:08:34Z</time>
      </trkpt>
      <trkpt lat="45.13443" lon="5.89669">
        <ele>1797</ele>
        <time>2022-02-09T08:09:54Z</time>
      </trkpt>
      <trkpt lat="45.13443" lon="5.89671">
        <ele>1798</ele>
        <time>2022-02-09T08:12:32Z</time>
      </trkpt>
      <trkpt lat="45.13444" lon="5.89677">
        <ele>1798</ele>
        <time>2022-02-09T08:12:53Z</time>
      </trkpt>
      <trkpt lat="45.13443" lon="5.89681">
        <ele>1798</ele>
        <time>2022-02-09T08:13:02Z</time>
      </trkpt>
      <trkpt lat="45.13445" lon="5.89686">
        <ele>1794</ele>
        <time>2022-02-09T08:13:08Z</time>
      </trkpt>
      <trkpt lat="45.13447" lon="5.89691">
        <ele>1792</ele>
        <time>2022-02-09T08:13:12Z</time>
      </trkpt>
      <trkpt lat="45.13474" lon="5.89752">
        <ele>1786</ele>
        <time>2022-02-09T08:13:43Z</time>
      </trkpt>
      <trkpt lat="45.13479" lon="5.89761">
        <ele>1785</ele>
        <time>2022-02-09T08:13:53Z</time>
      </trkpt>
      <trkpt lat="45.13482" lon="5.89765">
        <ele>1785</ele>
        <time>2022-02-09T08:13:57Z</time>
      </trkpt>
      <trkpt lat="45.13486" lon="5.89767">
        <ele>1784</ele>
        <time>2022-02-09T08:14:02Z</time>
      </trkpt>
      <trkpt lat="45.1349" lon="5.89767">
        <ele>1783</ele>
        <time>2022-02-09T08:14:05Z</time>
      </trkpt>
      <trkpt lat="45.13495" lon="5.89776">
        <ele>1783</ele>
        <time>2022-02-09T08:14:12Z</time>
      </trkpt>
      <trkpt lat="45.13496" lon="5.8978">
        <ele>1783</ele>
        <time>2022-02-09T08:14:15Z</time>
      </trkpt>
      <trkpt lat="45.13501" lon="5.8979">
        <ele>1784</ele>
        <time>2022-02-09T08:14:22Z</time>
      </trkpt>
      <trkpt lat="45.13504" lon="5.89805">
        <ele>1783</ele>
        <time>2022-02-09T08:14:34Z</time>
      </trkpt>
      <trkpt lat="45.13506" lon="5.89811">
        <ele>1782</ele>
        <time>2022-02-09T08:14:38Z</time>
      </trkpt>
      <trkpt lat="45.1351" lon="5.89812">
        <ele>1781</ele>
        <time>2022-02-09T08:14:47Z</time>
      </trkpt>
      <trkpt lat="45.13515" lon="5.89814">
        <ele>1780</ele>
        <time>2022-02-09T08:14:50Z</time>
      </trkpt>
      <trkpt lat="45.13516" lon="5.8982">
        <ele>1779</ele>
        <time>2022-02-09T08:14:53Z</time>
      </trkpt>
      <trkpt lat="45.13516" lon="5.89825">
        <ele>1780</ele>
        <time>2022-02-09T08:14:56Z</time>
      </trkpt>
      <trkpt lat="45.13516" lon="5.89832">
        <ele>1779</ele>
        <time>2022-02-09T08:14:59Z</time>
      </trkpt>
      <trkpt lat="45.13517" lon="5.89837">
        <ele>1778</ele>
        <time>2022-02-09T08:15:00Z</time>
      </trkpt>
      <trkpt lat="45.13524" lon="5.89846">
        <ele>1775</ele>
        <time>2022-02-09T08:15:02Z</time>
      </trkpt>
      <trkpt lat="45.13527" lon="5.89849">
        <ele>1775</ele>
        <time>2022-02-09T08:15:04Z</time>
      </trkpt>
      <trkpt lat="45.13521" lon="5.89852">
        <ele>1774</ele>
        <time>2022-02-09T08:15:21Z</time>
      </trkpt>
      <trkpt lat="45.13516" lon="5.89854">
        <ele>1773</ele>
        <time>2022-02-09T08:15:24Z</time>
      </trkpt>
      <trkpt lat="45.13512" lon="5.89855">
        <ele>1771</ele>
        <time>2022-02-09T08:15:27Z</time>
      </trkpt>
      <trkpt lat="45.13507" lon="5.89858">
        <ele>1769</ele>
        <time>2022-02-09T08:15:32Z</time>
      </trkpt>
      <trkpt lat="45.13506" lon="5.89862">
        <ele>1768</ele>
        <time>2022-02-09T08:15:35Z</time>
      </trkpt>
      <trkpt lat="45.13509" lon="5.89866">
        <ele>1767</ele>
        <time>2022-02-09T08:15:44Z</time>
      </trkpt>
      <trkpt lat="45.13513" lon="5.89866">
        <ele>1766</ele>
        <time>2022-02-09T08:15:51Z</time>
      </trkpt>
      <trkpt lat="45.13514" lon="5.89872">
        <ele>1766</ele>
        <time>2022-02-09T08:15:54Z</time>
      </trkpt>
      <trkpt lat="45.13515" lon="5.89881">
        <ele>1771</ele>
        <time>2022-02-09T08:16:07Z</time>
      </trkpt>
      <trkpt lat="45.13517" lon="5.89886">
        <ele>1775</ele>
        <time>2022-02-09T08:16:21Z</time>
      </trkpt>
      <trkpt lat="45.13519" lon="5.89891">
        <ele>1776</ele>
        <time>2022-02-09T08:16:27Z</time>
      </trkpt>
      <trkpt lat="45.13522" lon="5.89895">
        <ele>1772</ele>
        <time>2022-02-09T08:16:30Z</time>
      </trkpt>
      <trkpt lat="45.13518" lon="5.89897">
        <ele>1770</ele>
        <time>2022-02-09T08:16:37Z</time>
      </trkpt>
      <trkpt lat="45.1352" lon="5.89902">
        <ele>1770</ele>
        <time>2022-02-09T08:16:42Z</time>
      </trkpt>
      <trkpt lat="45.1352" lon="5.89906">
        <ele>1771</ele>
        <time>2022-02-09T08:16:57Z</time>
      </trkpt>
      <trkpt lat="45.13517" lon="5.89909">
        <ele>1772</ele>
        <time>2022-02-09T08:17:06Z</time>
      </trkpt>
      <trkpt lat="45.13513" lon="5.89912">
        <ele>1765</ele>
        <time>2022-02-09T08:17:10Z</time>
      </trkpt>
      <trkpt lat="45.13512" lon="5.89917">
        <ele>1763</ele>
        <time>2022-02-09T08:17:14Z</time>
      </trkpt>
      <trkpt lat="45.13509" lon="5.89928">
        <ele>1759</ele>
        <time>2022-02-09T08:17:27Z</time>
      </trkpt>
      <trkpt lat="45.13505" lon="5.89975">
        <ele>1759</ele>
        <time>2022-02-09T08:18:00Z</time>
      </trkpt>
      <trkpt lat="45.13504" lon="5.90002">
        <ele>1758</ele>
        <time>2022-02-09T08:18:19Z</time>
      </trkpt>
      <trkpt lat="45.13504" lon="5.90013">
        <ele>1759</ele>
        <time>2022-02-09T08:18:27Z</time>
      </trkpt>
      <trkpt lat="45.13505" lon="5.90026">
        <ele>1760</ele>
        <time>2022-02-09T08:18:37Z</time>
      </trkpt>
      <trkpt lat="45.13504" lon="5.90037">
        <ele>1762</ele>
        <time>2022-02-09T08:18:49Z</time>
      </trkpt>
      <trkpt lat="45.13501" lon="5.90046">
        <ele>1764</ele>
        <time>2022-02-09T08:18:59Z</time>
      </trkpt>
      <trkpt lat="45.13498" lon="5.90049">
        <ele>1765</ele>
        <time>2022-02-09T08:19:03Z</time>
      </trkpt>
      <trkpt lat="45.13495" lon="5.9005">
        <ele>1765</ele>
        <time>2022-02-09T08:19:08Z</time>
      </trkpt>
      <trkpt lat="45.13491" lon="5.9005">
        <ele>1766</ele>
        <time>2022-02-09T08:19:13Z</time>
      </trkpt>
      <trkpt lat="45.13488" lon="5.90051">
        <ele>1767</ele>
        <time>2022-02-09T08:19:20Z</time>
      </trkpt>
      <trkpt lat="45.13485" lon="5.90055">
        <ele>1766</ele>
        <time>2022-02-09T08:19:25Z</time>
      </trkpt>
      <trkpt lat="45.13482" lon="5.90057">
        <ele>1765</ele>
        <time>2022-02-09T08:19:35Z</time>
      </trkpt>
      <trkpt lat="45.13481" lon="5.90068">
        <ele>1767</ele>
        <time>2022-02-09T08:19:46Z</time>
      </trkpt>
      <trkpt lat="45.13482" lon="5.90073">
        <ele>1768</ele>
        <time>2022-02-09T08:19:57Z</time>
      </trkpt>
      <trkpt lat="45.13481" lon="5.90078">
        <ele>1767</ele>
        <time>2022-02-09T08:20:07Z</time>
      </trkpt>
      <trkpt lat="45.13479" lon="5.90082">
        <ele>1768</ele>
        <time>2022-02-09T08:20:26Z</time>
      </trkpt>
      <trkpt lat="45.1348" lon="5.90087">
        <ele>1771</ele>
        <time>2022-02-09T08:20:33Z</time>
      </trkpt>
      <trkpt lat="45.13482" lon="5.90092">
        <ele>1771</ele>
        <time>2022-02-09T08:20:41Z</time>
      </trkpt>
      <trkpt lat="45.13479" lon="5.90093">
        <ele>1773</ele>
        <time>2022-02-09T08:20:53Z</time>
      </trkpt>
      <trkpt lat="45.13479" lon="5.90098">
        <ele>1774</ele>
        <time>2022-02-09T08:21:02Z</time>
      </trkpt>
      <trkpt lat="45.13481" lon="5.90103">
        <ele>1776</ele>
        <time>2022-02-09T08:21:09Z</time>
      </trkpt>
      <trkpt lat="45.13483" lon="5.90106">
        <ele>1775</ele>
        <time>2022-02-09T08:21:15Z</time>
      </trkpt>
      <trkpt lat="45.13488" lon="5.90107">
        <ele>1777</ele>
        <time>2022-02-09T08:21:22Z</time>
      </trkpt>
      <trkpt lat="45.13491" lon="5.90111">
        <ele>1778</ele>
        <time>2022-02-09T08:21:25Z</time>
      </trkpt>
      <trkpt lat="45.13491" lon="5.90117">
        <ele>1780</ele>
        <time>2022-02-09T08:21:29Z</time>
      </trkpt>
      <trkpt lat="45.13487" lon="5.90117">
        <ele>1779</ele>
        <time>2022-02-09T08:21:44Z</time>
      </trkpt>
      <trkpt lat="45.13484" lon="5.90114">
        <ele>1778</ele>
        <time>2022-02-09T08:21:52Z</time>
      </trkpt>
      <trkpt lat="45.13481" lon="5.90112">
        <ele>1779</ele>
        <time>2022-02-09T08:22:02Z</time>
      </trkpt>
      <trkpt lat="45.13477" lon="5.90113">
        <ele>1781</ele>
        <time>2022-02-09T08:22:17Z</time>
      </trkpt>
      <trkpt lat="45.13474" lon="5.9011">
        <ele>1782</ele>
        <time>2022-02-09T08:22:32Z</time>
      </trkpt>
      <trkpt lat="45.13472" lon="5.90113">
        <ele>1784</ele>
        <time>2022-02-09T08:22:44Z</time>
      </trkpt>
      <trkpt lat="45.1347" lon="5.90123">
        <ele>1788</ele>
        <time>2022-02-09T08:22:53Z</time>
      </trkpt>
      <trkpt lat="45.13464" lon="5.90148">
        <ele>1795</ele>
        <time>2022-02-09T08:23:15Z</time>
      </trkpt>
      <trkpt lat="45.13464" lon="5.90153">
        <ele>1795</ele>
        <time>2022-02-09T08:23:20Z</time>
      </trkpt>
      <trkpt lat="45.13466" lon="5.90157">
        <ele>1797</ele>
        <time>2022-02-09T08:23:29Z</time>
      </trkpt>
      <trkpt lat="45.13468" lon="5.90168">
        <ele>1799</ele>
        <time>2022-02-09T08:23:43Z</time>
      </trkpt>
      <trkpt lat="45.13466" lon="5.90195">
        <ele>1803</ele>
        <time>2022-02-09T08:24:03Z</time>
      </trkpt>
      <trkpt lat="45.13465" lon="5.90212">
        <ele>1803</ele>
        <time>2022-02-09T08:24:14Z</time>
      </trkpt>
      <trkpt lat="45.13469" lon="5.90228">
        <ele>1803</ele>
        <time>2022-02-09T08:24:27Z</time>
      </trkpt>
      <trkpt lat="45.13471" lon="5.90233">
        <ele>1802</ele>
        <time>2022-02-09T08:24:32Z</time>
      </trkpt>
      <trkpt lat="45.13475" lon="5.9026">
        <ele>1803</ele>
        <time>2022-02-09T08:24:50Z</time>
      </trkpt>
      <trkpt lat="45.13474" lon="5.90276">
        <ele>1807</ele>
        <time>2022-02-09T08:25:04Z</time>
      </trkpt>
      <trkpt lat="45.13476" lon="5.90283">
        <ele>1811</ele>
        <time>2022-02-09T08:25:10Z</time>
      </trkpt>
      <trkpt lat="45.13474" lon="5.90288">
        <ele>1810</ele>
        <time>2022-02-09T08:25:16Z</time>
      </trkpt>
      <trkpt lat="45.13478" lon="5.90322">
        <ele>1800</ele>
        <time>2022-02-09T08:25:38Z</time>
      </trkpt>
      <trkpt lat="45.13477" lon="5.90329">
        <ele>1800</ele>
        <time>2022-02-09T08:25:41Z</time>
      </trkpt>
      <trkpt lat="45.13475" lon="5.90339">
        <ele>1803</ele>
        <time>2022-02-09T08:25:49Z</time>
      </trkpt>
      <trkpt lat="45.13474" lon="5.90345">
        <ele>1805</ele>
        <time>2022-02-09T08:25:53Z</time>
      </trkpt>
      <trkpt lat="45.13474" lon="5.90351">
        <ele>1806</ele>
        <time>2022-02-09T08:25:58Z</time>
      </trkpt>
      <trkpt lat="45.1347" lon="5.90378">
        <ele>1808</ele>
        <time>2022-02-09T08:26:19Z</time>
      </trkpt>
      <trkpt lat="45.13468" lon="5.90389">
        <ele>1808</ele>
        <time>2022-02-09T08:26:29Z</time>
      </trkpt>
      <trkpt lat="45.13468" lon="5.90394">
        <ele>1810</ele>
        <time>2022-02-09T08:26:33Z</time>
      </trkpt>
      <trkpt lat="45.13467" lon="5.904">
        <ele>1811</ele>
        <time>2022-02-09T08:26:37Z</time>
      </trkpt>
      <trkpt lat="45.13469" lon="5.90405">
        <ele>1811</ele>
        <time>2022-02-09T08:26:41Z</time>
      </trkpt>
      <trkpt lat="45.1347" lon="5.9041">
        <ele>1809</ele>
        <time>2022-02-09T08:26:45Z</time>
      </trkpt>
      <trkpt lat="45.13474" lon="5.90419">
        <ele>1808</ele>
        <time>2022-02-09T08:26:54Z</time>
      </trkpt>
      <trkpt lat="45.13481" lon="5.90432">
        <ele>1810</ele>
        <time>2022-02-09T08:27:06Z</time>
      </trkpt>
      <trkpt lat="45.13482" lon="5.90436">
        <ele>1814</ele>
        <time>2022-02-09T08:27:11Z</time>
      </trkpt>
      <trkpt lat="45.13485" lon="5.9044">
        <ele>1815</ele>
        <time>2022-02-09T08:27:19Z</time>
      </trkpt>
      <trkpt lat="45.13483" lon="5.90444">
        <ele>1816</ele>
        <time>2022-02-09T08:27:27Z</time>
      </trkpt>
      <trkpt lat="45.1348" lon="5.90448">
        <ele>1818</ele>
        <time>2022-02-09T08:27:32Z</time>
      </trkpt>
      <trkpt lat="45.13474" lon="5.90461">
        <ele>1822</ele>
        <time>2022-02-09T08:27:54Z</time>
      </trkpt>
      <trkpt lat="45.13471" lon="5.90465">
        <ele>1824</ele>
        <time>2022-02-09T08:28:00Z</time>
      </trkpt>
      <trkpt lat="45.13465" lon="5.90484">
        <ele>1824</ele>
        <time>2022-02-09T08:28:27Z</time>
      </trkpt>
      <trkpt lat="45.13464" lon="5.90494">
        <ele>1825</ele>
        <time>2022-02-09T08:28:37Z</time>
      </trkpt>
      <trkpt lat="45.13465" lon="5.9051">
        <ele>1826</ele>
        <time>2022-02-09T08:28:53Z</time>
      </trkpt>
      <trkpt lat="45.13465" lon="5.90516">
        <ele>1827</ele>
        <time>2022-02-09T08:28:58Z</time>
      </trkpt>
      <trkpt lat="45.13465" lon="5.90521">
        <ele>1827</ele>
        <time>2022-02-09T08:29:03Z</time>
      </trkpt>
      <trkpt lat="45.13465" lon="5.90527">
        <ele>1829</ele>
        <time>2022-02-09T08:29:09Z</time>
      </trkpt>
      <trkpt lat="45.13464" lon="5.90537">
        <ele>1830</ele>
        <time>2022-02-09T08:29:20Z</time>
      </trkpt>
      <trkpt lat="45.13466" lon="5.90541">
        <ele>1832</ele>
        <time>2022-02-09T08:29:26Z</time>
      </trkpt>
      <trkpt lat="45.1347" lon="5.9054">
        <ele>1832</ele>
        <time>2022-02-09T08:29:31Z</time>
      </trkpt>
      <trkpt lat="45.1347" lon="5.90545">
        <ele>1832</ele>
        <time>2022-02-09T08:29:39Z</time>
      </trkpt>
      <trkpt lat="45.13462" lon="5.90557">
        <ele>1837</ele>
        <time>2022-02-09T08:29:56Z</time>
      </trkpt>
      <trkpt lat="45.13459" lon="5.90558">
        <ele>1838</ele>
        <time>2022-02-09T08:30:01Z</time>
      </trkpt>
      <trkpt lat="45.13459" lon="5.90563">
        <ele>1838</ele>
        <time>2022-02-09T08:30:08Z</time>
      </trkpt>
      <trkpt lat="45.13459" lon="5.90568">
        <ele>1840</ele>
        <time>2022-02-09T08:30:25Z</time>
      </trkpt>
      <trkpt lat="45.13457" lon="5.90573">
        <ele>1839</ele>
        <time>2022-02-09T08:30:32Z</time>
      </trkpt>
      <trkpt lat="45.13455" lon="5.90584">
        <ele>1841</ele>
        <time>2022-02-09T08:30:44Z</time>
      </trkpt>
      <trkpt lat="45.13452" lon="5.90594">
        <ele>1843</ele>
        <time>2022-02-09T08:30:53Z</time>
      </trkpt>
      <trkpt lat="45.13451" lon="5.90599">
        <ele>1844</ele>
        <time>2022-02-09T08:30:59Z</time>
      </trkpt>
      <trkpt lat="45.13451" lon="5.9061">
        <ele>1848</ele>
        <time>2022-02-09T08:31:10Z</time>
      </trkpt>
      <trkpt lat="45.13451" lon="5.90615">
        <ele>1848</ele>
        <time>2022-02-09T08:31:16Z</time>
      </trkpt>
      <trkpt lat="45.13447" lon="5.90625">
        <ele>1849</ele>
        <time>2022-02-09T08:31:27Z</time>
      </trkpt>
      <trkpt lat="45.13446" lon="5.9063">
        <ele>1849</ele>
        <time>2022-02-09T08:31:32Z</time>
      </trkpt>
      <trkpt lat="45.13444" lon="5.90635">
        <ele>1848</ele>
        <time>2022-02-09T08:31:38Z</time>
      </trkpt>
      <trkpt lat="45.13442" lon="5.90639">
        <ele>1848</ele>
        <time>2022-02-09T08:31:45Z</time>
      </trkpt>
      <trkpt lat="45.13439" lon="5.90649">
        <ele>1850</ele>
        <time>2022-02-09T08:31:55Z</time>
      </trkpt>
      <trkpt lat="45.13438" lon="5.90654">
        <ele>1851</ele>
        <time>2022-02-09T08:32:02Z</time>
      </trkpt>
      <trkpt lat="45.1344" lon="5.90664">
        <ele>1854</ele>
        <time>2022-02-09T08:32:16Z</time>
      </trkpt>
      <trkpt lat="45.1344" lon="5.9068">
        <ele>1857</ele>
        <time>2022-02-09T08:32:36Z</time>
      </trkpt>
      <trkpt lat="45.13442" lon="5.90685">
        <ele>1859</ele>
        <time>2022-02-09T08:32:41Z</time>
      </trkpt>
      <trkpt lat="45.13445" lon="5.90686">
        <ele>1861</ele>
        <time>2022-02-09T08:32:48Z</time>
      </trkpt>
      <trkpt lat="45.13449" lon="5.90685">
        <ele>1862</ele>
        <time>2022-02-09T08:32:53Z</time>
      </trkpt>
      <trkpt lat="45.13452" lon="5.90687">
        <ele>1863</ele>
        <time>2022-02-09T08:32:59Z</time>
      </trkpt>
      <trkpt lat="45.13455" lon="5.90691">
        <ele>1865</ele>
        <time>2022-02-09T08:33:06Z</time>
      </trkpt>
      <trkpt lat="45.13456" lon="5.90695">
        <ele>1868</ele>
        <time>2022-02-09T08:33:14Z</time>
      </trkpt>
      <trkpt lat="45.13456" lon="5.907">
        <ele>1869</ele>
        <time>2022-02-09T08:33:21Z</time>
      </trkpt>
      <trkpt lat="45.13457" lon="5.90705">
        <ele>1871</ele>
        <time>2022-02-09T08:33:28Z</time>
      </trkpt>
      <trkpt lat="45.13459" lon="5.90725">
        <ele>1871</ele>
        <time>2022-02-09T08:33:52Z</time>
      </trkpt>
      <trkpt lat="45.13459" lon="5.9073">
        <ele>1872</ele>
        <time>2022-02-09T08:33:55Z</time>
      </trkpt>
      <trkpt lat="45.13458" lon="5.90747">
        <ele>1878</ele>
        <time>2022-02-09T08:34:08Z</time>
      </trkpt>
      <trkpt lat="45.13456" lon="5.9075">
        <ele>1878</ele>
        <time>2022-02-09T08:34:16Z</time>
      </trkpt>
      <trkpt lat="45.13453" lon="5.90754">
        <ele>1879</ele>
        <time>2022-02-09T08:34:24Z</time>
      </trkpt>
      <trkpt lat="45.13453" lon="5.90759">
        <ele>1879</ele>
        <time>2022-02-09T08:34:30Z</time>
      </trkpt>
      <trkpt lat="45.13451" lon="5.90763">
        <ele>1880</ele>
        <time>2022-02-09T08:34:37Z</time>
      </trkpt>
      <trkpt lat="45.13451" lon="5.90769">
        <ele>1880</ele>
        <time>2022-02-09T08:34:44Z</time>
      </trkpt>
      <trkpt lat="45.1345" lon="5.90774">
        <ele>1880</ele>
        <time>2022-02-09T08:34:50Z</time>
      </trkpt>
      <trkpt lat="45.13449" lon="5.90779">
        <ele>1881</ele>
        <time>2022-02-09T08:34:56Z</time>
      </trkpt>
      <trkpt lat="45.13446" lon="5.90782">
        <ele>1882</ele>
        <time>2022-02-09T08:35:03Z</time>
      </trkpt>
      <trkpt lat="45.13445" lon="5.90787">
        <ele>1882</ele>
        <time>2022-02-09T08:35:10Z</time>
      </trkpt>
      <trkpt lat="45.13444" lon="5.90802">
        <ele>1887</ele>
        <time>2022-02-09T08:35:27Z</time>
      </trkpt>
      <trkpt lat="45.13442" lon="5.90823">
        <ele>1890</ele>
        <time>2022-02-09T08:35:45Z</time>
      </trkpt>
      <trkpt lat="45.13443" lon="5.90828">
        <ele>1891</ele>
        <time>2022-02-09T08:35:51Z</time>
      </trkpt>
      <trkpt lat="45.13442" lon="5.90833">
        <ele>1896</ele>
        <time>2022-02-09T08:35:58Z</time>
      </trkpt>
      <trkpt lat="45.13441" lon="5.90838">
        <ele>1899</ele>
        <time>2022-02-09T08:36:06Z</time>
      </trkpt>
      <trkpt lat="45.13442" lon="5.90844">
        <ele>1902</ele>
        <time>2022-02-09T08:36:14Z</time>
      </trkpt>
      <trkpt lat="45.1344" lon="5.90849">
        <ele>1902</ele>
        <time>2022-02-09T08:36:20Z</time>
      </trkpt>
      <trkpt lat="45.13438" lon="5.90853">
        <ele>1903</ele>
        <time>2022-02-09T08:36:24Z</time>
      </trkpt>
      <trkpt lat="45.13432" lon="5.9086">
        <ele>1906</ele>
        <time>2022-02-09T08:36:40Z</time>
      </trkpt>
      <trkpt lat="45.13429" lon="5.90875">
        <ele>1909</ele>
        <time>2022-02-09T08:36:59Z</time>
      </trkpt>
      <trkpt lat="45.13432" lon="5.90878">
        <ele>1911</ele>
        <time>2022-02-09T08:37:06Z</time>
      </trkpt>
      <trkpt lat="45.13436" lon="5.90876">
        <ele>1911</ele>
        <time>2022-02-09T08:37:12Z</time>
      </trkpt>
      <trkpt lat="45.1344" lon="5.90877">
        <ele>1913</ele>
        <time>2022-02-09T08:37:17Z</time>
      </trkpt>
      <trkpt lat="45.13443" lon="5.90879">
        <ele>1913</ele>
        <time>2022-02-09T08:37:23Z</time>
      </trkpt>
      <trkpt lat="45.13446" lon="5.90882">
        <ele>1915</ele>
        <time>2022-02-09T08:37:28Z</time>
      </trkpt>
      <trkpt lat="45.13449" lon="5.90887">
        <ele>1916</ele>
        <time>2022-02-09T08:37:32Z</time>
      </trkpt>
      <trkpt lat="45.13451" lon="5.90891">
        <ele>1916</ele>
        <time>2022-02-09T08:37:35Z</time>
      </trkpt>
      <trkpt lat="45.13452" lon="5.90896">
        <ele>1920</ele>
        <time>2022-02-09T08:37:38Z</time>
      </trkpt>
      <trkpt lat="45.1345" lon="5.909">
        <ele>1921</ele>
        <time>2022-02-09T08:37:46Z</time>
      </trkpt>
      <trkpt lat="45.13447" lon="5.90903">
        <ele>1919</ele>
        <time>2022-02-09T08:37:57Z</time>
      </trkpt>
      <trkpt lat="45.13453" lon="5.9091">
        <ele>1919</ele>
        <time>2022-02-09T08:38:12Z</time>
      </trkpt>
      <trkpt lat="45.13461" lon="5.90912">
        <ele>1924</ele>
        <time>2022-02-09T08:38:22Z</time>
      </trkpt>
      <trkpt lat="45.13465" lon="5.90911">
        <ele>1926</ele>
        <time>2022-02-09T08:38:31Z</time>
      </trkpt>
      <trkpt lat="45.13469" lon="5.90912">
        <ele>1927</ele>
        <time>2022-02-09T08:38:38Z</time>
      </trkpt>
      <trkpt lat="45.13472" lon="5.90915">
        <ele>1928</ele>
        <time>2022-02-09T08:38:42Z</time>
      </trkpt>
      <trkpt lat="45.13479" lon="5.90919">
        <ele>1933</ele>
        <time>2022-02-09T08:38:49Z</time>
      </trkpt>
      <trkpt lat="45.1348" lon="5.90924">
        <ele>1934</ele>
        <time>2022-02-09T08:38:57Z</time>
      </trkpt>
      <trkpt lat="45.13484" lon="5.90925">
        <ele>1932</ele>
        <time>2022-02-09T08:39:06Z</time>
      </trkpt>
      <trkpt lat="45.13488" lon="5.90934">
        <ele>1929</ele>
        <time>2022-02-09T08:39:18Z</time>
      </trkpt>
      <trkpt lat="45.13489" lon="5.90939">
        <ele>1929</ele>
        <time>2022-02-09T08:39:23Z</time>
      </trkpt>
      <trkpt lat="45.1349" lon="5.90945">
        <ele>1929</ele>
        <time>2022-02-09T08:39:29Z</time>
      </trkpt>
      <trkpt lat="45.13489" lon="5.9095">
        <ele>1930</ele>
        <time>2022-02-09T08:39:34Z</time>
      </trkpt>
      <trkpt lat="45.13486" lon="5.90953">
        <ele>1931</ele>
        <time>2022-02-09T08:39:40Z</time>
      </trkpt>
      <trkpt lat="45.13484" lon="5.90957">
        <ele>1934</ele>
        <time>2022-02-09T08:39:47Z</time>
      </trkpt>
      <trkpt lat="45.13482" lon="5.90961">
        <ele>1935</ele>
        <time>2022-02-09T08:39:53Z</time>
      </trkpt>
      <trkpt lat="45.13482" lon="5.90966">
        <ele>1937</ele>
        <time>2022-02-09T08:39:59Z</time>
      </trkpt>
      <trkpt lat="45.13483" lon="5.9097">
        <ele>1938</ele>
        <time>2022-02-09T08:40:05Z</time>
      </trkpt>
      <trkpt lat="45.13483" lon="5.9098">
        <ele>1940</ele>
        <time>2022-02-09T08:40:17Z</time>
      </trkpt>
      <trkpt lat="45.1348" lon="5.90984">
        <ele>1938</ele>
        <time>2022-02-09T08:40:26Z</time>
      </trkpt>
      <trkpt lat="45.13477" lon="5.90986">
        <ele>1937</ele>
        <time>2022-02-09T08:40:32Z</time>
      </trkpt>
      <trkpt lat="45.13475" lon="5.9099">
        <ele>1938</ele>
        <time>2022-02-09T08:40:39Z</time>
      </trkpt>
      <trkpt lat="45.13473" lon="5.90994">
        <ele>1938</ele>
        <time>2022-02-09T08:40:45Z</time>
      </trkpt>
      <trkpt lat="45.13474" lon="5.90999">
        <ele>1939</ele>
        <time>2022-02-09T08:40:53Z</time>
      </trkpt>
      <trkpt lat="45.13484" lon="5.91008">
        <ele>1942</ele>
        <time>2022-02-09T08:41:16Z</time>
      </trkpt>
      <trkpt lat="45.13487" lon="5.91012">
        <ele>1944</ele>
        <time>2022-02-09T08:41:19Z</time>
      </trkpt>
      <trkpt lat="45.1349" lon="5.91016">
        <ele>1945</ele>
        <time>2022-02-09T08:41:22Z</time>
      </trkpt>
      <trkpt lat="45.13493" lon="5.91019">
        <ele>1949</ele>
        <time>2022-02-09T08:41:30Z</time>
      </trkpt>
      <trkpt lat="45.13495" lon="5.91023">
        <ele>1948</ele>
        <time>2022-02-09T08:41:36Z</time>
      </trkpt>
      <trkpt lat="45.13496" lon="5.91028">
        <ele>1948</ele>
        <time>2022-02-09T08:41:41Z</time>
      </trkpt>
      <trkpt lat="45.13495" lon="5.91033">
        <ele>1948</ele>
        <time>2022-02-09T08:41:46Z</time>
      </trkpt>
      <trkpt lat="45.13494" lon="5.91039">
        <ele>1947</ele>
        <time>2022-02-09T08:41:53Z</time>
      </trkpt>
      <trkpt lat="45.13498" lon="5.91048">
        <ele>1948</ele>
        <time>2022-02-09T08:42:08Z</time>
      </trkpt>
      <trkpt lat="45.13497" lon="5.91054">
        <ele>1949</ele>
        <time>2022-02-09T08:42:16Z</time>
      </trkpt>
      <trkpt lat="45.13496" lon="5.91059">
        <ele>1948</ele>
        <time>2022-02-09T08:42:24Z</time>
      </trkpt>
      <trkpt lat="45.13497" lon="5.91064">
        <ele>1949</ele>
        <time>2022-02-09T08:42:34Z</time>
      </trkpt>
      <trkpt lat="45.13501" lon="5.91065">
        <ele>1951</ele>
        <time>2022-02-09T08:42:41Z</time>
      </trkpt>
      <trkpt lat="45.13508" lon="5.91066">
        <ele>1955</ele>
        <time>2022-02-09T08:43:03Z</time>
      </trkpt>
      <trkpt lat="45.13511" lon="5.91062">
        <ele>1954</ele>
        <time>2022-02-09T08:43:10Z</time>
      </trkpt>
      <trkpt lat="45.13512" lon="5.91057">
        <ele>1955</ele>
        <time>2022-02-09T08:43:17Z</time>
      </trkpt>
      <trkpt lat="45.13519" lon="5.91052">
        <ele>1958</ele>
        <time>2022-02-09T08:43:32Z</time>
      </trkpt>
      <trkpt lat="45.13521" lon="5.91048">
        <ele>1960</ele>
        <time>2022-02-09T08:43:39Z</time>
      </trkpt>
      <trkpt lat="45.13524" lon="5.91048">
        <ele>1960</ele>
        <time>2022-02-09T08:43:49Z</time>
      </trkpt>
      <trkpt lat="45.13524" lon="5.91053">
        <ele>1961</ele>
        <time>2022-02-09T08:44:01Z</time>
      </trkpt>
      <trkpt lat="45.13523" lon="5.91064">
        <ele>1963</ele>
        <time>2022-02-09T08:44:12Z</time>
      </trkpt>
      <trkpt lat="45.13523" lon="5.91069">
        <ele>1964</ele>
        <time>2022-02-09T08:44:18Z</time>
      </trkpt>
      <trkpt lat="45.13524" lon="5.9108">
        <ele>1968</ele>
        <time>2022-02-09T08:44:31Z</time>
      </trkpt>
      <trkpt lat="45.13525" lon="5.91085">
        <ele>1968</ele>
        <time>2022-02-09T08:44:35Z</time>
      </trkpt>
      <trkpt lat="45.13526" lon="5.9109">
        <ele>1970</ele>
        <time>2022-02-09T08:44:39Z</time>
      </trkpt>
      <trkpt lat="45.13527" lon="5.91095">
        <ele>1970</ele>
        <time>2022-02-09T08:44:43Z</time>
      </trkpt>
      <trkpt lat="45.13528" lon="5.911">
        <ele>1970</ele>
        <time>2022-02-09T08:44:49Z</time>
      </trkpt>
      <trkpt lat="45.1353" lon="5.91105">
        <ele>1972</ele>
        <time>2022-02-09T08:44:58Z</time>
      </trkpt>
      <trkpt lat="45.13531" lon="5.91108">
        <ele>1974</ele>
        <time>2022-02-09T08:45:33Z</time>
      </trkpt>
      <trkpt lat="45.13526" lon="5.91116">
        <ele>1974</ele>
        <time>2022-02-09T08:45:49Z</time>
      </trkpt>
      <trkpt lat="45.13522" lon="5.91125">
        <ele>1978</ele>
        <time>2022-02-09T08:46:02Z</time>
      </trkpt>
      <trkpt lat="45.13521" lon="5.91135">
        <ele>1980</ele>
        <time>2022-02-09T08:46:26Z</time>
      </trkpt>
      <trkpt lat="45.13521" lon="5.9114">
        <ele>1981</ele>
        <time>2022-02-09T08:46:32Z</time>
      </trkpt>
      <trkpt lat="45.13519" lon="5.91145">
        <ele>1982</ele>
        <time>2022-02-09T08:46:38Z</time>
      </trkpt>
      <trkpt lat="45.13517" lon="5.91154">
        <ele>1985</ele>
        <time>2022-02-09T08:46:52Z</time>
      </trkpt>
      <trkpt lat="45.13517" lon="5.91158">
        <ele>1987</ele>
        <time>2022-02-09T08:47:26Z</time>
      </trkpt>
      <trkpt lat="45.13521" lon="5.9116">
        <ele>1988</ele>
        <time>2022-02-09T08:47:31Z</time>
      </trkpt>
      <trkpt lat="45.13524" lon="5.91162">
        <ele>1990</ele>
        <time>2022-02-09T08:47:38Z</time>
      </trkpt>
      <trkpt lat="45.13531" lon="5.91164">
        <ele>1993</ele>
        <time>2022-02-09T08:47:55Z</time>
      </trkpt>
      <trkpt lat="45.13525" lon="5.91171">
        <ele>1993</ele>
        <time>2022-02-09T08:48:20Z</time>
      </trkpt>
      <trkpt lat="45.13523" lon="5.91176">
        <ele>1996</ele>
        <time>2022-02-09T08:48:26Z</time>
      </trkpt>
      <trkpt lat="45.13519" lon="5.91177">
        <ele>1996</ele>
        <time>2022-02-09T08:48:31Z</time>
      </trkpt>
      <trkpt lat="45.13519" lon="5.91183">
        <ele>1997</ele>
        <time>2022-02-09T08:48:49Z</time>
      </trkpt>
      <trkpt lat="45.13522" lon="5.91186">
        <ele>1997</ele>
        <time>2022-02-09T08:48:54Z</time>
      </trkpt>
      <trkpt lat="45.13524" lon="5.91191">
        <ele>1998</ele>
        <time>2022-02-09T08:49:06Z</time>
      </trkpt>
      <trkpt lat="45.13522" lon="5.91196">
        <ele>1999</ele>
        <time>2022-02-09T08:49:13Z</time>
      </trkpt>
      <trkpt lat="45.13515" lon="5.91198">
        <ele>2002</ele>
        <time>2022-02-09T08:49:27Z</time>
      </trkpt>
      <trkpt lat="45.13511" lon="5.91198">
        <ele>2005</ele>
        <time>2022-02-09T08:49:39Z</time>
      </trkpt>
      <trkpt lat="45.13508" lon="5.91202">
        <ele>2005</ele>
        <time>2022-02-09T08:49:49Z</time>
      </trkpt>
      <trkpt lat="45.1351" lon="5.91207">
        <ele>2007</ele>
        <time>2022-02-09T08:49:56Z</time>
      </trkpt>
      <trkpt lat="45.13512" lon="5.9121">
        <ele>2007</ele>
        <time>2022-02-09T08:50:04Z</time>
      </trkpt>
      <trkpt lat="45.13512" lon="5.91211">
        <ele>2010</ele>
        <time>2022-02-09T08:50:36Z</time>
      </trkpt>
      <trkpt lat="45.13502" lon="5.91214">
        <ele>2016</ele>
        <time>2022-02-09T08:50:57Z</time>
      </trkpt>
      <trkpt lat="45.13503" lon="5.91219">
        <ele>2017</ele>
        <time>2022-02-09T08:51:15Z</time>
      </trkpt>
      <trkpt lat="45.13506" lon="5.91222">
        <ele>2019</ele>
        <time>2022-02-09T08:51:21Z</time>
      </trkpt>
      <trkpt lat="45.1351" lon="5.91224">
        <ele>2019</ele>
        <time>2022-02-09T08:51:27Z</time>
      </trkpt>
      <trkpt lat="45.13516" lon="5.9123">
        <ele>2020</ele>
        <time>2022-02-09T08:51:46Z</time>
      </trkpt>
      <trkpt lat="45.13513" lon="5.91231">
        <ele>2023</ele>
        <time>2022-02-09T08:52:18Z</time>
      </trkpt>
      <trkpt lat="45.13509" lon="5.9123">
        <ele>2024</ele>
        <time>2022-02-09T08:52:24Z</time>
      </trkpt>
      <trkpt lat="45.13498" lon="5.91233">
        <ele>2026</ele>
        <time>2022-02-09T08:52:44Z</time>
      </trkpt>
      <trkpt lat="45.13489" lon="5.9124">
        <ele>2028</ele>
        <time>2022-02-09T08:53:01Z</time>
      </trkpt>
      <trkpt lat="45.13486" lon="5.91244">
        <ele>2031</ele>
        <time>2022-02-09T08:53:10Z</time>
      </trkpt>
      <trkpt lat="45.13484" lon="5.91249">
        <ele>2032</ele>
        <time>2022-02-09T08:53:19Z</time>
      </trkpt>
      <trkpt lat="45.13482" lon="5.91253">
        <ele>2032</ele>
        <time>2022-02-09T08:53:25Z</time>
      </trkpt>
      <trkpt lat="45.1348" lon="5.91257">
        <ele>2031</ele>
        <time>2022-02-09T08:53:49Z</time>
      </trkpt>
      <trkpt lat="45.13477" lon="5.91261">
        <ele>2031</ele>
        <time>2022-02-09T08:53:55Z</time>
      </trkpt>
      <trkpt lat="45.13459" lon="5.9129">
        <ele>2035</ele>
        <time>2022-02-09T08:54:30Z</time>
      </trkpt>
      <trkpt lat="45.13461" lon="5.91295">
        <ele>2036</ele>
        <time>2022-02-09T08:54:46Z</time>
      </trkpt>
      <trkpt lat="45.13459" lon="5.913">
        <ele>2035</ele>
        <time>2022-02-09T08:57:35Z</time>
      </trkpt>
      <trkpt lat="45.13458" lon="5.91327">
        <ele>2047</ele>
        <time>2022-02-09T08:58:11Z</time>
      </trkpt>
      <trkpt lat="45.13455" lon="5.91353">
        <ele>2054</ele>
        <time>2022-02-09T08:58:45Z</time>
      </trkpt>
      <trkpt lat="45.13454" lon="5.91364">
        <ele>2054</ele>
        <time>2022-02-09T08:59:00Z</time>
      </trkpt>
      <trkpt lat="45.13453" lon="5.91369">
        <ele>2057</ele>
        <time>2022-02-09T08:59:08Z</time>
      </trkpt>
      <trkpt lat="45.13452" lon="5.91374">
        <ele>2058</ele>
        <time>2022-02-09T08:59:16Z</time>
      </trkpt>
      <trkpt lat="45.1345" lon="5.91378">
        <ele>2060</ele>
        <time>2022-02-09T08:59:24Z</time>
      </trkpt>
      <trkpt lat="45.13449" lon="5.91384">
        <ele>2060</ele>
        <time>2022-02-09T08:59:31Z</time>
      </trkpt>
      <trkpt lat="45.13447" lon="5.91399">
        <ele>2062</ele>
        <time>2022-02-09T08:59:51Z</time>
      </trkpt>
      <trkpt lat="45.13444" lon="5.91408">
        <ele>2064</ele>
        <time>2022-02-09T09:00:02Z</time>
      </trkpt>
      <trkpt lat="45.13447" lon="5.91409">
        <ele>2066</ele>
        <time>2022-02-09T09:00:40Z</time>
      </trkpt>
      <trkpt lat="45.13451" lon="5.91408">
        <ele>2066</ele>
        <time>2022-02-09T09:00:47Z</time>
      </trkpt>
      <trkpt lat="45.13458" lon="5.91405">
        <ele>2070</ele>
        <time>2022-02-09T09:01:01Z</time>
      </trkpt>
      <trkpt lat="45.13461" lon="5.91408">
        <ele>2072</ele>
        <time>2022-02-09T09:01:07Z</time>
      </trkpt>
      <trkpt lat="45.13464" lon="5.91413">
        <ele>2073</ele>
        <time>2022-02-09T09:01:10Z</time>
      </trkpt>
      <trkpt lat="45.13467" lon="5.9141">
        <ele>2074</ele>
        <time>2022-02-09T09:01:14Z</time>
      </trkpt>
      <trkpt lat="45.13473" lon="5.91405">
        <ele>2074</ele>
        <time>2022-02-09T09:01:26Z</time>
      </trkpt>
      <trkpt lat="45.13475" lon="5.9141">
        <ele>2077</ele>
        <time>2022-02-09T09:01:50Z</time>
      </trkpt>
      <trkpt lat="45.13473" lon="5.91414">
        <ele>2077</ele>
        <time>2022-02-09T09:01:57Z</time>
      </trkpt>
      <trkpt lat="45.13474" lon="5.91419">
        <ele>2081</ele>
        <time>2022-02-09T09:02:30Z</time>
      </trkpt>
      <trkpt lat="45.13477" lon="5.91416">
        <ele>2082</ele>
        <time>2022-02-09T09:02:36Z</time>
      </trkpt>
      <trkpt lat="45.1348" lon="5.91414">
        <ele>2084</ele>
        <time>2022-02-09T09:02:42Z</time>
      </trkpt>
      <trkpt lat="45.13482" lon="5.91415">
        <ele>2084</ele>
        <time>2022-02-09T09:03:07Z</time>
      </trkpt>
      <trkpt lat="45.13489" lon="5.91412">
        <ele>2090</ele>
        <time>2022-02-09T09:03:42Z</time>
      </trkpt>
      <trkpt lat="45.13496" lon="5.91409">
        <ele>2093</ele>
        <time>2022-02-09T09:03:55Z</time>
      </trkpt>
      <trkpt lat="45.13499" lon="5.91412">
        <ele>2097</ele>
        <time>2022-02-09T09:04:28Z</time>
      </trkpt>
      <trkpt lat="45.13495" lon="5.91438">
        <ele>2099</ele>
        <time>2022-02-09T09:04:58Z</time>
      </trkpt>
      <trkpt lat="45.13491" lon="5.91448">
        <ele>2100</ele>
        <time>2022-02-09T09:05:14Z</time>
      </trkpt>
      <trkpt lat="45.1349" lon="5.91452">
        <ele>2101</ele>
        <time>2022-02-09T09:05:20Z</time>
      </trkpt>
      <trkpt lat="45.13489" lon="5.91457">
        <ele>2103</ele>
        <time>2022-02-09T09:05:54Z</time>
      </trkpt>
      <trkpt lat="45.13489" lon="5.91473">
        <ele>2106</ele>
        <time>2022-02-09T09:06:25Z</time>
      </trkpt>
      <trkpt lat="45.13489" lon="5.91484">
        <ele>2109</ele>
        <time>2022-02-09T09:06:38Z</time>
      </trkpt>
      <trkpt lat="45.13492" lon="5.91499">
        <ele>2114</ele>
        <time>2022-02-09T09:06:58Z</time>
      </trkpt>
      <trkpt lat="45.13495" lon="5.91509">
        <ele>2116</ele>
        <time>2022-02-09T09:07:13Z</time>
      </trkpt>
      <trkpt lat="45.13496" lon="5.91514">
        <ele>2117</ele>
        <time>2022-02-09T09:07:19Z</time>
      </trkpt>
      <trkpt lat="45.135" lon="5.91514">
        <ele>2118</ele>
        <time>2022-02-09T09:07:46Z</time>
      </trkpt>
      <trkpt lat="45.13511" lon="5.91508">
        <ele>2123</ele>
        <time>2022-02-09T09:08:05Z</time>
      </trkpt>
      <trkpt lat="45.13514" lon="5.91505">
        <ele>2124</ele>
        <time>2022-02-09T09:08:13Z</time>
      </trkpt>
      <trkpt lat="45.13517" lon="5.91502">
        <ele>2127</ele>
        <time>2022-02-09T09:08:22Z</time>
      </trkpt>
      <trkpt lat="45.13518" lon="5.91513">
        <ele>2127</ele>
        <time>2022-02-09T09:08:52Z</time>
      </trkpt>
      <trkpt lat="45.13518" lon="5.91518">
        <ele>2128</ele>
        <time>2022-02-09T09:08:58Z</time>
      </trkpt>
      <trkpt lat="45.13519" lon="5.91523">
        <ele>2130</ele>
        <time>2022-02-09T09:09:04Z</time>
      </trkpt>
      <trkpt lat="45.1352" lon="5.91528">
        <ele>2131</ele>
        <time>2022-02-09T09:09:11Z</time>
      </trkpt>
      <trkpt lat="45.13521" lon="5.91533">
        <ele>2135</ele>
        <time>2022-02-09T09:09:18Z</time>
      </trkpt>
      <trkpt lat="45.13526" lon="5.91532">
        <ele>2136</ele>
        <time>2022-02-09T09:09:45Z</time>
      </trkpt>
      <trkpt lat="45.1353" lon="5.9153">
        <ele>2135</ele>
        <time>2022-02-09T09:09:49Z</time>
      </trkpt>
      <trkpt lat="45.13534" lon="5.91528">
        <ele>2134</ele>
        <time>2022-02-09T09:09:53Z</time>
      </trkpt>
      <trkpt lat="45.1354" lon="5.91523">
        <ele>2132</ele>
        <time>2022-02-09T09:10:02Z</time>
      </trkpt>
      <trkpt lat="45.13545" lon="5.91514">
        <ele>2134</ele>
        <time>2022-02-09T09:10:14Z</time>
      </trkpt>
      <trkpt lat="45.13551" lon="5.9151">
        <ele>2133</ele>
        <time>2022-02-09T09:10:25Z</time>
      </trkpt>
      <trkpt lat="45.13549" lon="5.91514">
        <ele>2134</ele>
        <time>2022-02-09T09:10:40Z</time>
      </trkpt>
      <trkpt lat="45.13549" lon="5.91519">
        <ele>2135</ele>
        <time>2022-02-09T09:10:49Z</time>
      </trkpt>
      <trkpt lat="45.1355" lon="5.91532">
        <ele>2139</ele>
        <time>2022-02-09T09:11:08Z</time>
      </trkpt>
      <trkpt lat="45.13554" lon="5.91532">
        <ele>2138</ele>
        <time>2022-02-09T09:11:46Z</time>
      </trkpt>
      <trkpt lat="45.13557" lon="5.91529">
        <ele>2140</ele>
        <time>2022-02-09T09:11:50Z</time>
      </trkpt>
      <trkpt lat="45.13557" lon="5.91524">
        <ele>2141</ele>
        <time>2022-02-09T09:11:55Z</time>
      </trkpt>
      <trkpt lat="45.13559" lon="5.91519">
        <ele>2143</ele>
        <time>2022-02-09T09:12:03Z</time>
      </trkpt>
      <trkpt lat="45.13562" lon="5.91517">
        <ele>2144</ele>
        <time>2022-02-09T09:12:08Z</time>
      </trkpt>
      <trkpt lat="45.13563" lon="5.91512">
        <ele>2143</ele>
        <time>2022-02-09T09:12:17Z</time>
      </trkpt>
      <trkpt lat="45.13566" lon="5.91507">
        <ele>2144</ele>
        <time>2022-02-09T09:12:24Z</time>
      </trkpt>
      <trkpt lat="45.13569" lon="5.91524">
        <ele>2150</ele>
        <time>2022-02-09T09:12:58Z</time>
      </trkpt>
      <trkpt lat="45.13571" lon="5.9153">
        <ele>2150</ele>
        <time>2022-02-09T09:13:05Z</time>
      </trkpt>
      <trkpt lat="45.13572" lon="5.91536">
        <ele>2150</ele>
        <time>2022-02-09T09:13:10Z</time>
      </trkpt>
      <trkpt lat="45.13572" lon="5.91542">
        <ele>2155</ele>
        <time>2022-02-09T09:13:43Z</time>
      </trkpt>
      <trkpt lat="45.13571" lon="5.91546">
        <ele>2156</ele>
        <time>2022-02-09T09:14:00Z</time>
      </trkpt>
      <trkpt lat="45.13575" lon="5.91545">
        <ele>2156</ele>
        <time>2022-02-09T09:14:07Z</time>
      </trkpt>
      <trkpt lat="45.1358" lon="5.91534">
        <ele>2157</ele>
        <time>2022-02-09T09:14:30Z</time>
      </trkpt>
      <trkpt lat="45.13583" lon="5.9153">
        <ele>2155</ele>
        <time>2022-02-09T09:14:48Z</time>
      </trkpt>
      <trkpt lat="45.13587" lon="5.91528">
        <ele>2153</ele>
        <time>2022-02-09T09:15:21Z</time>
      </trkpt>
      <trkpt lat="45.13587" lon="5.91535">
        <ele>2154</ele>
        <time>2022-02-09T09:15:41Z</time>
      </trkpt>
      <trkpt lat="45.13586" lon="5.9154">
        <ele>2154</ele>
        <time>2022-02-09T09:15:44Z</time>
      </trkpt>
      <trkpt lat="45.1359" lon="5.91529">
        <ele>2165</ele>
        <time>2022-02-09T09:16:27Z</time>
      </trkpt>
      <trkpt lat="45.13593" lon="5.91526">
        <ele>2165</ele>
        <time>2022-02-09T09:16:32Z</time>
      </trkpt>
      <trkpt lat="45.13595" lon="5.91522">
        <ele>2167</ele>
        <time>2022-02-09T09:16:40Z</time>
      </trkpt>
      <trkpt lat="45.13596" lon="5.91517">
        <ele>2168</ele>
        <time>2022-02-09T09:16:50Z</time>
      </trkpt>
      <trkpt lat="45.13599" lon="5.91521">
        <ele>2170</ele>
        <time>2022-02-09T09:17:14Z</time>
      </trkpt>
      <trkpt lat="45.13599" lon="5.91532">
        <ele>2171</ele>
        <time>2022-02-09T09:17:21Z</time>
      </trkpt>
      <trkpt lat="45.13599" lon="5.91538">
        <ele>2170</ele>
        <time>2022-02-09T09:17:25Z</time>
      </trkpt>
      <trkpt lat="45.136" lon="5.91543">
        <ele>2170</ele>
        <time>2022-02-09T09:17:31Z</time>
      </trkpt>
      <trkpt lat="45.13601" lon="5.91548">
        <ele>2170</ele>
        <time>2022-02-09T09:17:39Z</time>
      </trkpt>
      <trkpt lat="45.13604" lon="5.91546">
        <ele>2170</ele>
        <time>2022-02-09T09:17:54Z</time>
      </trkpt>
      <trkpt lat="45.13608" lon="5.91544">
        <ele>2168</ele>
        <time>2022-02-09T09:18:11Z</time>
      </trkpt>
      <trkpt lat="45.1361" lon="5.91534">
        <ele>2171</ele>
        <time>2022-02-09T09:18:23Z</time>
      </trkpt>
      <trkpt lat="45.13609" lon="5.91529">
        <ele>2174</ele>
        <time>2022-02-09T09:18:29Z</time>
      </trkpt>
      <trkpt lat="45.1361" lon="5.91523">
        <ele>2177</ele>
        <time>2022-02-09T09:18:34Z</time>
      </trkpt>
      <trkpt lat="45.13611" lon="5.91518">
        <ele>2180</ele>
        <time>2022-02-09T09:18:40Z</time>
      </trkpt>
      <trkpt lat="45.13614" lon="5.91521">
        <ele>2183</ele>
        <time>2022-02-09T09:19:11Z</time>
      </trkpt>
      <trkpt lat="45.13614" lon="5.91527">
        <ele>2184</ele>
        <time>2022-02-09T09:19:16Z</time>
      </trkpt>
      <trkpt lat="45.13614" lon="5.91532">
        <ele>2188</ele>
        <time>2022-02-09T09:19:21Z</time>
      </trkpt>
      <trkpt lat="45.13614" lon="5.91537">
        <ele>2189</ele>
        <time>2022-02-09T09:19:25Z</time>
      </trkpt>
      <trkpt lat="45.13614" lon="5.91542">
        <ele>2191</ele>
        <time>2022-02-09T09:19:31Z</time>
      </trkpt>
      <trkpt lat="45.13616" lon="5.91546">
        <ele>2193</ele>
        <time>2022-02-09T09:20:07Z</time>
      </trkpt>
      <trkpt lat="45.13619" lon="5.91544">
        <ele>2193</ele>
        <time>2022-02-09T09:20:29Z</time>
      </trkpt>
      <trkpt lat="45.13622" lon="5.91541">
        <ele>2190</ele>
        <time>2022-02-09T09:20:33Z</time>
      </trkpt>
      <trkpt lat="45.13625" lon="5.91537">
        <ele>2190</ele>
        <time>2022-02-09T09:20:38Z</time>
      </trkpt>
      <trkpt lat="45.13628" lon="5.91528">
        <ele>2192</ele>
        <time>2022-02-09T09:20:51Z</time>
      </trkpt>
      <trkpt lat="45.13629" lon="5.91523">
        <ele>2195</ele>
        <time>2022-02-09T09:20:57Z</time>
      </trkpt>
      <trkpt lat="45.13629" lon="5.91518">
        <ele>2195</ele>
        <time>2022-02-09T09:21:03Z</time>
      </trkpt>
      <trkpt lat="45.1363" lon="5.91512">
        <ele>2195</ele>
        <time>2022-02-09T09:21:09Z</time>
      </trkpt>
      <trkpt lat="45.13628" lon="5.91497">
        <ele>2199</ele>
        <time>2022-02-09T09:21:25Z</time>
      </trkpt>
      <trkpt lat="45.1363" lon="5.91492">
        <ele>2200</ele>
        <time>2022-02-09T09:21:29Z</time>
      </trkpt>
      <trkpt lat="45.13634" lon="5.91493">
        <ele>2201</ele>
        <time>2022-02-09T09:22:17Z</time>
      </trkpt>
      <trkpt lat="45.13639" lon="5.91506">
        <ele>2207</ele>
        <time>2022-02-09T09:22:36Z</time>
      </trkpt>
      <trkpt lat="45.13646" lon="5.91524">
        <ele>2216</ele>
        <time>2022-02-09T09:23:06Z</time>
      </trkpt>
      <trkpt lat="45.13649" lon="5.91533">
        <ele>2217</ele>
        <time>2022-02-09T09:23:24Z</time>
      </trkpt>
      <trkpt lat="45.1365" lon="5.91539">
        <ele>2218</ele>
        <time>2022-02-09T09:23:33Z</time>
      </trkpt>
      <trkpt lat="45.1365" lon="5.91544">
        <ele>2220</ele>
        <time>2022-02-09T09:23:41Z</time>
      </trkpt>
      <trkpt lat="45.1365" lon="5.91549">
        <ele>2221</ele>
        <time>2022-02-09T09:23:50Z</time>
      </trkpt>
      <trkpt lat="45.13654" lon="5.91556">
        <ele>2224</ele>
        <time>2022-02-09T09:24:29Z</time>
      </trkpt>
      <trkpt lat="45.1366" lon="5.91563">
        <ele>2226</ele>
        <time>2022-02-09T09:24:42Z</time>
      </trkpt>
      <trkpt lat="45.13664" lon="5.91565">
        <ele>2228</ele>
        <time>2022-02-09T09:24:48Z</time>
      </trkpt>
      <trkpt lat="45.13668" lon="5.91564">
        <ele>2228</ele>
        <time>2022-02-09T09:24:53Z</time>
      </trkpt>
      <trkpt lat="45.13683" lon="5.91549">
        <ele>2228</ele>
        <time>2022-02-09T09:25:13Z</time>
      </trkpt>
      <trkpt lat="45.13687" lon="5.91549">
        <ele>2229</ele>
        <time>2022-02-09T09:25:20Z</time>
      </trkpt>
      <trkpt lat="45.13693" lon="5.91556">
        <ele>2232</ele>
        <time>2022-02-09T09:25:33Z</time>
      </trkpt>
      <trkpt lat="45.13695" lon="5.9156">
        <ele>2233</ele>
        <time>2022-02-09T09:25:39Z</time>
      </trkpt>
      <trkpt lat="45.13699" lon="5.91561">
        <ele>2233</ele>
        <time>2022-02-09T09:25:44Z</time>
      </trkpt>
      <trkpt lat="45.13705" lon="5.91556">
        <ele>2233</ele>
        <time>2022-02-09T09:25:54Z</time>
      </trkpt>
      <trkpt lat="45.13708" lon="5.91553">
        <ele>2233</ele>
        <time>2022-02-09T09:25:59Z</time>
      </trkpt>
      <trkpt lat="45.13711" lon="5.91549">
        <ele>2233</ele>
        <time>2022-02-09T09:26:04Z</time>
      </trkpt>
      <trkpt lat="45.13715" lon="5.91549">
        <ele>2234</ele>
        <time>2022-02-09T09:26:09Z</time>
      </trkpt>
      <trkpt lat="45.13718" lon="5.91553">
        <ele>2234</ele>
        <time>2022-02-09T09:27:36Z</time>
      </trkpt>
      <trkpt lat="45.13718" lon="5.91549">
        <ele>2235</ele>
        <time>2022-02-09T09:27:49Z</time>
      </trkpt>
      <trkpt lat="45.13717" lon="5.91544">
        <ele>2235</ele>
        <time>2022-02-09T09:27:58Z</time>
      </trkpt>
      <trkpt lat="45.13714" lon="5.91547">
        <ele>2234</ele>
        <time>2022-02-09T09:28:38Z</time>
      </trkpt>
      <trkpt lat="45.13712" lon="5.91552">
        <ele>2234</ele>
        <time>2022-02-09T09:28:44Z</time>
      </trkpt>
      <trkpt lat="45.1371" lon="5.91555">
        <ele>2235</ele>
        <time>2022-02-09T09:36:52Z</time>
      </trkpt>
      <trkpt lat="45.1371" lon="5.91561">
        <ele>2237</ele>
        <time>2022-02-09T09:37:02Z</time>
      </trkpt>
      <trkpt lat="45.13706" lon="5.91565">
        <ele>2238</ele>
        <time>2022-02-09T09:38:10Z</time>
      </trkpt>
      <trkpt lat="45.13708" lon="5.91572">
        <ele>2235</ele>
        <time>2022-02-09T09:38:13Z</time>
      </trkpt>
      <trkpt lat="45.13705" lon="5.91577">
        <ele>2233</ele>
        <time>2022-02-09T09:38:15Z</time>
      </trkpt>
      <trkpt lat="45.13707" lon="5.91582">
        <ele>2230</ele>
        <time>2022-02-09T09:38:16Z</time>
      </trkpt>
      <trkpt lat="45.13713" lon="5.91585">
        <ele>2228</ele>
        <time>2022-02-09T09:38:18Z</time>
      </trkpt>
      <trkpt lat="45.13719" lon="5.91584">
        <ele>2226</ele>
        <time>2022-02-09T09:38:20Z</time>
      </trkpt>
      <trkpt lat="45.13721" lon="5.91592">
        <ele>2223</ele>
        <time>2022-02-09T09:38:22Z</time>
      </trkpt>
      <trkpt lat="45.13717" lon="5.91598">
        <ele>2221</ele>
        <time>2022-02-09T09:38:24Z</time>
      </trkpt>
      <trkpt lat="45.13715" lon="5.91603">
        <ele>2219</ele>
        <time>2022-02-09T09:38:25Z</time>
      </trkpt>
      <trkpt lat="45.13717" lon="5.91608">
        <ele>2218</ele>
        <time>2022-02-09T09:38:26Z</time>
      </trkpt>
      <trkpt lat="45.13721" lon="5.91612">
        <ele>2216</ele>
        <time>2022-02-09T09:38:27Z</time>
      </trkpt>
      <trkpt lat="45.13721" lon="5.91619">
        <ele>2215</ele>
        <time>2022-02-09T09:38:28Z</time>
      </trkpt>
      <trkpt lat="45.13716" lon="5.91623">
        <ele>2212</ele>
        <time>2022-02-09T09:38:30Z</time>
      </trkpt>
      <trkpt lat="45.13712" lon="5.91625">
        <ele>2211</ele>
        <time>2022-02-09T09:38:31Z</time>
      </trkpt>
      <trkpt lat="45.1371" lon="5.9163">
        <ele>2208</ele>
        <time>2022-02-09T09:38:32Z</time>
      </trkpt>
      <trkpt lat="45.13712" lon="5.91637">
        <ele>2207</ele>
        <time>2022-02-09T09:38:33Z</time>
      </trkpt>
      <trkpt lat="45.13713" lon="5.91644">
        <ele>2204</ele>
        <time>2022-02-09T09:38:34Z</time>
      </trkpt>
      <trkpt lat="45.13707" lon="5.91644">
        <ele>2203</ele>
        <time>2022-02-09T09:38:35Z</time>
      </trkpt>
      <trkpt lat="45.13703" lon="5.91646">
        <ele>2200</ele>
        <time>2022-02-09T09:38:36Z</time>
      </trkpt>
      <trkpt lat="45.137" lon="5.91652">
        <ele>2198</ele>
        <time>2022-02-09T09:38:37Z</time>
      </trkpt>
      <trkpt lat="45.13701" lon="5.91657">
        <ele>2195</ele>
        <time>2022-02-09T09:38:38Z</time>
      </trkpt>
      <trkpt lat="45.13699" lon="5.91661">
        <ele>2194</ele>
        <time>2022-02-09T09:38:39Z</time>
      </trkpt>
      <trkpt lat="45.13695" lon="5.9166">
        <ele>2193</ele>
        <time>2022-02-09T09:38:40Z</time>
      </trkpt>
      <trkpt lat="45.13689" lon="5.91654">
        <ele>2189</ele>
        <time>2022-02-09T09:38:51Z</time>
      </trkpt>
      <trkpt lat="45.13685" lon="5.91652">
        <ele>2188</ele>
        <time>2022-02-09T09:38:53Z</time>
      </trkpt>
      <trkpt lat="45.13681" lon="5.91655">
        <ele>2187</ele>
        <time>2022-02-09T09:38:55Z</time>
      </trkpt>
      <trkpt lat="45.13675" lon="5.91657">
        <ele>2185</ele>
        <time>2022-02-09T09:38:57Z</time>
      </trkpt>
      <trkpt lat="45.13671" lon="5.91655">
        <ele>2182</ele>
        <time>2022-02-09T09:38:59Z</time>
      </trkpt>
      <trkpt lat="45.13671" lon="5.91662">
        <ele>2180</ele>
        <time>2022-02-09T09:39:01Z</time>
      </trkpt>
      <trkpt lat="45.13668" lon="5.91665">
        <ele>2178</ele>
        <time>2022-02-09T09:39:03Z</time>
      </trkpt>
      <trkpt lat="45.13665" lon="5.91668">
        <ele>2177</ele>
        <time>2022-02-09T09:39:05Z</time>
      </trkpt>
      <trkpt lat="45.13666" lon="5.91675">
        <ele>2174</ele>
        <time>2022-02-09T09:39:07Z</time>
      </trkpt>
      <trkpt lat="45.13663" lon="5.91678">
        <ele>2172</ele>
        <time>2022-02-09T09:39:09Z</time>
      </trkpt>
      <trkpt lat="45.13659" lon="5.91676">
        <ele>2170</ele>
        <time>2022-02-09T09:39:10Z</time>
      </trkpt>
      <trkpt lat="45.13655" lon="5.91679">
        <ele>2168</ele>
        <time>2022-02-09T09:39:12Z</time>
      </trkpt>
      <trkpt lat="45.13653" lon="5.91674">
        <ele>2160</ele>
        <time>2022-02-09T09:39:49Z</time>
      </trkpt>
      <trkpt lat="45.13649" lon="5.91672">
        <ele>2157</ele>
        <time>2022-02-09T09:39:52Z</time>
      </trkpt>
      <trkpt lat="45.13634" lon="5.91675">
        <ele>2154</ele>
        <time>2022-02-09T09:39:59Z</time>
      </trkpt>
      <trkpt lat="45.13637" lon="5.91681">
        <ele>2153</ele>
        <time>2022-02-09T09:40:00Z</time>
      </trkpt>
      <trkpt lat="45.13636" lon="5.91684">
        <ele>2150</ele>
        <time>2022-02-09T09:40:06Z</time>
      </trkpt>
      <trkpt lat="45.13633" lon="5.91682">
        <ele>2148</ele>
        <time>2022-02-09T09:40:11Z</time>
      </trkpt>
      <trkpt lat="45.13624" lon="5.91682">
        <ele>2144</ele>
        <time>2022-02-09T09:40:20Z</time>
      </trkpt>
      <trkpt lat="45.13624" lon="5.91688">
        <ele>2142</ele>
        <time>2022-02-09T09:40:22Z</time>
      </trkpt>
      <trkpt lat="45.13628" lon="5.91692">
        <ele>2139</ele>
        <time>2022-02-09T09:40:24Z</time>
      </trkpt>
      <trkpt lat="45.13626" lon="5.91694">
        <ele>2137</ele>
        <time>2022-02-09T09:40:27Z</time>
      </trkpt>
      <trkpt lat="45.1362" lon="5.91695">
        <ele>2135</ele>
        <time>2022-02-09T09:40:30Z</time>
      </trkpt>
      <trkpt lat="45.13621" lon="5.91701">
        <ele>2133</ele>
        <time>2022-02-09T09:40:31Z</time>
      </trkpt>
      <trkpt lat="45.13625" lon="5.91706">
        <ele>2130</ele>
        <time>2022-02-09T09:40:33Z</time>
      </trkpt>
      <trkpt lat="45.13621" lon="5.9171">
        <ele>2129</ele>
        <time>2022-02-09T09:40:35Z</time>
      </trkpt>
      <trkpt lat="45.13616" lon="5.9171">
        <ele>2123</ele>
        <time>2022-02-09T09:41:12Z</time>
      </trkpt>
      <trkpt lat="45.1362" lon="5.91717">
        <ele>2122</ele>
        <time>2022-02-09T09:41:13Z</time>
      </trkpt>
      <trkpt lat="45.13622" lon="5.91722">
        <ele>2120</ele>
        <time>2022-02-09T09:41:15Z</time>
      </trkpt>
      <trkpt lat="45.13617" lon="5.9172">
        <ele>2118</ele>
        <time>2022-02-09T09:41:18Z</time>
      </trkpt>
      <trkpt lat="45.13614" lon="5.91725">
        <ele>2115</ele>
        <time>2022-02-09T09:41:20Z</time>
      </trkpt>
      <trkpt lat="45.13617" lon="5.91732">
        <ele>2113</ele>
        <time>2022-02-09T09:41:22Z</time>
      </trkpt>
      <trkpt lat="45.13614" lon="5.91735">
        <ele>2111</ele>
        <time>2022-02-09T09:41:24Z</time>
      </trkpt>
      <trkpt lat="45.13607" lon="5.91733">
        <ele>2109</ele>
        <time>2022-02-09T09:41:26Z</time>
      </trkpt>
      <trkpt lat="45.13602" lon="5.91731">
        <ele>2107</ele>
        <time>2022-02-09T09:41:27Z</time>
      </trkpt>
      <trkpt lat="45.13598" lon="5.9173">
        <ele>2105</ele>
        <time>2022-02-09T09:41:28Z</time>
      </trkpt>
      <trkpt lat="45.13595" lon="5.91729">
        <ele>2102</ele>
        <time>2022-02-09T09:41:40Z</time>
      </trkpt>
      <trkpt lat="45.13601" lon="5.91743">
        <ele>2100</ele>
        <time>2022-02-09T09:41:45Z</time>
      </trkpt>
      <trkpt lat="45.13597" lon="5.91747">
        <ele>2099</ele>
        <time>2022-02-09T09:41:47Z</time>
      </trkpt>
      <trkpt lat="45.13593" lon="5.91746">
        <ele>2098</ele>
        <time>2022-02-09T09:41:48Z</time>
      </trkpt>
      <trkpt lat="45.13588" lon="5.91746">
        <ele>2098</ele>
        <time>2022-02-09T09:41:49Z</time>
      </trkpt>
      <trkpt lat="45.13587" lon="5.91751">
        <ele>2096</ele>
        <time>2022-02-09T09:41:51Z</time>
      </trkpt>
      <trkpt lat="45.1359" lon="5.91757">
        <ele>2095</ele>
        <time>2022-02-09T09:41:52Z</time>
      </trkpt>
      <trkpt lat="45.13586" lon="5.91765">
        <ele>2094</ele>
        <time>2022-02-09T09:41:53Z</time>
      </trkpt>
      <trkpt lat="45.13579" lon="5.91767">
        <ele>2093</ele>
        <time>2022-02-09T09:41:55Z</time>
      </trkpt>
      <trkpt lat="45.13582" lon="5.91775">
        <ele>2088</ele>
        <time>2022-02-09T09:41:56Z</time>
      </trkpt>
      <trkpt lat="45.13585" lon="5.91777">
        <ele>2087</ele>
        <time>2022-02-09T09:41:57Z</time>
      </trkpt>
      <trkpt lat="45.13586" lon="5.91786">
        <ele>2082</ele>
        <time>2022-02-09T09:41:59Z</time>
      </trkpt>
      <trkpt lat="45.1358" lon="5.9179">
        <ele>2079</ele>
        <time>2022-02-09T09:42:01Z</time>
      </trkpt>
      <trkpt lat="45.13577" lon="5.91786">
        <ele>2076</ele>
        <time>2022-02-09T09:42:04Z</time>
      </trkpt>
      <trkpt lat="45.13574" lon="5.91788">
        <ele>2074</ele>
        <time>2022-02-09T09:42:11Z</time>
      </trkpt>
      <trkpt lat="45.13568" lon="5.91788">
        <ele>2070</ele>
        <time>2022-02-09T09:42:28Z</time>
      </trkpt>
      <trkpt lat="45.13547" lon="5.91796">
        <ele>2065</ele>
        <time>2022-02-09T09:42:32Z</time>
      </trkpt>
      <trkpt lat="45.13524" lon="5.91793">
        <ele>2062</ele>
        <time>2022-02-09T09:42:37Z</time>
      </trkpt>
      <trkpt lat="45.13517" lon="5.91796">
        <ele>2061</ele>
        <time>2022-02-09T09:42:43Z</time>
      </trkpt>
      <trkpt lat="45.13513" lon="5.91795">
        <ele>2061</ele>
        <time>2022-02-09T09:42:48Z</time>
      </trkpt>
      <trkpt lat="45.1351" lon="5.91793">
        <ele>2060</ele>
        <time>2022-02-09T09:42:53Z</time>
      </trkpt>
      <trkpt lat="45.13505" lon="5.91779">
        <ele>2057</ele>
        <time>2022-02-09T09:43:10Z</time>
      </trkpt>
      <trkpt lat="45.13503" lon="5.91775">
        <ele>2056</ele>
        <time>2022-02-09T09:43:16Z</time>
      </trkpt>
      <trkpt lat="45.135" lon="5.9177">
        <ele>2056</ele>
        <time>2022-02-09T09:43:21Z</time>
      </trkpt>
      <trkpt lat="45.13488" lon="5.91763">
        <ele>2055</ele>
        <time>2022-02-09T09:43:30Z</time>
      </trkpt>
      <trkpt lat="45.13472" lon="5.91761">
        <ele>2059</ele>
        <time>2022-02-09T09:43:46Z</time>
      </trkpt>
      <trkpt lat="45.13452" lon="5.91746">
        <ele>2057</ele>
        <time>2022-02-09T09:44:06Z</time>
      </trkpt>
      <trkpt lat="45.13448" lon="5.91744">
        <ele>2057</ele>
        <time>2022-02-09T09:44:10Z</time>
      </trkpt>
      <trkpt lat="45.13444" lon="5.91742">
        <ele>2057</ele>
        <time>2022-02-09T09:44:13Z</time>
      </trkpt>
      <trkpt lat="45.13441" lon="5.91736">
        <ele>2055</ele>
        <time>2022-02-09T09:44:15Z</time>
      </trkpt>
      <trkpt lat="45.13436" lon="5.91723">
        <ele>2053</ele>
        <time>2022-02-09T09:44:17Z</time>
      </trkpt>
      <trkpt lat="45.13432" lon="5.91708">
        <ele>2051</ele>
        <time>2022-02-09T09:44:21Z</time>
      </trkpt>
      <trkpt lat="45.13429" lon="5.91704">
        <ele>2050</ele>
        <time>2022-02-09T09:44:22Z</time>
      </trkpt>
      <trkpt lat="45.13425" lon="5.91706">
        <ele>2050</ele>
        <time>2022-02-09T09:44:23Z</time>
      </trkpt>
      <trkpt lat="45.13424" lon="5.91714">
        <ele>2048</ele>
        <time>2022-02-09T09:44:24Z</time>
      </trkpt>
      <trkpt lat="45.13421" lon="5.91718">
        <ele>2047</ele>
        <time>2022-02-09T09:44:25Z</time>
      </trkpt>
      <trkpt lat="45.13413" lon="5.91718">
        <ele>2045</ele>
        <time>2022-02-09T09:44:26Z</time>
      </trkpt>
      <trkpt lat="45.13406" lon="5.91714">
        <ele>2044</ele>
        <time>2022-02-09T09:44:27Z</time>
      </trkpt>
      <trkpt lat="45.13401" lon="5.917">
        <ele>2042</ele>
        <time>2022-02-09T09:44:28Z</time>
      </trkpt>
      <trkpt lat="45.13397" lon="5.91692">
        <ele>2041</ele>
        <time>2022-02-09T09:44:29Z</time>
      </trkpt>
      <trkpt lat="45.13391" lon="5.91689">
        <ele>2039</ele>
        <time>2022-02-09T09:44:30Z</time>
      </trkpt>
      <trkpt lat="45.13385" lon="5.91688">
        <ele>2039</ele>
        <time>2022-02-09T09:44:31Z</time>
      </trkpt>
      <trkpt lat="45.13367" lon="5.91674">
        <ele>2032</ele>
        <time>2022-02-09T09:44:34Z</time>
      </trkpt>
      <trkpt lat="45.13355" lon="5.91676">
        <ele>2028</ele>
        <time>2022-02-09T09:44:35Z</time>
      </trkpt>
      <trkpt lat="45.13336" lon="5.9168">
        <ele>2025</ele>
        <time>2022-02-09T09:44:37Z</time>
      </trkpt>
      <trkpt lat="45.13304" lon="5.91695">
        <ele>2019</ele>
        <time>2022-02-09T09:44:42Z</time>
      </trkpt>
      <trkpt lat="45.13289" lon="5.91697">
        <ele>2018</ele>
        <time>2022-02-09T09:44:45Z</time>
      </trkpt>
      <trkpt lat="45.13285" lon="5.91699">
        <ele>2017</ele>
        <time>2022-02-09T09:44:47Z</time>
      </trkpt>
      <trkpt lat="45.13281" lon="5.91699">
        <ele>2016</ele>
        <time>2022-02-09T09:44:49Z</time>
      </trkpt>
      <trkpt lat="45.13269" lon="5.91693">
        <ele>2013</ele>
        <time>2022-02-09T09:44:51Z</time>
      </trkpt>
      <trkpt lat="45.13263" lon="5.91692">
        <ele>2012</ele>
        <time>2022-02-09T09:44:52Z</time>
      </trkpt>
      <trkpt lat="45.13255" lon="5.91689">
        <ele>2012</ele>
        <time>2022-02-09T09:44:54Z</time>
      </trkpt>
      <trkpt lat="45.1325" lon="5.91689">
        <ele>2011</ele>
        <time>2022-02-09T09:45:04Z</time>
      </trkpt>
      <trkpt lat="45.13168" lon="5.91732">
        <ele>1997</ele>
        <time>2022-02-09T09:45:17Z</time>
      </trkpt>
      <trkpt lat="45.13155" lon="5.91736">
        <ele>1997</ele>
        <time>2022-02-09T09:45:23Z</time>
      </trkpt>
      <trkpt lat="45.13139" lon="5.91743">
        <ele>1995</ele>
        <time>2022-02-09T09:45:29Z</time>
      </trkpt>
      <trkpt lat="45.13125" lon="5.91734">
        <ele>1996</ele>
        <time>2022-02-09T09:45:47Z</time>
      </trkpt>
      <trkpt lat="45.13121" lon="5.91735">
        <ele>1996</ele>
        <time>2022-02-09T09:45:51Z</time>
      </trkpt>
      <trkpt lat="45.13116" lon="5.91737">
        <ele>1995</ele>
        <time>2022-02-09T09:45:53Z</time>
      </trkpt>
      <trkpt lat="45.13094" lon="5.91741">
        <ele>1994</ele>
        <time>2022-02-09T09:46:07Z</time>
      </trkpt>
      <trkpt lat="45.13087" lon="5.91745">
        <ele>1993</ele>
        <time>2022-02-09T09:46:12Z</time>
      </trkpt>
      <trkpt lat="45.13087" lon="5.91749">
        <ele>1999</ele>
        <time>2022-02-09T09:58:16Z</time>
      </trkpt>
      <trkpt lat="45.13078" lon="5.91752">
        <ele>1999</ele>
        <time>2022-02-09T09:58:28Z</time>
      </trkpt>
      <trkpt lat="45.13069" lon="5.91754">
        <ele>1997</ele>
        <time>2022-02-09T09:58:38Z</time>
      </trkpt>
      <trkpt lat="45.1305" lon="5.91757">
        <ele>1998</ele>
        <time>2022-02-09T09:59:03Z</time>
      </trkpt>
      <trkpt lat="45.13041" lon="5.91758">
        <ele>2000</ele>
        <time>2022-02-09T09:59:17Z</time>
      </trkpt>
      <trkpt lat="45.13024" lon="5.91768">
        <ele>2005</ele>
        <time>2022-02-09T09:59:48Z</time>
      </trkpt>
      <trkpt lat="45.13017" lon="5.91775">
        <ele>2005</ele>
        <time>2022-02-09T10:00:03Z</time>
      </trkpt>
      <trkpt lat="45.13005" lon="5.91795">
        <ele>2005</ele>
        <time>2022-02-09T10:00:35Z</time>
      </trkpt>
      <trkpt lat="45.12996" lon="5.91798">
        <ele>2006</ele>
        <time>2022-02-09T10:00:52Z</time>
      </trkpt>
      <trkpt lat="45.12987" lon="5.91797">
        <ele>2009</ele>
        <time>2022-02-09T10:01:05Z</time>
      </trkpt>
      <trkpt lat="45.1298" lon="5.91806">
        <ele>2010</ele>
        <time>2022-02-09T10:01:19Z</time>
      </trkpt>
      <trkpt lat="45.12975" lon="5.91816">
        <ele>2012</ele>
        <time>2022-02-09T10:01:41Z</time>
      </trkpt>
      <trkpt lat="45.12969" lon="5.91806">
        <ele>2015</ele>
        <time>2022-02-09T10:02:00Z</time>
      </trkpt>
      <trkpt lat="45.12961" lon="5.91814">
        <ele>2017</ele>
        <time>2022-02-09T10:02:27Z</time>
      </trkpt>
      <trkpt lat="45.12959" lon="5.91826">
        <ele>2025</ele>
        <time>2022-02-09T10:02:44Z</time>
      </trkpt>
      <trkpt lat="45.12954" lon="5.91838">
        <ele>2026</ele>
        <time>2022-02-09T10:03:01Z</time>
      </trkpt>
      <trkpt lat="45.1295" lon="5.91826">
        <ele>2027</ele>
        <time>2022-02-09T10:03:44Z</time>
      </trkpt>
      <trkpt lat="45.12948" lon="5.91817">
        <ele>2032</ele>
        <time>2022-02-09T10:03:56Z</time>
      </trkpt>
      <trkpt lat="45.12946" lon="5.91813">
        <ele>2035</ele>
        <time>2022-02-09T10:04:03Z</time>
      </trkpt>
      <trkpt lat="45.12941" lon="5.91799">
        <ele>2039</ele>
        <time>2022-02-09T10:04:22Z</time>
      </trkpt>
      <trkpt lat="45.12939" lon="5.91795">
        <ele>2040</ele>
        <time>2022-02-09T10:04:29Z</time>
      </trkpt>
      <trkpt lat="45.12937" lon="5.91799">
        <ele>2040</ele>
        <time>2022-02-09T10:04:41Z</time>
      </trkpt>
      <trkpt lat="45.12934" lon="5.91804">
        <ele>2040</ele>
        <time>2022-02-09T10:04:46Z</time>
      </trkpt>
      <trkpt lat="45.12927" lon="5.91828">
        <ele>2043</ele>
        <time>2022-02-09T10:05:17Z</time>
      </trkpt>
      <trkpt lat="45.12926" lon="5.91844">
        <ele>2047</ele>
        <time>2022-02-09T10:05:37Z</time>
      </trkpt>
      <trkpt lat="45.12926" lon="5.91849">
        <ele>2048</ele>
        <time>2022-02-09T10:05:42Z</time>
      </trkpt>
      <trkpt lat="45.12924" lon="5.91855">
        <ele>2048</ele>
        <time>2022-02-09T10:05:47Z</time>
      </trkpt>
      <trkpt lat="45.12923" lon="5.9186">
        <ele>2048</ele>
        <time>2022-02-09T10:05:50Z</time>
      </trkpt>
      <trkpt lat="45.12924" lon="5.9187">
        <ele>2048</ele>
        <time>2022-02-09T10:06:26Z</time>
      </trkpt>
      <trkpt lat="45.12923" lon="5.91881">
        <ele>2051</ele>
        <time>2022-02-09T10:06:40Z</time>
      </trkpt>
      <trkpt lat="45.12923" lon="5.91886">
        <ele>2051</ele>
        <time>2022-02-09T10:06:46Z</time>
      </trkpt>
      <trkpt lat="45.12919" lon="5.91898">
        <ele>2053</ele>
        <time>2022-02-09T10:06:54Z</time>
      </trkpt>
      <trkpt lat="45.12918" lon="5.91903">
        <ele>2051</ele>
        <time>2022-02-09T10:06:57Z</time>
      </trkpt>
      <trkpt lat="45.12915" lon="5.91912">
        <ele>2049</ele>
        <time>2022-02-09T10:07:09Z</time>
      </trkpt>
      <trkpt lat="45.12916" lon="5.91917">
        <ele>2051</ele>
        <time>2022-02-09T10:07:17Z</time>
      </trkpt>
      <trkpt lat="45.12917" lon="5.91922">
        <ele>2056</ele>
        <time>2022-02-09T10:07:26Z</time>
      </trkpt>
      <trkpt lat="45.12916" lon="5.91924">
        <ele>2060</ele>
        <time>2022-02-09T10:07:55Z</time>
      </trkpt>
      <trkpt lat="45.12913" lon="5.91919">
        <ele>2060</ele>
        <time>2022-02-09T10:08:00Z</time>
      </trkpt>
      <trkpt lat="45.12914" lon="5.91912">
        <ele>2060</ele>
        <time>2022-02-09T10:08:04Z</time>
      </trkpt>
      <trkpt lat="45.12907" lon="5.91902">
        <ele>2069</ele>
        <time>2022-02-09T10:08:19Z</time>
      </trkpt>
      <trkpt lat="45.12906" lon="5.91912">
        <ele>2071</ele>
        <time>2022-02-09T10:08:51Z</time>
      </trkpt>
      <trkpt lat="45.12907" lon="5.91933">
        <ele>2073</ele>
        <time>2022-02-09T10:09:13Z</time>
      </trkpt>
      <trkpt lat="45.12905" lon="5.91935">
        <ele>2075</ele>
        <time>2022-02-09T10:09:35Z</time>
      </trkpt>
      <trkpt lat="45.12902" lon="5.91931">
        <ele>2076</ele>
        <time>2022-02-09T10:09:43Z</time>
      </trkpt>
      <trkpt lat="45.12901" lon="5.91936">
        <ele>2078</ele>
        <time>2022-02-09T10:10:26Z</time>
      </trkpt>
      <trkpt lat="45.12901" lon="5.91941">
        <ele>2081</ele>
        <time>2022-02-09T10:10:44Z</time>
      </trkpt>
      <trkpt lat="45.12902" lon="5.91946">
        <ele>2082</ele>
        <time>2022-02-09T10:10:59Z</time>
      </trkpt>
      <trkpt lat="45.12902" lon="5.91952">
        <ele>2084</ele>
        <time>2022-02-09T10:11:08Z</time>
      </trkpt>
      <trkpt lat="45.12905" lon="5.91955">
        <ele>2085</ele>
        <time>2022-02-09T10:11:18Z</time>
      </trkpt>
      <trkpt lat="45.12906" lon="5.91961">
        <ele>2085</ele>
        <time>2022-02-09T10:11:26Z</time>
      </trkpt>
      <trkpt lat="45.12906" lon="5.91966">
        <ele>2085</ele>
        <time>2022-02-09T10:11:32Z</time>
      </trkpt>
      <trkpt lat="45.12903" lon="5.91969">
        <ele>2087</ele>
        <time>2022-02-09T10:11:49Z</time>
      </trkpt>
      <trkpt lat="45.12899" lon="5.91969">
        <ele>2088</ele>
        <time>2022-02-09T10:12:02Z</time>
      </trkpt>
      <trkpt lat="45.12892" lon="5.9197">
        <ele>2090</ele>
        <time>2022-02-09T10:12:16Z</time>
      </trkpt>
      <trkpt lat="45.12885" lon="5.91969">
        <ele>2093</ele>
        <time>2022-02-09T10:12:33Z</time>
      </trkpt>
      <trkpt lat="45.12882" lon="5.91971">
        <ele>2095</ele>
        <time>2022-02-09T10:12:48Z</time>
      </trkpt>
      <trkpt lat="45.12878" lon="5.91971">
        <ele>2095</ele>
        <time>2022-02-09T10:12:55Z</time>
      </trkpt>
      <trkpt lat="45.12874" lon="5.91972">
        <ele>2098</ele>
        <time>2022-02-09T10:13:01Z</time>
      </trkpt>
      <trkpt lat="45.12867" lon="5.91975">
        <ele>2099</ele>
        <time>2022-02-09T10:13:13Z</time>
      </trkpt>
      <trkpt lat="45.12864" lon="5.91976">
        <ele>2100</ele>
        <time>2022-02-09T10:13:19Z</time>
      </trkpt>
      <trkpt lat="45.12861" lon="5.9198">
        <ele>2101</ele>
        <time>2022-02-09T10:13:26Z</time>
      </trkpt>
      <trkpt lat="45.12856" lon="5.91989">
        <ele>2104</ele>
        <time>2022-02-09T10:13:36Z</time>
      </trkpt>
      <trkpt lat="45.12854" lon="5.91999">
        <ele>2107</ele>
        <time>2022-02-09T10:13:48Z</time>
      </trkpt>
      <trkpt lat="45.12852" lon="5.92003">
        <ele>2108</ele>
        <time>2022-02-09T10:13:59Z</time>
      </trkpt>
      <trkpt lat="45.12848" lon="5.92006">
        <ele>2108</ele>
        <time>2022-02-09T10:14:07Z</time>
      </trkpt>
      <trkpt lat="45.12842" lon="5.92012">
        <ele>2110</ele>
        <time>2022-02-09T10:14:20Z</time>
      </trkpt>
      <trkpt lat="45.12835" lon="5.92017">
        <ele>2112</ele>
        <time>2022-02-09T10:14:34Z</time>
      </trkpt>
      <trkpt lat="45.12824" lon="5.92038">
        <ele>2114</ele>
        <time>2022-02-09T10:15:05Z</time>
      </trkpt>
      <trkpt lat="45.12821" lon="5.92042">
        <ele>2115</ele>
        <time>2022-02-09T10:15:11Z</time>
      </trkpt>
      <trkpt lat="45.12819" lon="5.92046">
        <ele>2116</ele>
        <time>2022-02-09T10:15:28Z</time>
      </trkpt>
      <trkpt lat="45.12817" lon="5.92051">
        <ele>2116</ele>
        <time>2022-02-09T10:15:33Z</time>
      </trkpt>
      <trkpt lat="45.12815" lon="5.92055">
        <ele>2117</ele>
        <time>2022-02-09T10:15:40Z</time>
      </trkpt>
      <trkpt lat="45.12813" lon="5.92059">
        <ele>2118</ele>
        <time>2022-02-09T10:15:46Z</time>
      </trkpt>
      <trkpt lat="45.12807" lon="5.92066">
        <ele>2120</ele>
        <time>2022-02-09T10:15:59Z</time>
      </trkpt>
      <trkpt lat="45.12805" lon="5.9207">
        <ele>2121</ele>
        <time>2022-02-09T10:16:05Z</time>
      </trkpt>
      <trkpt lat="45.12804" lon="5.92075">
        <ele>2122</ele>
        <time>2022-02-09T10:16:11Z</time>
      </trkpt>
      <trkpt lat="45.12796" lon="5.92085">
        <ele>2127</ele>
        <time>2022-02-09T10:16:38Z</time>
      </trkpt>
      <trkpt lat="45.12793" lon="5.92088">
        <ele>2129</ele>
        <time>2022-02-09T10:16:49Z</time>
      </trkpt>
      <trkpt lat="45.128" lon="5.92092">
        <ele>2129</ele>
        <time>2022-02-09T10:17:15Z</time>
      </trkpt>
      <trkpt lat="45.12803" lon="5.92091">
        <ele>2128</ele>
        <time>2022-02-09T10:17:21Z</time>
      </trkpt>
      <trkpt lat="45.12817" lon="5.92085">
        <ele>2132</ele>
        <time>2022-02-09T10:17:46Z</time>
      </trkpt>
      <trkpt lat="45.12819" lon="5.92088">
        <ele>2135</ele>
        <time>2022-02-09T10:18:34Z</time>
      </trkpt>
      <trkpt lat="45.12815" lon="5.92096">
        <ele>2135</ele>
        <time>2022-02-09T10:18:46Z</time>
      </trkpt>
      <trkpt lat="45.12819" lon="5.92097">
        <ele>2136</ele>
        <time>2022-02-09T10:19:08Z</time>
      </trkpt>
      <trkpt lat="45.12822" lon="5.92097">
        <ele>2136</ele>
        <time>2022-02-09T10:19:15Z</time>
      </trkpt>
      <trkpt lat="45.12826" lon="5.92095">
        <ele>2139</ele>
        <time>2022-02-09T10:19:24Z</time>
      </trkpt>
      <trkpt lat="45.12828" lon="5.92099">
        <ele>2140</ele>
        <time>2022-02-09T10:20:12Z</time>
      </trkpt>
      <trkpt lat="45.12823" lon="5.92108">
        <ele>2142</ele>
        <time>2022-02-09T10:20:23Z</time>
      </trkpt>
      <trkpt lat="45.1282" lon="5.92112">
        <ele>2143</ele>
        <time>2022-02-09T10:20:29Z</time>
      </trkpt>
      <trkpt lat="45.12808" lon="5.92124">
        <ele>2150</ele>
        <time>2022-02-09T10:21:00Z</time>
      </trkpt>
      <trkpt lat="45.12816" lon="5.92122">
        <ele>2150</ele>
        <time>2022-02-09T10:21:10Z</time>
      </trkpt>
      <trkpt lat="45.1282" lon="5.92124">
        <ele>2151</ele>
        <time>2022-02-09T10:21:21Z</time>
      </trkpt>
      <trkpt lat="45.12824" lon="5.92123">
        <ele>2152</ele>
        <time>2022-02-09T10:21:26Z</time>
      </trkpt>
      <trkpt lat="45.12828" lon="5.92121">
        <ele>2154</ele>
        <time>2022-02-09T10:21:32Z</time>
      </trkpt>
      <trkpt lat="45.12835" lon="5.92118">
        <ele>2155</ele>
        <time>2022-02-09T10:21:47Z</time>
      </trkpt>
      <trkpt lat="45.12842" lon="5.92116">
        <ele>2156</ele>
        <time>2022-02-09T10:21:59Z</time>
      </trkpt>
      <trkpt lat="45.12841" lon="5.9212">
        <ele>2157</ele>
        <time>2022-02-09T10:22:41Z</time>
      </trkpt>
      <trkpt lat="45.1284" lon="5.92125">
        <ele>2157</ele>
        <time>2022-02-09T10:22:47Z</time>
      </trkpt>
      <trkpt lat="45.12831" lon="5.92141">
        <ele>2161</ele>
        <time>2022-02-09T10:23:09Z</time>
      </trkpt>
      <trkpt lat="45.12829" lon="5.92145">
        <ele>2163</ele>
        <time>2022-02-09T10:23:14Z</time>
      </trkpt>
      <trkpt lat="45.12825" lon="5.92146">
        <ele>2164</ele>
        <time>2022-02-09T10:23:19Z</time>
      </trkpt>
      <trkpt lat="45.12827" lon="5.92151">
        <ele>2167</ele>
        <time>2022-02-09T10:23:38Z</time>
      </trkpt>
      <trkpt lat="45.12842" lon="5.9215">
        <ele>2170</ele>
        <time>2022-02-09T10:24:02Z</time>
      </trkpt>
      <trkpt lat="45.12845" lon="5.92147">
        <ele>2171</ele>
        <time>2022-02-09T10:24:09Z</time>
      </trkpt>
      <trkpt lat="45.12846" lon="5.92148">
        <ele>2173</ele>
        <time>2022-02-09T10:24:47Z</time>
      </trkpt>
      <trkpt lat="45.12844" lon="5.92152">
        <ele>2173</ele>
        <time>2022-02-09T10:24:52Z</time>
      </trkpt>
      <trkpt lat="45.12834" lon="5.92168">
        <ele>2171</ele>
        <time>2022-02-09T10:25:09Z</time>
      </trkpt>
      <trkpt lat="45.1283" lon="5.92183">
        <ele>2169</ele>
        <time>2022-02-09T10:25:21Z</time>
      </trkpt>
      <trkpt lat="45.1283" lon="5.92196">
        <ele>2169</ele>
        <time>2022-02-09T10:25:28Z</time>
      </trkpt>
      <trkpt lat="45.12829" lon="5.92201">
        <ele>2170</ele>
        <time>2022-02-09T10:25:32Z</time>
      </trkpt>
      <trkpt lat="45.12828" lon="5.92206">
        <ele>2169</ele>
        <time>2022-02-09T10:25:39Z</time>
      </trkpt>
      <trkpt lat="45.12828" lon="5.92212">
        <ele>2168</ele>
        <time>2022-02-09T10:25:46Z</time>
      </trkpt>
      <trkpt lat="45.12828" lon="5.92223">
        <ele>2164</ele>
        <time>2022-02-09T10:25:56Z</time>
      </trkpt>
      <trkpt lat="45.12827" lon="5.92229">
        <ele>2163</ele>
        <time>2022-02-09T10:26:01Z</time>
      </trkpt>
      <trkpt lat="45.12826" lon="5.9224">
        <ele>2162</ele>
        <time>2022-02-09T10:26:11Z</time>
      </trkpt>
      <trkpt lat="45.12825" lon="5.92245">
        <ele>2162</ele>
        <time>2022-02-09T10:26:16Z</time>
      </trkpt>
      <trkpt lat="45.12823" lon="5.92255">
        <ele>2162</ele>
        <time>2022-02-09T10:26:27Z</time>
      </trkpt>
      <trkpt lat="45.12821" lon="5.9226">
        <ele>2162</ele>
        <time>2022-02-09T10:26:33Z</time>
      </trkpt>
      <trkpt lat="45.1282" lon="5.92265">
        <ele>2163</ele>
        <time>2022-02-09T10:26:39Z</time>
      </trkpt>
      <trkpt lat="45.12811" lon="5.92284">
        <ele>2166</ele>
        <time>2022-02-09T10:27:00Z</time>
      </trkpt>
      <trkpt lat="45.12809" lon="5.92294">
        <ele>2169</ele>
        <time>2022-02-09T10:27:11Z</time>
      </trkpt>
      <trkpt lat="45.12807" lon="5.92299">
        <ele>2171</ele>
        <time>2022-02-09T10:27:17Z</time>
      </trkpt>
      <trkpt lat="45.12806" lon="5.92303">
        <ele>2171</ele>
        <time>2022-02-09T10:27:22Z</time>
      </trkpt>
      <trkpt lat="45.12804" lon="5.92309">
        <ele>2172</ele>
        <time>2022-02-09T10:27:27Z</time>
      </trkpt>
      <trkpt lat="45.12804" lon="5.92314">
        <ele>2172</ele>
        <time>2022-02-09T10:27:35Z</time>
      </trkpt>
      <trkpt lat="45.12801" lon="5.9233">
        <ele>2173</ele>
        <time>2022-02-09T10:27:57Z</time>
      </trkpt>
      <trkpt lat="45.12801" lon="5.92335">
        <ele>2174</ele>
        <time>2022-02-09T10:28:05Z</time>
      </trkpt>
      <trkpt lat="45.12801" lon="5.9234">
        <ele>2176</ele>
        <time>2022-02-09T10:28:13Z</time>
      </trkpt>
      <trkpt lat="45.12801" lon="5.92346">
        <ele>2177</ele>
        <time>2022-02-09T10:28:21Z</time>
      </trkpt>
      <trkpt lat="45.12802" lon="5.92355">
        <ele>2179</ele>
        <time>2022-02-09T10:28:35Z</time>
      </trkpt>
      <trkpt lat="45.12804" lon="5.9236">
        <ele>2180</ele>
        <time>2022-02-09T10:28:43Z</time>
      </trkpt>
      <trkpt lat="45.12802" lon="5.92365">
        <ele>2180</ele>
        <time>2022-02-09T10:28:51Z</time>
      </trkpt>
      <trkpt lat="45.12803" lon="5.9237">
        <ele>2183</ele>
        <time>2022-02-09T10:28:59Z</time>
      </trkpt>
      <trkpt lat="45.12801" lon="5.92375">
        <ele>2185</ele>
        <time>2022-02-09T10:29:07Z</time>
      </trkpt>
      <trkpt lat="45.128" lon="5.9238">
        <ele>2188</ele>
        <time>2022-02-09T10:29:16Z</time>
      </trkpt>
      <trkpt lat="45.12796" lon="5.92383">
        <ele>2189</ele>
        <time>2022-02-09T10:29:34Z</time>
      </trkpt>
      <trkpt lat="45.1279" lon="5.9238">
        <ele>2194</ele>
        <time>2022-02-09T10:29:54Z</time>
      </trkpt>
      <trkpt lat="45.12786" lon="5.92379">
        <ele>2196</ele>
        <time>2022-02-09T10:30:01Z</time>
      </trkpt>
      <trkpt lat="45.12783" lon="5.92379">
        <ele>2197</ele>
        <time>2022-02-09T10:30:08Z</time>
      </trkpt>
      <trkpt lat="45.12779" lon="5.92377">
        <ele>2199</ele>
        <time>2022-02-09T10:30:15Z</time>
      </trkpt>
      <trkpt lat="45.12778" lon="5.92382">
        <ele>2199</ele>
        <time>2022-02-09T10:30:37Z</time>
      </trkpt>
      <trkpt lat="45.12778" lon="5.92387">
        <ele>2199</ele>
        <time>2022-02-09T10:30:44Z</time>
      </trkpt>
      <trkpt lat="45.12783" lon="5.92401">
        <ele>2199</ele>
        <time>2022-02-09T10:31:06Z</time>
      </trkpt>
      <trkpt lat="45.12784" lon="5.92406">
        <ele>2200</ele>
        <time>2022-02-09T10:31:14Z</time>
      </trkpt>
      <trkpt lat="45.12786" lon="5.92411">
        <ele>2201</ele>
        <time>2022-02-09T10:31:21Z</time>
      </trkpt>
      <trkpt lat="45.12788" lon="5.92414">
        <ele>2202</ele>
        <time>2022-02-09T10:31:27Z</time>
      </trkpt>
      <trkpt lat="45.12791" lon="5.92419">
        <ele>2201</ele>
        <time>2022-02-09T10:31:35Z</time>
      </trkpt>
      <trkpt lat="45.12788" lon="5.92429">
        <ele>2205</ele>
        <time>2022-02-09T10:32:07Z</time>
      </trkpt>
      <trkpt lat="45.12787" lon="5.92433">
        <ele>2208</ele>
        <time>2022-02-09T10:32:20Z</time>
      </trkpt>
      <trkpt lat="45.12788" lon="5.92438">
        <ele>2209</ele>
        <time>2022-02-09T10:32:29Z</time>
      </trkpt>
      <trkpt lat="45.12788" lon="5.92444">
        <ele>2211</ele>
        <time>2022-02-09T10:32:35Z</time>
      </trkpt>
      <trkpt lat="45.12788" lon="5.92449">
        <ele>2212</ele>
        <time>2022-02-09T10:32:41Z</time>
      </trkpt>
      <trkpt lat="45.12785" lon="5.92453">
        <ele>2215</ele>
        <time>2022-02-09T10:33:17Z</time>
      </trkpt>
      <trkpt lat="45.12779" lon="5.92472">
        <ele>2223</ele>
        <time>2022-02-09T10:33:48Z</time>
      </trkpt>
      <trkpt lat="45.12779" lon="5.92476">
        <ele>2223</ele>
        <time>2022-02-09T10:33:55Z</time>
      </trkpt>
      <trkpt lat="45.12779" lon="5.92486">
        <ele>2225</ele>
        <time>2022-02-09T10:34:07Z</time>
      </trkpt>
      <trkpt lat="45.12779" lon="5.92491">
        <ele>2227</ele>
        <time>2022-02-09T10:34:14Z</time>
      </trkpt>
      <trkpt lat="45.12782" lon="5.92507">
        <ele>2228</ele>
        <time>2022-02-09T10:34:47Z</time>
      </trkpt>
      <trkpt lat="45.12782" lon="5.92513">
        <ele>2227</ele>
        <time>2022-02-09T10:34:54Z</time>
      </trkpt>
      <trkpt lat="45.12783" lon="5.92518">
        <ele>2226</ele>
        <time>2022-02-09T10:35:01Z</time>
      </trkpt>
      <trkpt lat="45.12784" lon="5.92523">
        <ele>2226</ele>
        <time>2022-02-09T10:35:07Z</time>
      </trkpt>
      <trkpt lat="45.12786" lon="5.92528">
        <ele>2226</ele>
        <time>2022-02-09T10:35:12Z</time>
      </trkpt>
      <trkpt lat="45.12787" lon="5.92532">
        <ele>2227</ele>
        <time>2022-02-09T10:35:17Z</time>
      </trkpt>
      <trkpt lat="45.12789" lon="5.92538">
        <ele>2228</ele>
        <time>2022-02-09T10:35:24Z</time>
      </trkpt>
      <trkpt lat="45.12797" lon="5.92556">
        <ele>2226</ele>
        <time>2022-02-09T10:35:48Z</time>
      </trkpt>
      <trkpt lat="45.12799" lon="5.9256">
        <ele>2226</ele>
        <time>2022-02-09T10:35:53Z</time>
      </trkpt>
      <trkpt lat="45.12801" lon="5.92565">
        <ele>2227</ele>
        <time>2022-02-09T10:35:58Z</time>
      </trkpt>
      <trkpt lat="45.12803" lon="5.92569">
        <ele>2226</ele>
        <time>2022-02-09T10:36:03Z</time>
      </trkpt>
      <trkpt lat="45.12806" lon="5.92571">
        <ele>2228</ele>
        <time>2022-02-09T10:36:09Z</time>
      </trkpt>
      <trkpt lat="45.12809" lon="5.92574">
        <ele>2229</ele>
        <time>2022-02-09T10:36:15Z</time>
      </trkpt>
      <trkpt lat="45.12812" lon="5.92577">
        <ele>2231</ele>
        <time>2022-02-09T10:36:22Z</time>
      </trkpt>
      <trkpt lat="45.12814" lon="5.92582">
        <ele>2232</ele>
        <time>2022-02-09T10:36:28Z</time>
      </trkpt>
      <trkpt lat="45.12816" lon="5.92587">
        <ele>2234</ele>
        <time>2022-02-09T10:36:33Z</time>
      </trkpt>
      <trkpt lat="45.12817" lon="5.92592">
        <ele>2234</ele>
        <time>2022-02-09T10:36:40Z</time>
      </trkpt>
      <trkpt lat="45.12817" lon="5.92597">
        <ele>2235</ele>
        <time>2022-02-09T10:36:47Z</time>
      </trkpt>
      <trkpt lat="45.12825" lon="5.92611">
        <ele>2236</ele>
        <time>2022-02-09T10:37:10Z</time>
      </trkpt>
      <trkpt lat="45.12827" lon="5.92616">
        <ele>2238</ele>
        <time>2022-02-09T10:37:31Z</time>
      </trkpt>
      <trkpt lat="45.12828" lon="5.92621">
        <ele>2239</ele>
        <time>2022-02-09T10:37:58Z</time>
      </trkpt>
      <trkpt lat="45.12829" lon="5.92627">
        <ele>2239</ele>
        <time>2022-02-09T10:38:03Z</time>
      </trkpt>
      <trkpt lat="45.12835" lon="5.92646">
        <ele>2241</ele>
        <time>2022-02-09T10:38:28Z</time>
      </trkpt>
      <trkpt lat="45.12838" lon="5.92656">
        <ele>2242</ele>
        <time>2022-02-09T10:38:57Z</time>
      </trkpt>
      <trkpt lat="45.12839" lon="5.92661">
        <ele>2245</ele>
        <time>2022-02-09T10:39:06Z</time>
      </trkpt>
      <trkpt lat="45.12844" lon="5.92658">
        <ele>2247</ele>
        <time>2022-02-09T10:39:25Z</time>
      </trkpt>
      <trkpt lat="45.12848" lon="5.92656">
        <ele>2250</ele>
        <time>2022-02-09T10:39:30Z</time>
      </trkpt>
      <trkpt lat="45.1285" lon="5.92651">
        <ele>2251</ele>
        <time>2022-02-09T10:39:34Z</time>
      </trkpt>
      <trkpt lat="45.12854" lon="5.92644">
        <ele>2253</ele>
        <time>2022-02-09T10:39:43Z</time>
      </trkpt>
      <trkpt lat="45.12856" lon="5.92639">
        <ele>2256</ele>
        <time>2022-02-09T10:39:49Z</time>
      </trkpt>
      <trkpt lat="45.12858" lon="5.92635">
        <ele>2257</ele>
        <time>2022-02-09T10:39:55Z</time>
      </trkpt>
      <trkpt lat="45.1286" lon="5.92632">
        <ele>2259</ele>
        <time>2022-02-09T10:40:01Z</time>
      </trkpt>
      <trkpt lat="45.12862" lon="5.92627">
        <ele>2260</ele>
        <time>2022-02-09T10:40:07Z</time>
      </trkpt>
      <trkpt lat="45.12866" lon="5.92619">
        <ele>2262</ele>
        <time>2022-02-09T10:40:33Z</time>
      </trkpt>
      <trkpt lat="45.12886" lon="5.92614">
        <ele>2267</ele>
        <time>2022-02-09T10:41:02Z</time>
      </trkpt>
      <trkpt lat="45.12893" lon="5.92614">
        <ele>2267</ele>
        <time>2022-02-09T10:41:12Z</time>
      </trkpt>
      <trkpt lat="45.12896" lon="5.92617">
        <ele>2269</ele>
        <time>2022-02-09T10:41:29Z</time>
      </trkpt>
      <trkpt lat="45.12895" lon="5.92622">
        <ele>2269</ele>
        <time>2022-02-09T10:41:37Z</time>
      </trkpt>
      <trkpt lat="45.12893" lon="5.92626">
        <ele>2268</ele>
        <time>2022-02-09T10:41:45Z</time>
      </trkpt>
      <trkpt lat="45.12892" lon="5.92631">
        <ele>2268</ele>
        <time>2022-02-09T10:41:57Z</time>
      </trkpt>
      <trkpt lat="45.12892" lon="5.92636">
        <ele>2271</ele>
        <time>2022-02-09T10:42:08Z</time>
      </trkpt>
      <trkpt lat="45.12892" lon="5.92641">
        <ele>2274</ele>
        <time>2022-02-09T10:42:34Z</time>
      </trkpt>
      <trkpt lat="45.12902" lon="5.92649">
        <ele>2281</ele>
        <time>2022-02-09T10:42:57Z</time>
      </trkpt>
      <trkpt lat="45.12905" lon="5.92651">
        <ele>2283</ele>
        <time>2022-02-09T10:43:23Z</time>
      </trkpt>
      <trkpt lat="45.12904" lon="5.92661">
        <ele>2287</ele>
        <time>2022-02-09T10:43:39Z</time>
      </trkpt>
      <trkpt lat="45.12902" lon="5.92666">
        <ele>2287</ele>
        <time>2022-02-09T10:43:45Z</time>
      </trkpt>
      <trkpt lat="45.12902" lon="5.92671">
        <ele>2289</ele>
        <time>2022-02-09T10:43:52Z</time>
      </trkpt>
      <trkpt lat="45.12901" lon="5.92676">
        <ele>2290</ele>
        <time>2022-02-09T10:43:58Z</time>
      </trkpt>
      <trkpt lat="45.12901" lon="5.92682">
        <ele>2291</ele>
        <time>2022-02-09T10:44:06Z</time>
      </trkpt>
      <trkpt lat="45.12905" lon="5.92684">
        <ele>2291</ele>
        <time>2022-02-09T10:44:38Z</time>
      </trkpt>
      <trkpt lat="45.12908" lon="5.92683">
        <ele>2293</ele>
        <time>2022-02-09T10:44:43Z</time>
      </trkpt>
      <trkpt lat="45.12915" lon="5.92678">
        <ele>2298</ele>
        <time>2022-02-09T10:44:55Z</time>
      </trkpt>
      <trkpt lat="45.12916" lon="5.92684">
        <ele>2298</ele>
        <time>2022-02-09T10:45:13Z</time>
      </trkpt>
      <trkpt lat="45.12914" lon="5.92688">
        <ele>2298</ele>
        <time>2022-02-09T10:45:17Z</time>
      </trkpt>
      <trkpt lat="45.12912" lon="5.92693">
        <ele>2299</ele>
        <time>2022-02-09T10:45:23Z</time>
      </trkpt>
      <trkpt lat="45.12911" lon="5.92698">
        <ele>2299</ele>
        <time>2022-02-09T10:45:31Z</time>
      </trkpt>
      <trkpt lat="45.12904" lon="5.92724">
        <ele>2304</ele>
        <time>2022-02-09T10:46:08Z</time>
      </trkpt>
      <trkpt lat="45.12903" lon="5.92736">
        <ele>2306</ele>
        <time>2022-02-09T10:47:00Z</time>
      </trkpt>
      <trkpt lat="45.12903" lon="5.92748">
        <ele>2307</ele>
        <time>2022-02-09T10:47:18Z</time>
      </trkpt>
      <trkpt lat="45.12904" lon="5.92763">
        <ele>2313</ele>
        <time>2022-02-09T10:47:46Z</time>
      </trkpt>
      <trkpt lat="45.12908" lon="5.92774">
        <ele>2315</ele>
        <time>2022-02-09T10:48:09Z</time>
      </trkpt>
      <trkpt lat="45.12907" lon="5.92779">
        <ele>2316</ele>
        <time>2022-02-09T10:48:16Z</time>
      </trkpt>
      <trkpt lat="45.12905" lon="5.92795">
        <ele>2319</ele>
        <time>2022-02-09T10:48:44Z</time>
      </trkpt>
      <trkpt lat="45.12904" lon="5.928">
        <ele>2320</ele>
        <time>2022-02-09T10:48:53Z</time>
      </trkpt>
      <trkpt lat="45.12903" lon="5.92805">
        <ele>2322</ele>
        <time>2022-02-09T10:49:26Z</time>
      </trkpt>
      <trkpt lat="45.12902" lon="5.9281">
        <ele>2323</ele>
        <time>2022-02-09T10:49:33Z</time>
      </trkpt>
      <trkpt lat="45.12901" lon="5.92815">
        <ele>2327</ele>
        <time>2022-02-09T10:49:42Z</time>
      </trkpt>
      <trkpt lat="45.12899" lon="5.92819">
        <ele>2330</ele>
        <time>2022-02-09T10:49:54Z</time>
      </trkpt>
      <trkpt lat="45.12899" lon="5.92825">
        <ele>2335</ele>
        <time>2022-02-09T10:50:05Z</time>
      </trkpt>
      <trkpt lat="45.12903" lon="5.92825">
        <ele>2336</ele>
        <time>2022-02-09T10:50:13Z</time>
      </trkpt>
      <trkpt lat="45.12907" lon="5.92825">
        <ele>2336</ele>
        <time>2022-02-09T10:50:19Z</time>
      </trkpt>
      <trkpt lat="45.12906" lon="5.9283">
        <ele>2337</ele>
        <time>2022-02-09T10:50:32Z</time>
      </trkpt>
      <trkpt lat="45.12904" lon="5.92834">
        <ele>2337</ele>
        <time>2022-02-09T10:50:38Z</time>
      </trkpt>
      <trkpt lat="45.129" lon="5.92848">
        <ele>2343</ele>
        <time>2022-02-09T10:51:03Z</time>
      </trkpt>
      <trkpt lat="45.12901" lon="5.92853">
        <ele>2344</ele>
        <time>2022-02-09T10:51:22Z</time>
      </trkpt>
      <trkpt lat="45.12903" lon="5.92856">
        <ele>2345</ele>
        <time>2022-02-09T10:51:37Z</time>
      </trkpt>
      <trkpt lat="45.12907" lon="5.92859">
        <ele>2346</ele>
        <time>2022-02-09T10:51:45Z</time>
      </trkpt>
      <trkpt lat="45.12913" lon="5.92862">
        <ele>2346</ele>
        <time>2022-02-09T10:51:57Z</time>
      </trkpt>
      <trkpt lat="45.12917" lon="5.92863">
        <ele>2347</ele>
        <time>2022-02-09T10:52:02Z</time>
      </trkpt>
      <trkpt lat="45.12921" lon="5.92865">
        <ele>2349</ele>
        <time>2022-02-09T10:52:05Z</time>
      </trkpt>
      <trkpt lat="45.12925" lon="5.92864">
        <ele>2350</ele>
        <time>2022-02-09T10:52:09Z</time>
      </trkpt>
      <trkpt lat="45.12934" lon="5.92872">
        <ele>2352</ele>
        <time>2022-02-09T10:52:31Z</time>
      </trkpt>
      <trkpt lat="45.12937" lon="5.92874">
        <ele>2353</ele>
        <time>2022-02-09T10:52:38Z</time>
      </trkpt>
      <trkpt lat="45.12948" lon="5.92879">
        <ele>2356</ele>
        <time>2022-02-09T10:52:59Z</time>
      </trkpt>
      <trkpt lat="45.1295" lon="5.92883">
        <ele>2357</ele>
        <time>2022-02-09T10:53:06Z</time>
      </trkpt>
      <trkpt lat="45.12953" lon="5.92886">
        <ele>2357</ele>
        <time>2022-02-09T10:53:46Z</time>
      </trkpt>
      <trkpt lat="45.12957" lon="5.92888">
        <ele>2357</ele>
        <time>2022-02-09T10:53:54Z</time>
      </trkpt>
      <trkpt lat="45.12959" lon="5.92893">
        <ele>2359</ele>
        <time>2022-02-09T10:54:03Z</time>
      </trkpt>
      <trkpt lat="45.12958" lon="5.92898">
        <ele>2360</ele>
        <time>2022-02-09T10:54:10Z</time>
      </trkpt>
      <trkpt lat="45.12958" lon="5.92903">
        <ele>2360</ele>
        <time>2022-02-09T10:54:16Z</time>
      </trkpt>
      <trkpt lat="45.12955" lon="5.92931">
        <ele>2363</ele>
        <time>2022-02-09T10:54:51Z</time>
      </trkpt>
      <trkpt lat="45.12951" lon="5.92955">
        <ele>2372</ele>
        <time>2022-02-09T10:55:59Z</time>
      </trkpt>
      <trkpt lat="45.12951" lon="5.92961">
        <ele>2372</ele>
        <time>2022-02-09T10:56:07Z</time>
      </trkpt>
      <trkpt lat="45.12955" lon="5.92968">
        <ele>2376</ele>
        <time>2022-02-09T10:56:24Z</time>
      </trkpt>
      <trkpt lat="45.12962" lon="5.92972">
        <ele>2381</ele>
        <time>2022-02-09T10:56:41Z</time>
      </trkpt>
      <trkpt lat="45.12964" lon="5.92982">
        <ele>2385</ele>
        <time>2022-02-09T10:57:01Z</time>
      </trkpt>
      <trkpt lat="45.12969" lon="5.93001">
        <ele>2391</ele>
        <time>2022-02-09T10:57:38Z</time>
      </trkpt>
      <trkpt lat="45.12971" lon="5.93006">
        <ele>2393</ele>
        <time>2022-02-09T10:58:15Z</time>
      </trkpt>
      <trkpt lat="45.12974" lon="5.93017">
        <ele>2396</ele>
        <time>2022-02-09T10:58:32Z</time>
      </trkpt>
      <trkpt lat="45.12976" lon="5.93021">
        <ele>2398</ele>
        <time>2022-02-09T10:58:41Z</time>
      </trkpt>
      <trkpt lat="45.12979" lon="5.93023">
        <ele>2399</ele>
        <time>2022-02-09T10:58:50Z</time>
      </trkpt>
      <trkpt lat="45.12989" lon="5.93018">
        <ele>2404</ele>
        <time>2022-02-09T10:59:09Z</time>
      </trkpt>
      <trkpt lat="45.12994" lon="5.93011">
        <ele>2406</ele>
        <time>2022-02-09T10:59:21Z</time>
      </trkpt>
      <trkpt lat="45.12996" lon="5.93007">
        <ele>2408</ele>
        <time>2022-02-09T10:59:28Z</time>
      </trkpt>
      <trkpt lat="45.12997" lon="5.93003">
        <ele>2409</ele>
        <time>2022-02-09T10:59:35Z</time>
      </trkpt>
      <trkpt lat="45.13001" lon="5.93005">
        <ele>2410</ele>
        <time>2022-02-09T10:59:50Z</time>
      </trkpt>
      <trkpt lat="45.13002" lon="5.9301">
        <ele>2409</ele>
        <time>2022-02-09T10:59:57Z</time>
      </trkpt>
      <trkpt lat="45.13006" lon="5.9301">
        <ele>2410</ele>
        <time>2022-02-09T11:00:05Z</time>
      </trkpt>
      <trkpt lat="45.13009" lon="5.93007">
        <ele>2412</ele>
        <time>2022-02-09T11:00:14Z</time>
      </trkpt>
      <trkpt lat="45.13013" lon="5.9301">
        <ele>2413</ele>
        <time>2022-02-09T11:00:53Z</time>
      </trkpt>
      <trkpt lat="45.13026" lon="5.93023">
        <ele>2413</ele>
        <time>2022-02-09T11:01:13Z</time>
      </trkpt>
      <trkpt lat="45.13029" lon="5.93026">
        <ele>2414</ele>
        <time>2022-02-09T11:01:20Z</time>
      </trkpt>
      <trkpt lat="45.1304" lon="5.93034">
        <ele>2416</ele>
        <time>2022-02-09T11:01:43Z</time>
      </trkpt>
      <trkpt lat="45.13045" lon="5.93041">
        <ele>2419</ele>
        <time>2022-02-09T11:02:00Z</time>
      </trkpt>
      <trkpt lat="45.13055" lon="5.93056">
        <ele>2426</ele>
        <time>2022-02-09T11:03:05Z</time>
      </trkpt>
      <trkpt lat="45.13058" lon="5.93058">
        <ele>2428</ele>
        <time>2022-02-09T11:03:13Z</time>
      </trkpt>
      <trkpt lat="45.13061" lon="5.93061">
        <ele>2430</ele>
        <time>2022-02-09T11:03:25Z</time>
      </trkpt>
      <trkpt lat="45.13064" lon="5.93063">
        <ele>2431</ele>
        <time>2022-02-09T11:03:35Z</time>
      </trkpt>
      <trkpt lat="45.13068" lon="5.93066">
        <ele>2434</ele>
        <time>2022-02-09T11:03:45Z</time>
      </trkpt>
      <trkpt lat="45.13071" lon="5.93069">
        <ele>2435</ele>
        <time>2022-02-09T11:04:12Z</time>
      </trkpt>
      <trkpt lat="45.13078" lon="5.93074">
        <ele>2438</ele>
        <time>2022-02-09T11:04:31Z</time>
      </trkpt>
      <trkpt lat="45.13084" lon="5.9308">
        <ele>2441</ele>
        <time>2022-02-09T11:04:49Z</time>
      </trkpt>
      <trkpt lat="45.13088" lon="5.93079">
        <ele>2444</ele>
        <time>2022-02-09T11:05:32Z</time>
      </trkpt>
      <trkpt lat="45.13089" lon="5.93074">
        <ele>2444</ele>
        <time>2022-02-09T11:05:39Z</time>
      </trkpt>
      <trkpt lat="45.13091" lon="5.93065">
        <ele>2447</ele>
        <time>2022-02-09T11:05:54Z</time>
      </trkpt>
      <trkpt lat="45.13094" lon="5.93061">
        <ele>2450</ele>
        <time>2022-02-09T11:06:02Z</time>
      </trkpt>
      <trkpt lat="45.13096" lon="5.93066">
        <ele>2451</ele>
        <time>2022-02-09T11:06:22Z</time>
      </trkpt>
      <trkpt lat="45.13096" lon="5.93071">
        <ele>2453</ele>
        <time>2022-02-09T11:36:36Z</time>
      </trkpt>
      <trkpt lat="45.13093" lon="5.93071">
        <ele>2453</ele>
        <time>2022-02-09T11:39:00Z</time>
      </trkpt>
      <trkpt lat="45.13089" lon="5.93059">
        <ele>2452</ele>
        <time>2022-02-09T11:39:04Z</time>
      </trkpt>
      <trkpt lat="45.13087" lon="5.93056">
        <ele>2451</ele>
        <time>2022-02-09T11:39:05Z</time>
      </trkpt>
      <trkpt lat="45.13079" lon="5.93054">
        <ele>2449</ele>
        <time>2022-02-09T11:39:07Z</time>
      </trkpt>
      <trkpt lat="45.13077" lon="5.93049">
        <ele>2446</ele>
        <time>2022-02-09T11:39:08Z</time>
      </trkpt>
      <trkpt lat="45.13073" lon="5.93012">
        <ele>2441</ele>
        <time>2022-02-09T11:39:15Z</time>
      </trkpt>
      <trkpt lat="45.13071" lon="5.93007">
        <ele>2440</ele>
        <time>2022-02-09T11:39:16Z</time>
      </trkpt>
      <trkpt lat="45.13067" lon="5.93006">
        <ele>2439</ele>
        <time>2022-02-09T11:39:17Z</time>
      </trkpt>
      <trkpt lat="45.1306" lon="5.93004">
        <ele>2436</ele>
        <time>2022-02-09T11:39:18Z</time>
      </trkpt>
      <trkpt lat="45.13055" lon="5.92999">
        <ele>2433</ele>
        <time>2022-02-09T11:39:19Z</time>
      </trkpt>
      <trkpt lat="45.13049" lon="5.92998">
        <ele>2431</ele>
        <time>2022-02-09T11:39:20Z</time>
      </trkpt>
      <trkpt lat="45.13042" lon="5.92992">
        <ele>2428</ele>
        <time>2022-02-09T11:39:21Z</time>
      </trkpt>
      <trkpt lat="45.13039" lon="5.92985">
        <ele>2427</ele>
        <time>2022-02-09T11:39:22Z</time>
      </trkpt>
      <trkpt lat="45.13032" lon="5.92988">
        <ele>2424</ele>
        <time>2022-02-09T11:39:23Z</time>
      </trkpt>
      <trkpt lat="45.13026" lon="5.92985">
        <ele>2422</ele>
        <time>2022-02-09T11:39:24Z</time>
      </trkpt>
      <trkpt lat="45.13022" lon="5.92977">
        <ele>2419</ele>
        <time>2022-02-09T11:39:25Z</time>
      </trkpt>
      <trkpt lat="45.13018" lon="5.92972">
        <ele>2417</ele>
        <time>2022-02-09T11:39:26Z</time>
      </trkpt>
      <trkpt lat="45.13011" lon="5.92974">
        <ele>2414</ele>
        <time>2022-02-09T11:39:27Z</time>
      </trkpt>
      <trkpt lat="45.13005" lon="5.92961">
        <ele>2411</ele>
        <time>2022-02-09T11:39:29Z</time>
      </trkpt>
      <trkpt lat="45.13009" lon="5.92956">
        <ele>2410</ele>
        <time>2022-02-09T11:39:30Z</time>
      </trkpt>
      <trkpt lat="45.13009" lon="5.9295">
        <ele>2409</ele>
        <time>2022-02-09T11:39:32Z</time>
      </trkpt>
      <trkpt lat="45.13008" lon="5.92945">
        <ele>2407</ele>
        <time>2022-02-09T11:39:42Z</time>
      </trkpt>
      <trkpt lat="45.13" lon="5.92938">
        <ele>2405</ele>
        <time>2022-02-09T11:39:44Z</time>
      </trkpt>
      <trkpt lat="45.12999" lon="5.9293">
        <ele>2402</ele>
        <time>2022-02-09T11:39:45Z</time>
      </trkpt>
      <trkpt lat="45.13" lon="5.92917">
        <ele>2400</ele>
        <time>2022-02-09T11:39:47Z</time>
      </trkpt>
      <trkpt lat="45.13" lon="5.92911">
        <ele>2400</ele>
        <time>2022-02-09T11:39:48Z</time>
      </trkpt>
      <trkpt lat="45.12999" lon="5.92906">
        <ele>2399</ele>
        <time>2022-02-09T11:39:49Z</time>
      </trkpt>
      <trkpt lat="45.12995" lon="5.92905">
        <ele>2397</ele>
        <time>2022-02-09T11:39:50Z</time>
      </trkpt>
      <trkpt lat="45.12987" lon="5.92911">
        <ele>2393</ele>
        <time>2022-02-09T11:39:52Z</time>
      </trkpt>
      <trkpt lat="45.12985" lon="5.92893">
        <ele>2388</ele>
        <time>2022-02-09T11:39:55Z</time>
      </trkpt>
      <trkpt lat="45.12983" lon="5.92888">
        <ele>2385</ele>
        <time>2022-02-09T11:39:56Z</time>
      </trkpt>
      <trkpt lat="45.12972" lon="5.92885">
        <ele>2380</ele>
        <time>2022-02-09T11:39:58Z</time>
      </trkpt>
      <trkpt lat="45.1297" lon="5.92877">
        <ele>2377</ele>
        <time>2022-02-09T11:39:59Z</time>
      </trkpt>
      <trkpt lat="45.12967" lon="5.9287">
        <ele>2374</ele>
        <time>2022-02-09T11:40:00Z</time>
      </trkpt>
      <trkpt lat="45.12951" lon="5.92862">
        <ele>2366</ele>
        <time>2022-02-09T11:40:03Z</time>
      </trkpt>
      <trkpt lat="45.12945" lon="5.92857">
        <ele>2364</ele>
        <time>2022-02-09T11:40:04Z</time>
      </trkpt>
      <trkpt lat="45.1294" lon="5.92855">
        <ele>2362</ele>
        <time>2022-02-09T11:40:05Z</time>
      </trkpt>
      <trkpt lat="45.12932" lon="5.92865">
        <ele>2358</ele>
        <time>2022-02-09T11:40:07Z</time>
      </trkpt>
      <trkpt lat="45.12927" lon="5.92866">
        <ele>2356</ele>
        <time>2022-02-09T11:40:08Z</time>
      </trkpt>
      <trkpt lat="45.12923" lon="5.92863">
        <ele>2355</ele>
        <time>2022-02-09T11:40:09Z</time>
      </trkpt>
      <trkpt lat="45.12923" lon="5.92856">
        <ele>2353</ele>
        <time>2022-02-09T11:40:10Z</time>
      </trkpt>
      <trkpt lat="45.12919" lon="5.92854">
        <ele>2352</ele>
        <time>2022-02-09T11:40:11Z</time>
      </trkpt>
      <trkpt lat="45.12914" lon="5.92857">
        <ele>2351</ele>
        <time>2022-02-09T11:40:12Z</time>
      </trkpt>
      <trkpt lat="45.12911" lon="5.92856">
        <ele>2351</ele>
        <time>2022-02-09T11:40:13Z</time>
      </trkpt>
      <trkpt lat="45.12913" lon="5.92851">
        <ele>2350</ele>
        <time>2022-02-09T11:40:16Z</time>
      </trkpt>
      <trkpt lat="45.12914" lon="5.92845">
        <ele>2348</ele>
        <time>2022-02-09T11:42:54Z</time>
      </trkpt>
      <trkpt lat="45.12916" lon="5.92841">
        <ele>2348</ele>
        <time>2022-02-09T11:42:56Z</time>
      </trkpt>
      <trkpt lat="45.12916" lon="5.92833">
        <ele>2347</ele>
        <time>2022-02-09T11:42:58Z</time>
      </trkpt>
      <trkpt lat="45.1291" lon="5.92833">
        <ele>2344</ele>
        <time>2022-02-09T11:43:00Z</time>
      </trkpt>
      <trkpt lat="45.12906" lon="5.92832">
        <ele>2344</ele>
        <time>2022-02-09T11:43:01Z</time>
      </trkpt>
      <trkpt lat="45.12904" lon="5.92827">
        <ele>2342</ele>
        <time>2022-02-09T11:43:02Z</time>
      </trkpt>
      <trkpt lat="45.12914" lon="5.92815">
        <ele>2340</ele>
        <time>2022-02-09T11:43:04Z</time>
      </trkpt>
      <trkpt lat="45.12916" lon="5.9281">
        <ele>2340</ele>
        <time>2022-02-09T11:43:05Z</time>
      </trkpt>
      <trkpt lat="45.12913" lon="5.92806">
        <ele>2338</ele>
        <time>2022-02-09T11:43:06Z</time>
      </trkpt>
      <trkpt lat="45.12913" lon="5.92798">
        <ele>2336</ele>
        <time>2022-02-09T11:43:07Z</time>
      </trkpt>
      <trkpt lat="45.12914" lon="5.92792">
        <ele>2336</ele>
        <time>2022-02-09T11:43:08Z</time>
      </trkpt>
      <trkpt lat="45.12916" lon="5.92784">
        <ele>2335</ele>
        <time>2022-02-09T11:43:10Z</time>
      </trkpt>
      <trkpt lat="45.12916" lon="5.92774">
        <ele>2333</ele>
        <time>2022-02-09T11:43:12Z</time>
      </trkpt>
      <trkpt lat="45.12912" lon="5.92773">
        <ele>2332</ele>
        <time>2022-02-09T11:43:13Z</time>
      </trkpt>
      <trkpt lat="45.12908" lon="5.92775">
        <ele>2330</ele>
        <time>2022-02-09T11:43:14Z</time>
      </trkpt>
      <trkpt lat="45.12905" lon="5.92778">
        <ele>2329</ele>
        <time>2022-02-09T11:43:15Z</time>
      </trkpt>
      <trkpt lat="45.12901" lon="5.9278">
        <ele>2327</ele>
        <time>2022-02-09T11:43:16Z</time>
      </trkpt>
      <trkpt lat="45.12897" lon="5.92773">
        <ele>2327</ele>
        <time>2022-02-09T11:43:17Z</time>
      </trkpt>
      <trkpt lat="45.12905" lon="5.92749">
        <ele>2323</ele>
        <time>2022-02-09T11:43:20Z</time>
      </trkpt>
      <trkpt lat="45.12908" lon="5.92738">
        <ele>2321</ele>
        <time>2022-02-09T11:43:23Z</time>
      </trkpt>
      <trkpt lat="45.12907" lon="5.92733">
        <ele>2319</ele>
        <time>2022-02-09T11:43:46Z</time>
      </trkpt>
      <trkpt lat="45.12909" lon="5.92721">
        <ele>2318</ele>
        <time>2022-02-09T11:43:49Z</time>
      </trkpt>
      <trkpt lat="45.12913" lon="5.92712">
        <ele>2317</ele>
        <time>2022-02-09T11:43:51Z</time>
      </trkpt>
      <trkpt lat="45.12912" lon="5.92704">
        <ele>2315</ele>
        <time>2022-02-09T11:43:53Z</time>
      </trkpt>
      <trkpt lat="45.12907" lon="5.9269">
        <ele>2313</ele>
        <time>2022-02-09T11:43:55Z</time>
      </trkpt>
      <trkpt lat="45.12912" lon="5.92684">
        <ele>2312</ele>
        <time>2022-02-09T11:43:56Z</time>
      </trkpt>
      <trkpt lat="45.12912" lon="5.92679">
        <ele>2311</ele>
        <time>2022-02-09T11:43:57Z</time>
      </trkpt>
      <trkpt lat="45.12909" lon="5.92674">
        <ele>2309</ele>
        <time>2022-02-09T11:43:58Z</time>
      </trkpt>
      <trkpt lat="45.12905" lon="5.92675">
        <ele>2307</ele>
        <time>2022-02-09T11:43:59Z</time>
      </trkpt>
      <trkpt lat="45.12901" lon="5.92667">
        <ele>2305</ele>
        <time>2022-02-09T11:44:00Z</time>
      </trkpt>
      <trkpt lat="45.12902" lon="5.92657">
        <ele>2302</ele>
        <time>2022-02-09T11:44:01Z</time>
      </trkpt>
      <trkpt lat="45.12905" lon="5.9265">
        <ele>2301</ele>
        <time>2022-02-09T11:44:02Z</time>
      </trkpt>
      <trkpt lat="45.12909" lon="5.92643">
        <ele>2298</ele>
        <time>2022-02-09T11:44:03Z</time>
      </trkpt>
      <trkpt lat="45.12912" lon="5.92624">
        <ele>2295</ele>
        <time>2022-02-09T11:44:05Z</time>
      </trkpt>
      <trkpt lat="45.12911" lon="5.92612">
        <ele>2294</ele>
        <time>2022-02-09T11:44:06Z</time>
      </trkpt>
      <trkpt lat="45.12909" lon="5.92569">
        <ele>2288</ele>
        <time>2022-02-09T11:44:10Z</time>
      </trkpt>
      <trkpt lat="45.12903" lon="5.9256">
        <ele>2285</ele>
        <time>2022-02-09T11:44:11Z</time>
      </trkpt>
      <trkpt lat="45.12896" lon="5.9255">
        <ele>2281</ele>
        <time>2022-02-09T11:44:12Z</time>
      </trkpt>
      <trkpt lat="45.12893" lon="5.92536">
        <ele>2278</ele>
        <time>2022-02-09T11:44:13Z</time>
      </trkpt>
      <trkpt lat="45.12891" lon="5.92513">
        <ele>2274</ele>
        <time>2022-02-09T11:44:15Z</time>
      </trkpt>
      <trkpt lat="45.12892" lon="5.92477">
        <ele>2275</ele>
        <time>2022-02-09T11:44:28Z</time>
      </trkpt>
      <trkpt lat="45.12891" lon="5.92472">
        <ele>2275</ele>
        <time>2022-02-09T11:44:34Z</time>
      </trkpt>
      <trkpt lat="45.12886" lon="5.92468">
        <ele>2274</ele>
        <time>2022-02-09T11:45:00Z</time>
      </trkpt>
      <trkpt lat="45.1288" lon="5.92475">
        <ele>2272</ele>
        <time>2022-02-09T11:45:02Z</time>
      </trkpt>
      <trkpt lat="45.12879" lon="5.92483">
        <ele>2271</ele>
        <time>2022-02-09T11:45:03Z</time>
      </trkpt>
      <trkpt lat="45.12875" lon="5.92488">
        <ele>2270</ele>
        <time>2022-02-09T11:45:04Z</time>
      </trkpt>
      <trkpt lat="45.12872" lon="5.92479">
        <ele>2269</ele>
        <time>2022-02-09T11:45:05Z</time>
      </trkpt>
      <trkpt lat="45.12873" lon="5.9247">
        <ele>2268</ele>
        <time>2022-02-09T11:45:07Z</time>
      </trkpt>
      <trkpt lat="45.12873" lon="5.92465">
        <ele>2267</ele>
        <time>2022-02-09T11:45:08Z</time>
      </trkpt>
      <trkpt lat="45.12869" lon="5.9246">
        <ele>2266</ele>
        <time>2022-02-09T11:45:09Z</time>
      </trkpt>
      <trkpt lat="45.12864" lon="5.92461">
        <ele>2264</ele>
        <time>2022-02-09T11:45:10Z</time>
      </trkpt>
      <trkpt lat="45.12858" lon="5.9246">
        <ele>2263</ele>
        <time>2022-02-09T11:45:11Z</time>
      </trkpt>
      <trkpt lat="45.12853" lon="5.92456">
        <ele>2262</ele>
        <time>2022-02-09T11:45:12Z</time>
      </trkpt>
      <trkpt lat="45.12849" lon="5.92457">
        <ele>2262</ele>
        <time>2022-02-09T11:45:13Z</time>
      </trkpt>
      <trkpt lat="45.12863" lon="5.92446">
        <ele>2258</ele>
        <time>2022-02-09T11:45:15Z</time>
      </trkpt>
      <trkpt lat="45.12864" lon="5.92441">
        <ele>2257</ele>
        <time>2022-02-09T11:45:16Z</time>
      </trkpt>
      <trkpt lat="45.12859" lon="5.9243">
        <ele>2255</ele>
        <time>2022-02-09T11:45:18Z</time>
      </trkpt>
      <trkpt lat="45.12857" lon="5.92425">
        <ele>2254</ele>
        <time>2022-02-09T11:45:19Z</time>
      </trkpt>
      <trkpt lat="45.1286" lon="5.92423">
        <ele>2253</ele>
        <time>2022-02-09T11:45:20Z</time>
      </trkpt>
      <trkpt lat="45.12858" lon="5.92419">
        <ele>2244</ele>
        <time>2022-02-09T11:45:35Z</time>
      </trkpt>
      <trkpt lat="45.12852" lon="5.92419">
        <ele>2243</ele>
        <time>2022-02-09T11:45:36Z</time>
      </trkpt>
      <trkpt lat="45.12849" lon="5.92416">
        <ele>2241</ele>
        <time>2022-02-09T11:45:37Z</time>
      </trkpt>
      <trkpt lat="45.12847" lon="5.92413">
        <ele>2240</ele>
        <time>2022-02-09T11:45:38Z</time>
      </trkpt>
      <trkpt lat="45.12851" lon="5.92405">
        <ele>2239</ele>
        <time>2022-02-09T11:45:40Z</time>
      </trkpt>
      <trkpt lat="45.12856" lon="5.92398">
        <ele>2238</ele>
        <time>2022-02-09T11:45:41Z</time>
      </trkpt>
      <trkpt lat="45.12856" lon="5.92392">
        <ele>2238</ele>
        <time>2022-02-09T11:45:42Z</time>
      </trkpt>
      <trkpt lat="45.12856" lon="5.92386">
        <ele>2236</ele>
        <time>2022-02-09T11:45:43Z</time>
      </trkpt>
      <trkpt lat="45.12849" lon="5.9238">
        <ele>2234</ele>
        <time>2022-02-09T11:45:45Z</time>
      </trkpt>
      <trkpt lat="45.12852" lon="5.92365">
        <ele>2230</ele>
        <time>2022-02-09T11:45:47Z</time>
      </trkpt>
      <trkpt lat="45.12851" lon="5.92358">
        <ele>2228</ele>
        <time>2022-02-09T11:45:48Z</time>
      </trkpt>
      <trkpt lat="45.12848" lon="5.92354">
        <ele>2225</ele>
        <time>2022-02-09T11:45:49Z</time>
      </trkpt>
      <trkpt lat="45.12844" lon="5.92345">
        <ele>2223</ele>
        <time>2022-02-09T11:45:50Z</time>
      </trkpt>
      <trkpt lat="45.12844" lon="5.92336">
        <ele>2222</ele>
        <time>2022-02-09T11:45:51Z</time>
      </trkpt>
      <trkpt lat="45.1285" lon="5.9232">
        <ele>2218</ele>
        <time>2022-02-09T11:45:53Z</time>
      </trkpt>
      <trkpt lat="45.12849" lon="5.92312">
        <ele>2214</ele>
        <time>2022-02-09T11:45:54Z</time>
      </trkpt>
      <trkpt lat="45.12847" lon="5.92306">
        <ele>2213</ele>
        <time>2022-02-09T11:45:55Z</time>
      </trkpt>
      <trkpt lat="45.12844" lon="5.92297">
        <ele>2208</ele>
        <time>2022-02-09T11:45:56Z</time>
      </trkpt>
      <trkpt lat="45.12842" lon="5.92288">
        <ele>2206</ele>
        <time>2022-02-09T11:45:57Z</time>
      </trkpt>
      <trkpt lat="45.12846" lon="5.9228">
        <ele>2202</ele>
        <time>2022-02-09T11:45:58Z</time>
      </trkpt>
      <trkpt lat="45.12848" lon="5.92271">
        <ele>2201</ele>
        <time>2022-02-09T11:45:59Z</time>
      </trkpt>
      <trkpt lat="45.12844" lon="5.92262">
        <ele>2197</ele>
        <time>2022-02-09T11:46:00Z</time>
      </trkpt>
      <trkpt lat="45.12841" lon="5.92251">
        <ele>2193</ele>
        <time>2022-02-09T11:46:01Z</time>
      </trkpt>
      <trkpt lat="45.1284" lon="5.9224">
        <ele>2191</ele>
        <time>2022-02-09T11:46:02Z</time>
      </trkpt>
      <trkpt lat="45.12838" lon="5.92229">
        <ele>2188</ele>
        <time>2022-02-09T11:46:03Z</time>
      </trkpt>
      <trkpt lat="45.1283" lon="5.92225">
        <ele>2184</ele>
        <time>2022-02-09T11:46:04Z</time>
      </trkpt>
      <trkpt lat="45.1282" lon="5.9222">
        <ele>2180</ele>
        <time>2022-02-09T11:46:05Z</time>
      </trkpt>
      <trkpt lat="45.12813" lon="5.92212">
        <ele>2178</ele>
        <time>2022-02-09T11:46:06Z</time>
      </trkpt>
      <trkpt lat="45.12806" lon="5.92204">
        <ele>2176</ele>
        <time>2022-02-09T11:46:07Z</time>
      </trkpt>
      <trkpt lat="45.12817" lon="5.92202">
        <ele>2175</ele>
        <time>2022-02-09T11:46:08Z</time>
      </trkpt>
      <trkpt lat="45.12818" lon="5.9219">
        <ele>2174</ele>
        <time>2022-02-09T11:46:12Z</time>
      </trkpt>
      <trkpt lat="45.12815" lon="5.92187">
        <ele>2174</ele>
        <time>2022-02-09T11:46:21Z</time>
      </trkpt>
      <trkpt lat="45.12813" lon="5.92181">
        <ele>2175</ele>
        <time>2022-02-09T11:46:44Z</time>
      </trkpt>
      <trkpt lat="45.12811" lon="5.92176">
        <ele>2174</ele>
        <time>2022-02-09T11:46:45Z</time>
      </trkpt>
      <trkpt lat="45.12807" lon="5.92174">
        <ele>2174</ele>
        <time>2022-02-09T11:46:46Z</time>
      </trkpt>
      <trkpt lat="45.12804" lon="5.92166">
        <ele>2173</ele>
        <time>2022-02-09T11:46:47Z</time>
      </trkpt>
      <trkpt lat="45.12805" lon="5.92161">
        <ele>2172</ele>
        <time>2022-02-09T11:46:48Z</time>
      </trkpt>
      <trkpt lat="45.12807" lon="5.92155">
        <ele>2171</ele>
        <time>2022-02-09T11:46:50Z</time>
      </trkpt>
      <trkpt lat="45.12803" lon="5.92149">
        <ele>2167</ele>
        <time>2022-02-09T11:46:52Z</time>
      </trkpt>
      <trkpt lat="45.12806" lon="5.92142">
        <ele>2165</ele>
        <time>2022-02-09T11:46:54Z</time>
      </trkpt>
      <trkpt lat="45.12804" lon="5.92134">
        <ele>2162</ele>
        <time>2022-02-09T11:46:56Z</time>
      </trkpt>
      <trkpt lat="45.128" lon="5.92133">
        <ele>2161</ele>
        <time>2022-02-09T11:46:57Z</time>
      </trkpt>
      <trkpt lat="45.12797" lon="5.92129">
        <ele>2159</ele>
        <time>2022-02-09T11:46:59Z</time>
      </trkpt>
      <trkpt lat="45.12799" lon="5.92125">
        <ele>2158</ele>
        <time>2022-02-09T11:47:01Z</time>
      </trkpt>
      <trkpt lat="45.12795" lon="5.92121">
        <ele>2154</ele>
        <time>2022-02-09T11:47:03Z</time>
      </trkpt>
      <trkpt lat="45.12798" lon="5.92115">
        <ele>2151</ele>
        <time>2022-02-09T11:47:07Z</time>
      </trkpt>
      <trkpt lat="45.12795" lon="5.92109">
        <ele>2147</ele>
        <time>2022-02-09T11:47:09Z</time>
      </trkpt>
      <trkpt lat="45.12802" lon="5.92101">
        <ele>2143</ele>
        <time>2022-02-09T11:47:12Z</time>
      </trkpt>
      <trkpt lat="45.12802" lon="5.92095">
        <ele>2141</ele>
        <time>2022-02-09T11:47:13Z</time>
      </trkpt>
      <trkpt lat="45.12796" lon="5.92093">
        <ele>2137</ele>
        <time>2022-02-09T11:47:15Z</time>
      </trkpt>
      <trkpt lat="45.12794" lon="5.92087">
        <ele>2134</ele>
        <time>2022-02-09T11:47:18Z</time>
      </trkpt>
      <trkpt lat="45.12819" lon="5.92056">
        <ele>2126</ele>
        <time>2022-02-09T11:47:26Z</time>
      </trkpt>
      <trkpt lat="45.12818" lon="5.92049">
        <ele>2124</ele>
        <time>2022-02-09T11:47:56Z</time>
      </trkpt>
      <trkpt lat="45.12811" lon="5.92047">
        <ele>2122</ele>
        <time>2022-02-09T11:47:57Z</time>
      </trkpt>
      <trkpt lat="45.12808" lon="5.92041">
        <ele>2119</ele>
        <time>2022-02-09T11:47:58Z</time>
      </trkpt>
      <trkpt lat="45.1281" lon="5.92029">
        <ele>2116</ele>
        <time>2022-02-09T11:47:59Z</time>
      </trkpt>
      <trkpt lat="45.12813" lon="5.9202">
        <ele>2113</ele>
        <time>2022-02-09T11:48:00Z</time>
      </trkpt>
      <trkpt lat="45.12821" lon="5.92009">
        <ele>2112</ele>
        <time>2022-02-09T11:48:02Z</time>
      </trkpt>
      <trkpt lat="45.12827" lon="5.91997">
        <ele>2111</ele>
        <time>2022-02-09T11:48:04Z</time>
      </trkpt>
      <trkpt lat="45.12829" lon="5.91991">
        <ele>2111</ele>
        <time>2022-02-09T11:48:05Z</time>
      </trkpt>
      <trkpt lat="45.12829" lon="5.91985">
        <ele>2110</ele>
        <time>2022-02-09T11:48:06Z</time>
      </trkpt>
      <trkpt lat="45.12817" lon="5.91938">
        <ele>2105</ele>
        <time>2022-02-09T11:48:12Z</time>
      </trkpt>
      <trkpt lat="45.12801" lon="5.91905">
        <ele>2103</ele>
        <time>2022-02-09T11:48:17Z</time>
      </trkpt>
      <trkpt lat="45.1277" lon="5.91863">
        <ele>2096</ele>
        <time>2022-02-09T11:48:25Z</time>
      </trkpt>
      <trkpt lat="45.12716" lon="5.91822">
        <ele>2091</ele>
        <time>2022-02-09T11:48:54Z</time>
      </trkpt>
      <trkpt lat="45.12712" lon="5.91824">
        <ele>2089</ele>
        <time>2022-02-09T11:50:30Z</time>
      </trkpt>
      <trkpt lat="45.12712" lon="5.91819">
        <ele>2091</ele>
        <time>2022-02-09T11:57:49Z</time>
      </trkpt>
      <trkpt lat="45.12714" lon="5.91809">
        <ele>2092</ele>
        <time>2022-02-09T11:57:57Z</time>
      </trkpt>
      <trkpt lat="45.12715" lon="5.91794">
        <ele>2092</ele>
        <time>2022-02-09T11:58:13Z</time>
      </trkpt>
      <trkpt lat="45.12715" lon="5.91772">
        <ele>2094</ele>
        <time>2022-02-09T11:58:34Z</time>
      </trkpt>
      <trkpt lat="45.12707" lon="5.91744">
        <ele>2097</ele>
        <time>2022-02-09T11:59:06Z</time>
      </trkpt>
      <trkpt lat="45.12703" lon="5.91736">
        <ele>2098</ele>
        <time>2022-02-09T11:59:17Z</time>
      </trkpt>
      <trkpt lat="45.12699" lon="5.91726">
        <ele>2098</ele>
        <time>2022-02-09T11:59:29Z</time>
      </trkpt>
      <trkpt lat="45.12697" lon="5.91722">
        <ele>2098</ele>
        <time>2022-02-09T11:59:35Z</time>
      </trkpt>
      <trkpt lat="45.12694" lon="5.91712">
        <ele>2100</ele>
        <time>2022-02-09T11:59:47Z</time>
      </trkpt>
      <trkpt lat="45.12692" lon="5.91708">
        <ele>2100</ele>
        <time>2022-02-09T11:59:52Z</time>
      </trkpt>
      <trkpt lat="45.12686" lon="5.91688">
        <ele>2102</ele>
        <time>2022-02-09T12:00:21Z</time>
      </trkpt>
      <trkpt lat="45.12685" lon="5.91684">
        <ele>2102</ele>
        <time>2022-02-09T12:00:27Z</time>
      </trkpt>
      <trkpt lat="45.12683" lon="5.91679">
        <ele>2104</ele>
        <time>2022-02-09T12:00:33Z</time>
      </trkpt>
      <trkpt lat="45.12681" lon="5.91675">
        <ele>2105</ele>
        <time>2022-02-09T12:00:39Z</time>
      </trkpt>
      <trkpt lat="45.12679" lon="5.91671">
        <ele>2106</ele>
        <time>2022-02-09T12:00:46Z</time>
      </trkpt>
      <trkpt lat="45.12671" lon="5.91647">
        <ele>2111</ele>
        <time>2022-02-09T12:01:17Z</time>
      </trkpt>
      <trkpt lat="45.12666" lon="5.91632">
        <ele>2112</ele>
        <time>2022-02-09T12:01:32Z</time>
      </trkpt>
      <trkpt lat="45.12662" lon="5.91618">
        <ele>2114</ele>
        <time>2022-02-09T12:01:48Z</time>
      </trkpt>
      <trkpt lat="45.12661" lon="5.91613">
        <ele>2114</ele>
        <time>2022-02-09T12:01:54Z</time>
      </trkpt>
      <trkpt lat="45.1266" lon="5.91602">
        <ele>2115</ele>
        <time>2022-02-09T12:02:05Z</time>
      </trkpt>
      <trkpt lat="45.1266" lon="5.91597">
        <ele>2115</ele>
        <time>2022-02-09T12:02:11Z</time>
      </trkpt>
      <trkpt lat="45.12661" lon="5.91577">
        <ele>2118</ele>
        <time>2022-02-09T12:02:33Z</time>
      </trkpt>
      <trkpt lat="45.12661" lon="5.91572">
        <ele>2118</ele>
        <time>2022-02-09T12:02:39Z</time>
      </trkpt>
      <trkpt lat="45.12661" lon="5.91562">
        <ele>2119</ele>
        <time>2022-02-09T12:02:49Z</time>
      </trkpt>
      <trkpt lat="45.1266" lon="5.91557">
        <ele>2120</ele>
        <time>2022-02-09T12:02:54Z</time>
      </trkpt>
      <trkpt lat="45.12658" lon="5.91531">
        <ele>2124</ele>
        <time>2022-02-09T12:03:25Z</time>
      </trkpt>
      <trkpt lat="45.12657" lon="5.9151">
        <ele>2125</ele>
        <time>2022-02-09T12:03:45Z</time>
      </trkpt>
      <trkpt lat="45.12656" lon="5.91472">
        <ele>2128</ele>
        <time>2022-02-09T12:04:17Z</time>
      </trkpt>
      <trkpt lat="45.12655" lon="5.91467">
        <ele>2129</ele>
        <time>2022-02-09T12:04:22Z</time>
      </trkpt>
      <trkpt lat="45.12654" lon="5.91456">
        <ele>2130</ele>
        <time>2022-02-09T12:04:31Z</time>
      </trkpt>
      <trkpt lat="45.12653" lon="5.91451">
        <ele>2130</ele>
        <time>2022-02-09T12:04:37Z</time>
      </trkpt>
      <trkpt lat="45.12651" lon="5.91441">
        <ele>2132</ele>
        <time>2022-02-09T12:04:55Z</time>
      </trkpt>
      <trkpt lat="45.12649" lon="5.91436">
        <ele>2133</ele>
        <time>2022-02-09T12:05:00Z</time>
      </trkpt>
      <trkpt lat="45.12646" lon="5.91426">
        <ele>2134</ele>
        <time>2022-02-09T12:05:10Z</time>
      </trkpt>
      <trkpt lat="45.12638" lon="5.9141">
        <ele>2134</ele>
        <time>2022-02-09T12:05:30Z</time>
      </trkpt>
      <trkpt lat="45.12634" lon="5.91408">
        <ele>2135</ele>
        <time>2022-02-09T12:05:35Z</time>
      </trkpt>
      <trkpt lat="45.12631" lon="5.91406">
        <ele>2136</ele>
        <time>2022-02-09T12:05:40Z</time>
      </trkpt>
      <trkpt lat="45.12629" lon="5.914">
        <ele>2136</ele>
        <time>2022-02-09T12:05:45Z</time>
      </trkpt>
      <trkpt lat="45.12614" lon="5.91369">
        <ele>2137</ele>
        <time>2022-02-09T12:06:17Z</time>
      </trkpt>
      <trkpt lat="45.12608" lon="5.91355">
        <ele>2141</ele>
        <time>2022-02-09T12:06:51Z</time>
      </trkpt>
      <trkpt lat="45.12597" lon="5.91328">
        <ele>2144</ele>
        <time>2022-02-09T12:07:21Z</time>
      </trkpt>
      <trkpt lat="45.1259" lon="5.91316">
        <ele>2148</ele>
        <time>2022-02-09T12:07:36Z</time>
      </trkpt>
      <trkpt lat="45.12587" lon="5.91311">
        <ele>2148</ele>
        <time>2022-02-09T12:07:41Z</time>
      </trkpt>
      <trkpt lat="45.1258" lon="5.91294">
        <ele>2151</ele>
        <time>2022-02-09T12:08:01Z</time>
      </trkpt>
      <trkpt lat="45.12578" lon="5.91289">
        <ele>2152</ele>
        <time>2022-02-09T12:08:07Z</time>
      </trkpt>
      <trkpt lat="45.12571" lon="5.91278">
        <ele>2153</ele>
        <time>2022-02-09T12:08:36Z</time>
      </trkpt>
      <trkpt lat="45.12563" lon="5.91267">
        <ele>2155</ele>
        <time>2022-02-09T12:08:51Z</time>
      </trkpt>
      <trkpt lat="45.12548" lon="5.91244">
        <ele>2158</ele>
        <time>2022-02-09T12:09:21Z</time>
      </trkpt>
      <trkpt lat="45.12535" lon="5.91225">
        <ele>2161</ele>
        <time>2022-02-09T12:09:46Z</time>
      </trkpt>
      <trkpt lat="45.12532" lon="5.91222">
        <ele>2161</ele>
        <time>2022-02-09T12:09:51Z</time>
      </trkpt>
      <trkpt lat="45.12529" lon="5.91219">
        <ele>2162</ele>
        <time>2022-02-09T12:09:56Z</time>
      </trkpt>
      <trkpt lat="45.12526" lon="5.91215">
        <ele>2163</ele>
        <time>2022-02-09T12:10:01Z</time>
      </trkpt>
      <trkpt lat="45.12522" lon="5.91208">
        <ele>2165</ele>
        <time>2022-02-09T12:10:11Z</time>
      </trkpt>
      <trkpt lat="45.12519" lon="5.91204">
        <ele>2166</ele>
        <time>2022-02-09T12:10:16Z</time>
      </trkpt>
      <trkpt lat="45.12511" lon="5.91194">
        <ele>2168</ele>
        <time>2022-02-09T12:10:32Z</time>
      </trkpt>
      <trkpt lat="45.12509" lon="5.9119">
        <ele>2170</ele>
        <time>2022-02-09T12:10:44Z</time>
      </trkpt>
      <trkpt lat="45.12508" lon="5.91185">
        <ele>2170</ele>
        <time>2022-02-09T12:11:16Z</time>
      </trkpt>
      <trkpt lat="45.12512" lon="5.91176">
        <ele>2171</ele>
        <time>2022-02-09T12:11:28Z</time>
      </trkpt>
      <trkpt lat="45.12515" lon="5.91173">
        <ele>2171</ele>
        <time>2022-02-09T12:11:33Z</time>
      </trkpt>
      <trkpt lat="45.1252" lon="5.91159">
        <ele>2173</ele>
        <time>2022-02-09T12:11:46Z</time>
      </trkpt>
      <trkpt lat="45.12524" lon="5.9115">
        <ele>2174</ele>
        <time>2022-02-09T12:11:53Z</time>
      </trkpt>
      <trkpt lat="45.12533" lon="5.91124">
        <ele>2176</ele>
        <time>2022-02-09T12:12:17Z</time>
      </trkpt>
      <trkpt lat="45.12534" lon="5.91119">
        <ele>2177</ele>
        <time>2022-02-09T12:12:21Z</time>
      </trkpt>
      <trkpt lat="45.12547" lon="5.91087">
        <ele>2177</ele>
        <time>2022-02-09T12:12:54Z</time>
      </trkpt>
      <trkpt lat="45.12558" lon="5.91065">
        <ele>2179</ele>
        <time>2022-02-09T12:13:16Z</time>
      </trkpt>
      <trkpt lat="45.1256" lon="5.91061">
        <ele>2179</ele>
        <time>2022-02-09T12:13:21Z</time>
      </trkpt>
      <trkpt lat="45.12572" lon="5.9104">
        <ele>2179</ele>
        <time>2022-02-09T12:13:43Z</time>
      </trkpt>
      <trkpt lat="45.12577" lon="5.91025">
        <ele>2181</ele>
        <time>2022-02-09T12:13:55Z</time>
      </trkpt>
      <trkpt lat="45.12578" lon="5.9102">
        <ele>2181</ele>
        <time>2022-02-09T12:13:59Z</time>
      </trkpt>
      <trkpt lat="45.12583" lon="5.91011">
        <ele>2181</ele>
        <time>2022-02-09T12:14:09Z</time>
      </trkpt>
      <trkpt lat="45.12586" lon="5.91001">
        <ele>2179</ele>
        <time>2022-02-09T12:14:18Z</time>
      </trkpt>
      <trkpt lat="45.12594" lon="5.90982">
        <ele>2178</ele>
        <time>2022-02-09T12:14:37Z</time>
      </trkpt>
      <trkpt lat="45.12594" lon="5.90978">
        <ele>2178</ele>
        <time>2022-02-09T12:14:42Z</time>
      </trkpt>
      <trkpt lat="45.12592" lon="5.90974">
        <ele>2178</ele>
        <time>2022-02-09T12:14:46Z</time>
      </trkpt>
      <trkpt lat="45.12593" lon="5.90936">
        <ele>2179</ele>
        <time>2022-02-09T12:15:16Z</time>
      </trkpt>
      <trkpt lat="45.12593" lon="5.9091">
        <ele>2183</ele>
        <time>2022-02-09T12:15:37Z</time>
      </trkpt>
      <trkpt lat="45.1259" lon="5.90883">
        <ele>2187</ele>
        <time>2022-02-09T12:16:23Z</time>
      </trkpt>
      <trkpt lat="45.12587" lon="5.90853">
        <ele>2191</ele>
        <time>2022-02-09T12:16:58Z</time>
      </trkpt>
      <trkpt lat="45.12584" lon="5.90826">
        <ele>2197</ele>
        <time>2022-02-09T12:17:31Z</time>
      </trkpt>
      <trkpt lat="45.1259" lon="5.90814">
        <ele>2198</ele>
        <time>2022-02-09T12:18:02Z</time>
      </trkpt>
      <trkpt lat="45.12602" lon="5.9079">
        <ele>2199</ele>
        <time>2022-02-09T12:18:29Z</time>
      </trkpt>
      <trkpt lat="45.12603" lon="5.90786">
        <ele>2199</ele>
        <time>2022-02-09T12:18:34Z</time>
      </trkpt>
      <trkpt lat="45.12613" lon="5.90771">
        <ele>2200</ele>
        <time>2022-02-09T12:18:52Z</time>
      </trkpt>
      <trkpt lat="45.12616" lon="5.90766">
        <ele>2200</ele>
        <time>2022-02-09T12:18:57Z</time>
      </trkpt>
      <trkpt lat="45.12622" lon="5.90754">
        <ele>2201</ele>
        <time>2022-02-09T12:19:50Z</time>
      </trkpt>
      <trkpt lat="45.12641" lon="5.90738">
        <ele>2204</ele>
        <time>2022-02-09T12:20:19Z</time>
      </trkpt>
      <trkpt lat="45.12652" lon="5.90736">
        <ele>2204</ele>
        <time>2022-02-09T12:20:33Z</time>
      </trkpt>
      <trkpt lat="45.12656" lon="5.90733">
        <ele>2204</ele>
        <time>2022-02-09T12:20:38Z</time>
      </trkpt>
      <trkpt lat="45.12661" lon="5.90726">
        <ele>2203</ele>
        <time>2022-02-09T12:20:47Z</time>
      </trkpt>
      <trkpt lat="45.12667" lon="5.90713">
        <ele>2203</ele>
        <time>2022-02-09T12:21:03Z</time>
      </trkpt>
      <trkpt lat="45.12665" lon="5.90714">
        <ele>2204</ele>
        <time>2022-02-09T12:21:17Z</time>
      </trkpt>
      <trkpt lat="45.12667" lon="5.9072">
        <ele>2204</ele>
        <time>2022-02-09T12:21:21Z</time>
      </trkpt>
      <trkpt lat="45.1267" lon="5.9073">
        <ele>2204</ele>
        <time>2022-02-09T12:21:30Z</time>
      </trkpt>
      <trkpt lat="45.12671" lon="5.90735">
        <ele>2203</ele>
        <time>2022-02-09T12:21:35Z</time>
      </trkpt>
      <trkpt lat="45.12673" lon="5.90741">
        <ele>2202</ele>
        <time>2022-02-09T12:21:42Z</time>
      </trkpt>
      <trkpt lat="45.1267" lon="5.90745">
        <ele>2202</ele>
        <time>2022-02-09T12:21:43Z</time>
      </trkpt>
      <trkpt lat="45.12666" lon="5.90741">
        <ele>2201</ele>
        <time>2022-02-09T12:21:45Z</time>
      </trkpt>
      <trkpt lat="45.12669" lon="5.90735">
        <ele>2201</ele>
        <time>2022-02-09T12:21:47Z</time>
      </trkpt>
      <trkpt lat="45.12674" lon="5.90732">
        <ele>2201</ele>
        <time>2022-02-09T12:21:50Z</time>
      </trkpt>
      <trkpt lat="45.1268" lon="5.90726">
        <ele>2200</ele>
        <time>2022-02-09T12:21:58Z</time>
      </trkpt>
      <trkpt lat="45.12689" lon="5.9073">
        <ele>2196</ele>
        <time>2022-02-09T12:22:03Z</time>
      </trkpt>
      <trkpt lat="45.12702" lon="5.9074">
        <ele>2194</ele>
        <time>2022-02-09T12:22:07Z</time>
      </trkpt>
      <trkpt lat="45.12705" lon="5.90742">
        <ele>2194</ele>
        <time>2022-02-09T12:22:10Z</time>
      </trkpt>
      <trkpt lat="45.12712" lon="5.90743">
        <ele>2193</ele>
        <time>2022-02-09T12:22:18Z</time>
      </trkpt>
      <trkpt lat="45.12717" lon="5.90741">
        <ele>2193</ele>
        <time>2022-02-09T12:22:29Z</time>
      </trkpt>
      <trkpt lat="45.12732" lon="5.90729">
        <ele>2194</ele>
        <time>2022-02-09T12:22:54Z</time>
      </trkpt>
      <trkpt lat="45.12749" lon="5.90718">
        <ele>2195</ele>
        <time>2022-02-09T12:23:27Z</time>
      </trkpt>
      <trkpt lat="45.12756" lon="5.90715">
        <ele>2196</ele>
        <time>2022-02-09T12:23:37Z</time>
      </trkpt>
      <trkpt lat="45.1277" lon="5.90705">
        <ele>2197</ele>
        <time>2022-02-09T12:24:10Z</time>
      </trkpt>
      <trkpt lat="45.12778" lon="5.90695">
        <ele>2198</ele>
        <time>2022-02-09T12:24:26Z</time>
      </trkpt>
      <trkpt lat="45.12779" lon="5.90706">
        <ele>2198</ele>
        <time>2022-02-09T12:24:50Z</time>
      </trkpt>
      <trkpt lat="45.12777" lon="5.90722">
        <ele>2203</ele>
        <time>2022-02-09T12:25:08Z</time>
      </trkpt>
      <trkpt lat="45.12776" lon="5.90728">
        <ele>2206</ele>
        <time>2022-02-09T12:25:38Z</time>
      </trkpt>
      <trkpt lat="45.12772" lon="5.90738">
        <ele>2208</ele>
        <time>2022-02-09T12:25:51Z</time>
      </trkpt>
      <trkpt lat="45.12773" lon="5.90743">
        <ele>2209</ele>
        <time>2022-02-09T12:25:57Z</time>
      </trkpt>
      <trkpt lat="45.12776" lon="5.90745">
        <ele>2210</ele>
        <time>2022-02-09T12:26:02Z</time>
      </trkpt>
      <trkpt lat="45.12789" lon="5.90736">
        <ele>2212</ele>
        <time>2022-02-09T12:26:23Z</time>
      </trkpt>
      <trkpt lat="45.12804" lon="5.90731">
        <ele>2215</ele>
        <time>2022-02-09T12:26:54Z</time>
      </trkpt>
      <trkpt lat="45.12812" lon="5.90726">
        <ele>2215</ele>
        <time>2022-02-09T12:27:05Z</time>
      </trkpt>
      <trkpt lat="45.12815" lon="5.90725">
        <ele>2215</ele>
        <time>2022-02-09T12:27:08Z</time>
      </trkpt>
      <trkpt lat="45.12829" lon="5.90717">
        <ele>2215</ele>
        <time>2022-02-09T12:27:35Z</time>
      </trkpt>
      <trkpt lat="45.12832" lon="5.90714">
        <ele>2217</ele>
        <time>2022-02-09T12:27:51Z</time>
      </trkpt>
      <trkpt lat="45.12841" lon="5.90691">
        <ele>2222</ele>
        <time>2022-02-09T12:28:25Z</time>
      </trkpt>
      <trkpt lat="45.12847" lon="5.90678">
        <ele>2224</ele>
        <time>2022-02-09T12:28:51Z</time>
      </trkpt>
      <trkpt lat="45.12854" lon="5.90673">
        <ele>2225</ele>
        <time>2022-02-09T12:29:02Z</time>
      </trkpt>
      <trkpt lat="45.12858" lon="5.90672">
        <ele>2227</ele>
        <time>2022-02-09T12:30:51Z</time>
      </trkpt>
      <trkpt lat="45.12855" lon="5.90674">
        <ele>2229</ele>
        <time>2022-02-09T12:42:00Z</time>
      </trkpt>
      <trkpt lat="45.12853" lon="5.9068">
        <ele>2228</ele>
        <time>2022-02-09T12:47:51Z</time>
      </trkpt>
      <trkpt lat="45.12848" lon="5.90684">
        <ele>2227</ele>
        <time>2022-02-09T12:47:53Z</time>
      </trkpt>
      <trkpt lat="45.12839" lon="5.90684">
        <ele>2226</ele>
        <time>2022-02-09T12:47:56Z</time>
      </trkpt>
      <trkpt lat="45.12835" lon="5.90687">
        <ele>2226</ele>
        <time>2022-02-09T12:47:57Z</time>
      </trkpt>
      <trkpt lat="45.12832" lon="5.90692">
        <ele>2226</ele>
        <time>2022-02-09T12:47:58Z</time>
      </trkpt>
      <trkpt lat="45.12828" lon="5.90694">
        <ele>2225</ele>
        <time>2022-02-09T12:47:59Z</time>
      </trkpt>
      <trkpt lat="45.12824" lon="5.90693">
        <ele>2224</ele>
        <time>2022-02-09T12:48:00Z</time>
      </trkpt>
      <trkpt lat="45.1282" lon="5.90696">
        <ele>2223</ele>
        <time>2022-02-09T12:48:01Z</time>
      </trkpt>
      <trkpt lat="45.12817" lon="5.90699">
        <ele>2222</ele>
        <time>2022-02-09T12:48:02Z</time>
      </trkpt>
      <trkpt lat="45.12814" lon="5.90702">
        <ele>2221</ele>
        <time>2022-02-09T12:48:03Z</time>
      </trkpt>
      <trkpt lat="45.12807" lon="5.907">
        <ele>2220</ele>
        <time>2022-02-09T12:48:05Z</time>
      </trkpt>
      <trkpt lat="45.12804" lon="5.90704">
        <ele>2218</ele>
        <time>2022-02-09T12:48:06Z</time>
      </trkpt>
      <trkpt lat="45.128" lon="5.90706">
        <ele>2216</ele>
        <time>2022-02-09T12:48:07Z</time>
      </trkpt>
      <trkpt lat="45.12797" lon="5.90701">
        <ele>2215</ele>
        <time>2022-02-09T12:48:09Z</time>
      </trkpt>
      <trkpt lat="45.12797" lon="5.90695">
        <ele>2212</ele>
        <time>2022-02-09T12:48:12Z</time>
      </trkpt>
      <trkpt lat="45.12793" lon="5.9069">
        <ele>2211</ele>
        <time>2022-02-09T12:48:20Z</time>
      </trkpt>
      <trkpt lat="45.12789" lon="5.90693">
        <ele>2209</ele>
        <time>2022-02-09T12:48:21Z</time>
      </trkpt>
      <trkpt lat="45.12787" lon="5.90698">
        <ele>2208</ele>
        <time>2022-02-09T12:48:22Z</time>
      </trkpt>
      <trkpt lat="45.12783" lon="5.90697">
        <ele>2206</ele>
        <time>2022-02-09T12:48:23Z</time>
      </trkpt>
      <trkpt lat="45.12777" lon="5.90697">
        <ele>2204</ele>
        <time>2022-02-09T12:48:24Z</time>
      </trkpt>
      <trkpt lat="45.12772" lon="5.90699">
        <ele>2202</ele>
        <time>2022-02-09T12:48:25Z</time>
      </trkpt>
      <trkpt lat="45.12768" lon="5.90695">
        <ele>2200</ele>
        <time>2022-02-09T12:48:26Z</time>
      </trkpt>
      <trkpt lat="45.12768" lon="5.90688">
        <ele>2198</ele>
        <time>2022-02-09T12:48:27Z</time>
      </trkpt>
      <trkpt lat="45.12762" lon="5.90687">
        <ele>2197</ele>
        <time>2022-02-09T12:48:28Z</time>
      </trkpt>
      <trkpt lat="45.12759" lon="5.90691">
        <ele>2195</ele>
        <time>2022-02-09T12:48:29Z</time>
      </trkpt>
      <trkpt lat="45.12754" lon="5.9069">
        <ele>2193</ele>
        <time>2022-02-09T12:48:30Z</time>
      </trkpt>
      <trkpt lat="45.1275" lon="5.90683">
        <ele>2191</ele>
        <time>2022-02-09T12:48:31Z</time>
      </trkpt>
      <trkpt lat="45.12748" lon="5.90677">
        <ele>2190</ele>
        <time>2022-02-09T12:48:32Z</time>
      </trkpt>
      <trkpt lat="45.12749" lon="5.90671">
        <ele>2188</ele>
        <time>2022-02-09T12:48:33Z</time>
      </trkpt>
      <trkpt lat="45.12743" lon="5.90672">
        <ele>2187</ele>
        <time>2022-02-09T12:48:34Z</time>
      </trkpt>
      <trkpt lat="45.1274" lon="5.90676">
        <ele>2184</ele>
        <time>2022-02-09T12:48:35Z</time>
      </trkpt>
      <trkpt lat="45.12738" lon="5.9067">
        <ele>2183</ele>
        <time>2022-02-09T12:48:37Z</time>
      </trkpt>
      <trkpt lat="45.12737" lon="5.90663">
        <ele>2180</ele>
        <time>2022-02-09T12:48:38Z</time>
      </trkpt>
      <trkpt lat="45.12733" lon="5.90661">
        <ele>2179</ele>
        <time>2022-02-09T12:48:39Z</time>
      </trkpt>
      <trkpt lat="45.12729" lon="5.90661">
        <ele>2178</ele>
        <time>2022-02-09T12:48:40Z</time>
      </trkpt>
      <trkpt lat="45.12726" lon="5.90664">
        <ele>2177</ele>
        <time>2022-02-09T12:48:42Z</time>
      </trkpt>
      <trkpt lat="45.12722" lon="5.90664">
        <ele>2176</ele>
        <time>2022-02-09T12:48:51Z</time>
      </trkpt>
      <trkpt lat="45.12717" lon="5.9066">
        <ele>2176</ele>
        <time>2022-02-09T12:48:53Z</time>
      </trkpt>
      <trkpt lat="45.12718" lon="5.90653">
        <ele>2174</ele>
        <time>2022-02-09T12:48:54Z</time>
      </trkpt>
      <trkpt lat="45.12721" lon="5.90651">
        <ele>2173</ele>
        <time>2022-02-09T12:48:55Z</time>
      </trkpt>
      <trkpt lat="45.12723" lon="5.90646">
        <ele>2171</ele>
        <time>2022-02-09T12:48:57Z</time>
      </trkpt>
      <trkpt lat="45.1271" lon="5.90635">
        <ele>2167</ele>
        <time>2022-02-09T12:49:01Z</time>
      </trkpt>
      <trkpt lat="45.12711" lon="5.90628">
        <ele>2166</ele>
        <time>2022-02-09T12:49:02Z</time>
      </trkpt>
      <trkpt lat="45.12715" lon="5.90623">
        <ele>2163</ele>
        <time>2022-02-09T12:49:03Z</time>
      </trkpt>
      <trkpt lat="45.12719" lon="5.90619">
        <ele>2162</ele>
        <time>2022-02-09T12:49:04Z</time>
      </trkpt>
      <trkpt lat="45.12727" lon="5.90617">
        <ele>2159</ele>
        <time>2022-02-09T12:49:06Z</time>
      </trkpt>
      <trkpt lat="45.12731" lon="5.90613">
        <ele>2157</ele>
        <time>2022-02-09T12:49:07Z</time>
      </trkpt>
      <trkpt lat="45.1273" lon="5.90605">
        <ele>2155</ele>
        <time>2022-02-09T12:49:08Z</time>
      </trkpt>
      <trkpt lat="45.12713" lon="5.90576">
        <ele>2147</ele>
        <time>2022-02-09T12:49:12Z</time>
      </trkpt>
      <trkpt lat="45.12717" lon="5.90579">
        <ele>2145</ele>
        <time>2022-02-09T12:49:14Z</time>
      </trkpt>
      <trkpt lat="45.1273" lon="5.90581">
        <ele>2143</ele>
        <time>2022-02-09T12:49:15Z</time>
      </trkpt>
      <trkpt lat="45.12735" lon="5.90578">
        <ele>2142</ele>
        <time>2022-02-09T12:49:16Z</time>
      </trkpt>
      <trkpt lat="45.12735" lon="5.90571">
        <ele>2139</ele>
        <time>2022-02-09T12:49:17Z</time>
      </trkpt>
      <trkpt lat="45.12735" lon="5.90565">
        <ele>2138</ele>
        <time>2022-02-09T12:49:18Z</time>
      </trkpt>
      <trkpt lat="45.12737" lon="5.9055">
        <ele>2135</ele>
        <time>2022-02-09T12:49:20Z</time>
      </trkpt>
      <trkpt lat="45.12747" lon="5.90551">
        <ele>2133</ele>
        <time>2022-02-09T12:49:22Z</time>
      </trkpt>
      <trkpt lat="45.12755" lon="5.90547">
        <ele>2130</ele>
        <time>2022-02-09T12:49:23Z</time>
      </trkpt>
      <trkpt lat="45.1276" lon="5.9054">
        <ele>2126</ele>
        <time>2022-02-09T12:49:24Z</time>
      </trkpt>
      <trkpt lat="45.12759" lon="5.90528">
        <ele>2123</ele>
        <time>2022-02-09T12:49:25Z</time>
      </trkpt>
      <trkpt lat="45.12763" lon="5.90512">
        <ele>2121</ele>
        <time>2022-02-09T12:49:27Z</time>
      </trkpt>
      <trkpt lat="45.12771" lon="5.90508">
        <ele>2120</ele>
        <time>2022-02-09T12:49:28Z</time>
      </trkpt>
      <trkpt lat="45.1278" lon="5.90502">
        <ele>2117</ele>
        <time>2022-02-09T12:49:29Z</time>
      </trkpt>
      <trkpt lat="45.12784" lon="5.90493">
        <ele>2113</ele>
        <time>2022-02-09T12:49:30Z</time>
      </trkpt>
      <trkpt lat="45.12793" lon="5.90477">
        <ele>2110</ele>
        <time>2022-02-09T12:49:32Z</time>
      </trkpt>
      <trkpt lat="45.12804" lon="5.90486">
        <ele>2108</ele>
        <time>2022-02-09T12:49:34Z</time>
      </trkpt>
      <trkpt lat="45.12808" lon="5.90495">
        <ele>2107</ele>
        <time>2022-02-09T12:49:36Z</time>
      </trkpt>
      <trkpt lat="45.12812" lon="5.90498">
        <ele>2105</ele>
        <time>2022-02-09T12:49:41Z</time>
      </trkpt>
      <trkpt lat="45.12813" lon="5.90485">
        <ele>2105</ele>
        <time>2022-02-09T12:50:29Z</time>
      </trkpt>
      <trkpt lat="45.12809" lon="5.90472">
        <ele>2105</ele>
        <time>2022-02-09T12:50:31Z</time>
      </trkpt>
      <trkpt lat="45.1281" lon="5.90458">
        <ele>2102</ele>
        <time>2022-02-09T12:50:33Z</time>
      </trkpt>
      <trkpt lat="45.12815" lon="5.90444">
        <ele>2100</ele>
        <time>2022-02-09T12:50:35Z</time>
      </trkpt>
      <trkpt lat="45.12817" lon="5.90428">
        <ele>2094</ele>
        <time>2022-02-09T12:50:37Z</time>
      </trkpt>
      <trkpt lat="45.12828" lon="5.90422">
        <ele>2093</ele>
        <time>2022-02-09T12:50:39Z</time>
      </trkpt>
      <trkpt lat="45.12843" lon="5.90416">
        <ele>2088</ele>
        <time>2022-02-09T12:50:41Z</time>
      </trkpt>
      <trkpt lat="45.12856" lon="5.90413">
        <ele>2084</ele>
        <time>2022-02-09T12:50:43Z</time>
      </trkpt>
      <trkpt lat="45.12862" lon="5.90398">
        <ele>2080</ele>
        <time>2022-02-09T12:50:45Z</time>
      </trkpt>
      <trkpt lat="45.12872" lon="5.90398">
        <ele>2075</ele>
        <time>2022-02-09T12:50:47Z</time>
      </trkpt>
      <trkpt lat="45.12878" lon="5.90387">
        <ele>2072</ele>
        <time>2022-02-09T12:50:49Z</time>
      </trkpt>
      <trkpt lat="45.12886" lon="5.90374">
        <ele>2066</ele>
        <time>2022-02-09T12:50:51Z</time>
      </trkpt>
      <trkpt lat="45.12894" lon="5.90378">
        <ele>2063</ele>
        <time>2022-02-09T12:50:56Z</time>
      </trkpt>
      <trkpt lat="45.12906" lon="5.90375">
        <ele>2058</ele>
        <time>2022-02-09T12:51:17Z</time>
      </trkpt>
      <trkpt lat="45.12907" lon="5.9036">
        <ele>2054</ele>
        <time>2022-02-09T12:51:20Z</time>
      </trkpt>
      <trkpt lat="45.1291" lon="5.90347">
        <ele>2050</ele>
        <time>2022-02-09T12:51:22Z</time>
      </trkpt>
      <trkpt lat="45.1292" lon="5.90339">
        <ele>2049</ele>
        <time>2022-02-09T12:51:24Z</time>
      </trkpt>
      <trkpt lat="45.12924" lon="5.90335">
        <ele>2037</ele>
        <time>2022-02-09T12:51:32Z</time>
      </trkpt>
      <trkpt lat="45.12917" lon="5.90318">
        <ele>2026</ele>
        <time>2022-02-09T12:51:35Z</time>
      </trkpt>
      <trkpt lat="45.12928" lon="5.90322">
        <ele>2025</ele>
        <time>2022-02-09T12:51:38Z</time>
      </trkpt>
      <trkpt lat="45.12939" lon="5.90325">
        <ele>2025</ele>
        <time>2022-02-09T12:51:39Z</time>
      </trkpt>
      <trkpt lat="45.12945" lon="5.90313">
        <ele>2022</ele>
        <time>2022-02-09T12:51:41Z</time>
      </trkpt>
      <trkpt lat="45.12944" lon="5.90297">
        <ele>2017</ele>
        <time>2022-02-09T12:51:43Z</time>
      </trkpt>
      <trkpt lat="45.12959" lon="5.9029">
        <ele>2014</ele>
        <time>2022-02-09T12:51:46Z</time>
      </trkpt>
      <trkpt lat="45.12968" lon="5.90284">
        <ele>2011</ele>
        <time>2022-02-09T12:51:48Z</time>
      </trkpt>
      <trkpt lat="45.12967" lon="5.90271">
        <ele>2009</ele>
        <time>2022-02-09T12:51:50Z</time>
      </trkpt>
      <trkpt lat="45.12977" lon="5.90255">
        <ele>2005</ele>
        <time>2022-02-09T12:51:52Z</time>
      </trkpt>
      <trkpt lat="45.12983" lon="5.90254">
        <ele>2003</ele>
        <time>2022-02-09T12:51:53Z</time>
      </trkpt>
      <trkpt lat="45.1299" lon="5.90249">
        <ele>2000</ele>
        <time>2022-02-09T12:51:54Z</time>
      </trkpt>
      <trkpt lat="45.12988" lon="5.90239">
        <ele>1997</ele>
        <time>2022-02-09T12:51:55Z</time>
      </trkpt>
      <trkpt lat="45.12988" lon="5.90229">
        <ele>1995</ele>
        <time>2022-02-09T12:51:56Z</time>
      </trkpt>
      <trkpt lat="45.12986" lon="5.90217">
        <ele>1993</ele>
        <time>2022-02-09T12:51:57Z</time>
      </trkpt>
      <trkpt lat="45.12985" lon="5.90205">
        <ele>1991</ele>
        <time>2022-02-09T12:51:58Z</time>
      </trkpt>
      <trkpt lat="45.12988" lon="5.90195">
        <ele>1989</ele>
        <time>2022-02-09T12:51:59Z</time>
      </trkpt>
      <trkpt lat="45.12988" lon="5.90184">
        <ele>1987</ele>
        <time>2022-02-09T12:52:00Z</time>
      </trkpt>
      <trkpt lat="45.12987" lon="5.90173">
        <ele>1985</ele>
        <time>2022-02-09T12:52:01Z</time>
      </trkpt>
      <trkpt lat="45.12986" lon="5.90159">
        <ele>1983</ele>
        <time>2022-02-09T12:52:02Z</time>
      </trkpt>
      <trkpt lat="45.12981" lon="5.9001">
        <ele>1973</ele>
        <time>2022-02-09T12:52:17Z</time>
      </trkpt>
      <trkpt lat="45.12982" lon="5.90003">
        <ele>1972</ele>
        <time>2022-02-09T12:52:18Z</time>
      </trkpt>
      <trkpt lat="45.12986" lon="5.90001">
        <ele>1971</ele>
        <time>2022-02-09T12:52:19Z</time>
      </trkpt>
      <trkpt lat="45.12989" lon="5.89993">
        <ele>1970</ele>
        <time>2022-02-09T12:52:20Z</time>
      </trkpt>
      <trkpt lat="45.12989" lon="5.89985">
        <ele>1969</ele>
        <time>2022-02-09T12:52:21Z</time>
      </trkpt>
      <trkpt lat="45.12993" lon="5.89977">
        <ele>1967</ele>
        <time>2022-02-09T12:52:22Z</time>
      </trkpt>
      <trkpt lat="45.13004" lon="5.89971">
        <ele>1964</ele>
        <time>2022-02-09T12:52:24Z</time>
      </trkpt>
      <trkpt lat="45.13006" lon="5.89965">
        <ele>1964</ele>
        <time>2022-02-09T12:52:25Z</time>
      </trkpt>
      <trkpt lat="45.13008" lon="5.8996">
        <ele>1963</ele>
        <time>2022-02-09T12:52:26Z</time>
      </trkpt>
      <trkpt lat="45.13011" lon="5.89956">
        <ele>1962</ele>
        <time>2022-02-09T12:52:27Z</time>
      </trkpt>
      <trkpt lat="45.13011" lon="5.8995">
        <ele>1961</ele>
        <time>2022-02-09T12:52:28Z</time>
      </trkpt>
      <trkpt lat="45.13011" lon="5.89942">
        <ele>1960</ele>
        <time>2022-02-09T12:52:29Z</time>
      </trkpt>
      <trkpt lat="45.13013" lon="5.89935">
        <ele>1958</ele>
        <time>2022-02-09T12:52:30Z</time>
      </trkpt>
      <trkpt lat="45.13017" lon="5.89931">
        <ele>1957</ele>
        <time>2022-02-09T12:52:31Z</time>
      </trkpt>
      <trkpt lat="45.13019" lon="5.89923">
        <ele>1956</ele>
        <time>2022-02-09T12:52:32Z</time>
      </trkpt>
      <trkpt lat="45.13017" lon="5.89919">
        <ele>1955</ele>
        <time>2022-02-09T12:52:33Z</time>
      </trkpt>
      <trkpt lat="45.13018" lon="5.89914">
        <ele>1954</ele>
        <time>2022-02-09T12:52:34Z</time>
      </trkpt>
      <trkpt lat="45.13018" lon="5.89909">
        <ele>1953</ele>
        <time>2022-02-09T12:52:35Z</time>
      </trkpt>
      <trkpt lat="45.13023" lon="5.89904">
        <ele>1952</ele>
        <time>2022-02-09T12:52:36Z</time>
      </trkpt>
      <trkpt lat="45.13022" lon="5.89897">
        <ele>1951</ele>
        <time>2022-02-09T12:52:37Z</time>
      </trkpt>
      <trkpt lat="45.13019" lon="5.89892">
        <ele>1948</ele>
        <time>2022-02-09T12:52:38Z</time>
      </trkpt>
      <trkpt lat="45.13017" lon="5.89885">
        <ele>1947</ele>
        <time>2022-02-09T12:52:39Z</time>
      </trkpt>
      <trkpt lat="45.13019" lon="5.89877">
        <ele>1944</ele>
        <time>2022-02-09T12:52:40Z</time>
      </trkpt>
      <trkpt lat="45.13022" lon="5.89871">
        <ele>1942</ele>
        <time>2022-02-09T12:52:41Z</time>
      </trkpt>
      <trkpt lat="45.13025" lon="5.89865">
        <ele>1939</ele>
        <time>2022-02-09T12:52:42Z</time>
      </trkpt>
      <trkpt lat="45.13025" lon="5.89858">
        <ele>1937</ele>
        <time>2022-02-09T12:52:45Z</time>
      </trkpt>
      <trkpt lat="45.13022" lon="5.89854">
        <ele>1933</ele>
        <time>2022-02-09T12:52:46Z</time>
      </trkpt>
      <trkpt lat="45.13022" lon="5.89847">
        <ele>1932</ele>
        <time>2022-02-09T12:52:47Z</time>
      </trkpt>
      <trkpt lat="45.13021" lon="5.8984">
        <ele>1929</ele>
        <time>2022-02-09T12:52:48Z</time>
      </trkpt>
      <trkpt lat="45.13017" lon="5.89836">
        <ele>1927</ele>
        <time>2022-02-09T12:52:49Z</time>
      </trkpt>
      <trkpt lat="45.13015" lon="5.8983">
        <ele>1924</ele>
        <time>2022-02-09T12:52:50Z</time>
      </trkpt>
      <trkpt lat="45.13016" lon="5.89823">
        <ele>1923</ele>
        <time>2022-02-09T12:52:51Z</time>
      </trkpt>
      <trkpt lat="45.13016" lon="5.89815">
        <ele>1919</ele>
        <time>2022-02-09T12:52:52Z</time>
      </trkpt>
      <trkpt lat="45.13013" lon="5.89806">
        <ele>1917</ele>
        <time>2022-02-09T12:52:53Z</time>
      </trkpt>
      <trkpt lat="45.1301" lon="5.89799">
        <ele>1914</ele>
        <time>2022-02-09T12:52:54Z</time>
      </trkpt>
      <trkpt lat="45.13009" lon="5.89788">
        <ele>1911</ele>
        <time>2022-02-09T12:52:55Z</time>
      </trkpt>
      <trkpt lat="45.13013" lon="5.89779">
        <ele>1909</ele>
        <time>2022-02-09T12:52:56Z</time>
      </trkpt>
      <trkpt lat="45.13013" lon="5.89768">
        <ele>1906</ele>
        <time>2022-02-09T12:52:57Z</time>
      </trkpt>
      <trkpt lat="45.13011" lon="5.89758">
        <ele>1905</ele>
        <time>2022-02-09T12:52:58Z</time>
      </trkpt>
      <trkpt lat="45.13011" lon="5.89747">
        <ele>1903</ele>
        <time>2022-02-09T12:52:59Z</time>
      </trkpt>
      <trkpt lat="45.13015" lon="5.89738">
        <ele>1901</ele>
        <time>2022-02-09T12:53:00Z</time>
      </trkpt>
      <trkpt lat="45.13018" lon="5.89728">
        <ele>1899</ele>
        <time>2022-02-09T12:53:01Z</time>
      </trkpt>
      <trkpt lat="45.13014" lon="5.89713">
        <ele>1897</ele>
        <time>2022-02-09T12:53:03Z</time>
      </trkpt>
      <trkpt lat="45.13016" lon="5.89706">
        <ele>1897</ele>
        <time>2022-02-09T12:53:04Z</time>
      </trkpt>
      <trkpt lat="45.13017" lon="5.89697">
        <ele>1894</ele>
        <time>2022-02-09T12:53:05Z</time>
      </trkpt>
      <trkpt lat="45.13016" lon="5.89687">
        <ele>1892</ele>
        <time>2022-02-09T12:53:06Z</time>
      </trkpt>
      <trkpt lat="45.1302" lon="5.89677">
        <ele>1890</ele>
        <time>2022-02-09T12:53:07Z</time>
      </trkpt>
      <trkpt lat="45.13024" lon="5.89667">
        <ele>1887</ele>
        <time>2022-02-09T12:53:08Z</time>
      </trkpt>
      <trkpt lat="45.13025" lon="5.89654">
        <ele>1885</ele>
        <time>2022-02-09T12:53:09Z</time>
      </trkpt>
      <trkpt lat="45.13032" lon="5.89612">
        <ele>1880</ele>
        <time>2022-02-09T12:53:12Z</time>
      </trkpt>
      <trkpt lat="45.13033" lon="5.89598">
        <ele>1879</ele>
        <time>2022-02-09T12:53:13Z</time>
      </trkpt>
      <trkpt lat="45.1303" lon="5.89587">
        <ele>1879</ele>
        <time>2022-02-09T12:53:14Z</time>
      </trkpt>
      <trkpt lat="45.13022" lon="5.89574">
        <ele>1878</ele>
        <time>2022-02-09T12:53:16Z</time>
      </trkpt>
      <trkpt lat="45.13022" lon="5.89566">
        <ele>1877</ele>
        <time>2022-02-09T12:53:17Z</time>
      </trkpt>
      <trkpt lat="45.1302" lon="5.89559">
        <ele>1876</ele>
        <time>2022-02-09T12:53:18Z</time>
      </trkpt>
      <trkpt lat="45.13014" lon="5.89551">
        <ele>1875</ele>
        <time>2022-02-09T12:53:22Z</time>
      </trkpt>
      <trkpt lat="45.13009" lon="5.89531">
        <ele>1873</ele>
        <time>2022-02-09T12:53:38Z</time>
      </trkpt>
      <trkpt lat="45.1301" lon="5.89525">
        <ele>1873</ele>
        <time>2022-02-09T12:53:39Z</time>
      </trkpt>
      <trkpt lat="45.13009" lon="5.89514">
        <ele>1870</ele>
        <time>2022-02-09T12:53:40Z</time>
      </trkpt>
      <trkpt lat="45.12999" lon="5.89504">
        <ele>1868</ele>
        <time>2022-02-09T12:53:42Z</time>
      </trkpt>
      <trkpt lat="45.12998" lon="5.89494">
        <ele>1865</ele>
        <time>2022-02-09T12:53:43Z</time>
      </trkpt>
      <trkpt lat="45.12997" lon="5.89483">
        <ele>1863</ele>
        <time>2022-02-09T12:53:44Z</time>
      </trkpt>
      <trkpt lat="45.12992" lon="5.89474">
        <ele>1860</ele>
        <time>2022-02-09T12:53:45Z</time>
      </trkpt>
      <trkpt lat="45.12989" lon="5.8944">
        <ele>1852</ele>
        <time>2022-02-09T12:53:48Z</time>
      </trkpt>
      <trkpt lat="45.12982" lon="5.89431">
        <ele>1848</ele>
        <time>2022-02-09T12:53:49Z</time>
      </trkpt>
      <trkpt lat="45.12979" lon="5.89417">
        <ele>1845</ele>
        <time>2022-02-09T12:53:50Z</time>
      </trkpt>
      <trkpt lat="45.12976" lon="5.89405">
        <ele>1842</ele>
        <time>2022-02-09T12:53:51Z</time>
      </trkpt>
      <trkpt lat="45.12981" lon="5.89393">
        <ele>1839</ele>
        <time>2022-02-09T12:53:52Z</time>
      </trkpt>
      <trkpt lat="45.12976" lon="5.89368">
        <ele>1836</ele>
        <time>2022-02-09T12:53:54Z</time>
      </trkpt>
      <trkpt lat="45.12984" lon="5.89349">
        <ele>1833</ele>
        <time>2022-02-09T12:53:56Z</time>
      </trkpt>
      <trkpt lat="45.12989" lon="5.89316">
        <ele>1828</ele>
        <time>2022-02-09T12:53:59Z</time>
      </trkpt>
      <trkpt lat="45.12996" lon="5.89308">
        <ele>1828</ele>
        <time>2022-02-09T12:54:00Z</time>
      </trkpt>
      <trkpt lat="45.12996" lon="5.89298">
        <ele>1827</ele>
        <time>2022-02-09T12:54:01Z</time>
      </trkpt>
      <trkpt lat="45.13" lon="5.8928">
        <ele>1826</ele>
        <time>2022-02-09T12:54:03Z</time>
      </trkpt>
      <trkpt lat="45.13004" lon="5.89275">
        <ele>1826</ele>
        <time>2022-02-09T12:54:04Z</time>
      </trkpt>
      <trkpt lat="45.13001" lon="5.89268">
        <ele>1825</ele>
        <time>2022-02-09T12:54:05Z</time>
      </trkpt>
      <trkpt lat="45.12999" lon="5.89264">
        <ele>1823</ele>
        <time>2022-02-09T12:54:06Z</time>
      </trkpt>
      <trkpt lat="45.12996" lon="5.89256">
        <ele>1822</ele>
        <time>2022-02-09T12:54:07Z</time>
      </trkpt>
      <trkpt lat="45.12995" lon="5.8925">
        <ele>1820</ele>
        <time>2022-02-09T12:54:08Z</time>
      </trkpt>
      <trkpt lat="45.13" lon="5.8924">
        <ele>1816</ele>
        <time>2022-02-09T12:54:09Z</time>
      </trkpt>
      <trkpt lat="45.12997" lon="5.89232">
        <ele>1813</ele>
        <time>2022-02-09T12:54:10Z</time>
      </trkpt>
      <trkpt lat="45.12993" lon="5.89224">
        <ele>1811</ele>
        <time>2022-02-09T12:54:11Z</time>
      </trkpt>
      <trkpt lat="45.12993" lon="5.89207">
        <ele>1808</ele>
        <time>2022-02-09T12:54:13Z</time>
      </trkpt>
      <trkpt lat="45.12998" lon="5.89201">
        <ele>1806</ele>
        <time>2022-02-09T12:54:14Z</time>
      </trkpt>
      <trkpt lat="45.12997" lon="5.8919">
        <ele>1802</ele>
        <time>2022-02-09T12:54:15Z</time>
      </trkpt>
      <trkpt lat="45.12993" lon="5.89182">
        <ele>1800</ele>
        <time>2022-02-09T12:54:16Z</time>
      </trkpt>
      <trkpt lat="45.12994" lon="5.89172">
        <ele>1796</ele>
        <time>2022-02-09T12:54:17Z</time>
      </trkpt>
      <trkpt lat="45.13" lon="5.89165">
        <ele>1793</ele>
        <time>2022-02-09T12:54:18Z</time>
      </trkpt>
      <trkpt lat="45.13005" lon="5.89157">
        <ele>1790</ele>
        <time>2022-02-09T12:54:19Z</time>
      </trkpt>
      <trkpt lat="45.13003" lon="5.89145">
        <ele>1787</ele>
        <time>2022-02-09T12:54:20Z</time>
      </trkpt>
      <trkpt lat="45.12998" lon="5.89135">
        <ele>1783</ele>
        <time>2022-02-09T12:54:21Z</time>
      </trkpt>
      <trkpt lat="45.12993" lon="5.89111">
        <ele>1774</ele>
        <time>2022-02-09T12:54:23Z</time>
      </trkpt>
      <trkpt lat="45.12995" lon="5.89091">
        <ele>1769</ele>
        <time>2022-02-09T12:54:24Z</time>
      </trkpt>
      <trkpt lat="45.12993" lon="5.89073">
        <ele>1765</ele>
        <time>2022-02-09T12:54:25Z</time>
      </trkpt>
      <trkpt lat="45.12991" lon="5.89053">
        <ele>1761</ele>
        <time>2022-02-09T12:54:26Z</time>
      </trkpt>
      <trkpt lat="45.12986" lon="5.89019">
        <ele>1757</ele>
        <time>2022-02-09T12:54:28Z</time>
      </trkpt>
      <trkpt lat="45.12989" lon="5.89004">
        <ele>1756</ele>
        <time>2022-02-09T12:54:29Z</time>
      </trkpt>
      <trkpt lat="45.12993" lon="5.88973">
        <ele>1752</ele>
        <time>2022-02-09T12:54:31Z</time>
      </trkpt>
      <trkpt lat="45.12997" lon="5.88959">
        <ele>1750</ele>
        <time>2022-02-09T12:54:32Z</time>
      </trkpt>
      <trkpt lat="45.13057" lon="5.88895">
        <ele>1745</ele>
        <time>2022-02-09T12:54:41Z</time>
      </trkpt>
      <trkpt lat="45.13059" lon="5.88891">
        <ele>1745</ele>
        <time>2022-02-09T12:54:42Z</time>
      </trkpt>
      <trkpt lat="45.1306" lon="5.88886">
        <ele>1745</ele>
        <time>2022-02-09T12:54:48Z</time>
      </trkpt>
      <trkpt lat="45.1307" lon="5.88868">
        <ele>1742</ele>
        <time>2022-02-09T12:54:53Z</time>
      </trkpt>
      <trkpt lat="45.13073" lon="5.88863">
        <ele>1741</ele>
        <time>2022-02-09T12:54:54Z</time>
      </trkpt>
      <trkpt lat="45.13078" lon="5.88859">
        <ele>1741</ele>
        <time>2022-02-09T12:54:55Z</time>
      </trkpt>
      <trkpt lat="45.13083" lon="5.8887">
        <ele>1740</ele>
        <time>2022-02-09T12:54:56Z</time>
      </trkpt>
      <trkpt lat="45.13088" lon="5.8887">
        <ele>1739</ele>
        <time>2022-02-09T12:54:57Z</time>
      </trkpt>
      <trkpt lat="45.13099" lon="5.8886">
        <ele>1736</ele>
        <time>2022-02-09T12:54:59Z</time>
      </trkpt>
      <trkpt lat="45.13105" lon="5.88857">
        <ele>1734</ele>
        <time>2022-02-09T12:55:00Z</time>
      </trkpt>
      <trkpt lat="45.1311" lon="5.88865">
        <ele>1732</ele>
        <time>2022-02-09T12:55:01Z</time>
      </trkpt>
      <trkpt lat="45.13116" lon="5.8887">
        <ele>1730</ele>
        <time>2022-02-09T12:55:02Z</time>
      </trkpt>
      <trkpt lat="45.13124" lon="5.88868">
        <ele>1728</ele>
        <time>2022-02-09T12:55:03Z</time>
      </trkpt>
      <trkpt lat="45.13131" lon="5.88871">
        <ele>1727</ele>
        <time>2022-02-09T12:55:04Z</time>
      </trkpt>
      <trkpt lat="45.13138" lon="5.8887">
        <ele>1725</ele>
        <time>2022-02-09T12:55:05Z</time>
      </trkpt>
      <trkpt lat="45.13144" lon="5.88864">
        <ele>1723</ele>
        <time>2022-02-09T12:55:06Z</time>
      </trkpt>
      <trkpt lat="45.1315" lon="5.8885">
        <ele>1721</ele>
        <time>2022-02-09T12:55:08Z</time>
      </trkpt>
      <trkpt lat="45.13153" lon="5.88845">
        <ele>1720</ele>
        <time>2022-02-09T12:55:09Z</time>
      </trkpt>
      <trkpt lat="45.13164" lon="5.88851">
        <ele>1717</ele>
        <time>2022-02-09T12:55:11Z</time>
      </trkpt>
      <trkpt lat="45.1317" lon="5.8885">
        <ele>1716</ele>
        <time>2022-02-09T12:55:12Z</time>
      </trkpt>
      <trkpt lat="45.13173" lon="5.88844">
        <ele>1715</ele>
        <time>2022-02-09T12:55:13Z</time>
      </trkpt>
      <trkpt lat="45.13175" lon="5.88833">
        <ele>1713</ele>
        <time>2022-02-09T12:55:15Z</time>
      </trkpt>
      <trkpt lat="45.13179" lon="5.8883">
        <ele>1711</ele>
        <time>2022-02-09T12:55:16Z</time>
      </trkpt>
      <trkpt lat="45.13183" lon="5.88831">
        <ele>1710</ele>
        <time>2022-02-09T12:55:17Z</time>
      </trkpt>
      <trkpt lat="45.13188" lon="5.88829">
        <ele>1708</ele>
        <time>2022-02-09T12:55:18Z</time>
      </trkpt>
      <trkpt lat="45.13188" lon="5.88823">
        <ele>1707</ele>
        <time>2022-02-09T12:55:19Z</time>
      </trkpt>
      <trkpt lat="45.13188" lon="5.88818">
        <ele>1705</ele>
        <time>2022-02-09T12:55:20Z</time>
      </trkpt>
      <trkpt lat="45.13187" lon="5.88805">
        <ele>1702</ele>
        <time>2022-02-09T12:55:22Z</time>
      </trkpt>
      <trkpt lat="45.13188" lon="5.888">
        <ele>1702</ele>
        <time>2022-02-09T12:55:23Z</time>
      </trkpt>
      <trkpt lat="45.13192" lon="5.88799">
        <ele>1700</ele>
        <time>2022-02-09T12:55:24Z</time>
      </trkpt>
      <trkpt lat="45.13196" lon="5.88801">
        <ele>1699</ele>
        <time>2022-02-09T12:55:25Z</time>
      </trkpt>
      <trkpt lat="45.13202" lon="5.88801">
        <ele>1695</ele>
        <time>2022-02-09T12:55:27Z</time>
      </trkpt>
      <trkpt lat="45.13206" lon="5.88797">
        <ele>1692</ele>
        <time>2022-02-09T12:55:28Z</time>
      </trkpt>
      <trkpt lat="45.1321" lon="5.88791">
        <ele>1690</ele>
        <time>2022-02-09T12:55:29Z</time>
      </trkpt>
      <trkpt lat="45.13214" lon="5.88778">
        <ele>1686</ele>
        <time>2022-02-09T12:55:31Z</time>
      </trkpt>
      <trkpt lat="45.13217" lon="5.88776">
        <ele>1683</ele>
        <time>2022-02-09T12:55:33Z</time>
      </trkpt>
      <trkpt lat="45.1322" lon="5.88782">
        <ele>1681</ele>
        <time>2022-02-09T12:55:35Z</time>
      </trkpt>
      <trkpt lat="45.1323" lon="5.88778">
        <ele>1677</ele>
        <time>2022-02-09T12:55:38Z</time>
      </trkpt>
      <trkpt lat="45.13235" lon="5.88778">
        <ele>1675</ele>
        <time>2022-02-09T12:55:39Z</time>
      </trkpt>
      <trkpt lat="45.13239" lon="5.88781">
        <ele>1674</ele>
        <time>2022-02-09T12:55:40Z</time>
      </trkpt>
      <trkpt lat="45.13241" lon="5.88788">
        <ele>1673</ele>
        <time>2022-02-09T12:55:41Z</time>
      </trkpt>
      <trkpt lat="45.13245" lon="5.88793">
        <ele>1671</ele>
        <time>2022-02-09T12:55:43Z</time>
      </trkpt>
      <trkpt lat="45.13249" lon="5.88788">
        <ele>1668</ele>
        <time>2022-02-09T12:55:44Z</time>
      </trkpt>
      <trkpt lat="45.13254" lon="5.88779">
        <ele>1664</ele>
        <time>2022-02-09T12:55:46Z</time>
      </trkpt>
      <trkpt lat="45.13258" lon="5.88776">
        <ele>1663</ele>
        <time>2022-02-09T12:55:47Z</time>
      </trkpt>
      <trkpt lat="45.13264" lon="5.88782">
        <ele>1660</ele>
        <time>2022-02-09T12:55:49Z</time>
      </trkpt>
      <trkpt lat="45.1327" lon="5.88778">
        <ele>1656</ele>
        <time>2022-02-09T12:55:50Z</time>
      </trkpt>
      <trkpt lat="45.13275" lon="5.88772">
        <ele>1655</ele>
        <time>2022-02-09T12:55:51Z</time>
      </trkpt>
      <trkpt lat="45.13277" lon="5.88769">
        <ele>1652</ele>
        <time>2022-02-09T12:55:52Z</time>
      </trkpt>
      <trkpt lat="45.13278" lon="5.88764">
        <ele>1651</ele>
        <time>2022-02-09T12:55:55Z</time>
      </trkpt>
      <trkpt lat="45.1328" lon="5.88758">
        <ele>1648</ele>
        <time>2022-02-09T12:55:58Z</time>
      </trkpt>
      <trkpt lat="45.13283" lon="5.8876">
        <ele>1646</ele>
        <time>2022-02-09T12:56:01Z</time>
      </trkpt>
      <trkpt lat="45.13288" lon="5.88762">
        <ele>1644</ele>
        <time>2022-02-09T12:56:18Z</time>
      </trkpt>
      <trkpt lat="45.13295" lon="5.88764">
        <ele>1641</ele>
        <time>2022-02-09T12:56:20Z</time>
      </trkpt>
      <trkpt lat="45.13297" lon="5.88755">
        <ele>1640</ele>
        <time>2022-02-09T12:56:21Z</time>
      </trkpt>
      <trkpt lat="45.13301" lon="5.88751">
        <ele>1639</ele>
        <time>2022-02-09T12:56:22Z</time>
      </trkpt>
      <trkpt lat="45.13309" lon="5.88756">
        <ele>1637</ele>
        <time>2022-02-09T12:56:24Z</time>
      </trkpt>
      <trkpt lat="45.13315" lon="5.88758">
        <ele>1635</ele>
        <time>2022-02-09T12:56:25Z</time>
      </trkpt>
      <trkpt lat="45.13323" lon="5.88753">
        <ele>1632</ele>
        <time>2022-02-09T12:56:27Z</time>
      </trkpt>
      <trkpt lat="45.13333" lon="5.88757">
        <ele>1630</ele>
        <time>2022-02-09T12:56:29Z</time>
      </trkpt>
      <trkpt lat="45.13334" lon="5.88766">
        <ele>1628</ele>
        <time>2022-02-09T12:56:30Z</time>
      </trkpt>
      <trkpt lat="45.13339" lon="5.88766">
        <ele>1628</ele>
        <time>2022-02-09T12:56:31Z</time>
      </trkpt>
      <trkpt lat="45.13347" lon="5.8876">
        <ele>1624</ele>
        <time>2022-02-09T12:56:33Z</time>
      </trkpt>
      <trkpt lat="45.13353" lon="5.88763">
        <ele>1622</ele>
        <time>2022-02-09T12:56:34Z</time>
      </trkpt>
      <trkpt lat="45.13356" lon="5.88768">
        <ele>1621</ele>
        <time>2022-02-09T12:56:35Z</time>
      </trkpt>
      <trkpt lat="45.13361" lon="5.88768">
        <ele>1619</ele>
        <time>2022-02-09T12:56:36Z</time>
      </trkpt>
      <trkpt lat="45.13366" lon="5.88765">
        <ele>1618</ele>
        <time>2022-02-09T12:56:37Z</time>
      </trkpt>
      <trkpt lat="45.13371" lon="5.88763">
        <ele>1615</ele>
        <time>2022-02-09T12:56:38Z</time>
      </trkpt>
      <trkpt lat="45.13377" lon="5.88762">
        <ele>1613</ele>
        <time>2022-02-09T12:56:39Z</time>
      </trkpt>
      <trkpt lat="45.13384" lon="5.8876">
        <ele>1610</ele>
        <time>2022-02-09T12:56:40Z</time>
      </trkpt>
      <trkpt lat="45.13398" lon="5.88764">
        <ele>1608</ele>
        <time>2022-02-09T12:56:42Z</time>
      </trkpt>
      <trkpt lat="45.13396" lon="5.88778">
        <ele>1605</ele>
        <time>2022-02-09T12:56:43Z</time>
      </trkpt>
      <trkpt lat="45.13403" lon="5.88779">
        <ele>1604</ele>
        <time>2022-02-09T12:56:44Z</time>
      </trkpt>
      <trkpt lat="45.13412" lon="5.8877">
        <ele>1598</ele>
        <time>2022-02-09T12:56:46Z</time>
      </trkpt>
      <trkpt lat="45.13426" lon="5.88764">
        <ele>1594</ele>
        <time>2022-02-09T12:56:48Z</time>
      </trkpt>
      <trkpt lat="45.13431" lon="5.88776">
        <ele>1592</ele>
        <time>2022-02-09T12:56:49Z</time>
      </trkpt>
      <trkpt lat="45.13432" lon="5.88789">
        <ele>1588</ele>
        <time>2022-02-09T12:56:50Z</time>
      </trkpt>
      <trkpt lat="45.13441" lon="5.88792">
        <ele>1584</ele>
        <time>2022-02-09T12:56:51Z</time>
      </trkpt>
      <trkpt lat="45.13448" lon="5.8879">
        <ele>1582</ele>
        <time>2022-02-09T12:56:52Z</time>
      </trkpt>
      <trkpt lat="45.13455" lon="5.88789">
        <ele>1579</ele>
        <time>2022-02-09T12:56:53Z</time>
      </trkpt>
      <trkpt lat="45.13464" lon="5.88792">
        <ele>1576</ele>
        <time>2022-02-09T12:56:54Z</time>
      </trkpt>
      <trkpt lat="45.13471" lon="5.88786">
        <ele>1573</ele>
        <time>2022-02-09T12:56:55Z</time>
      </trkpt>
      <trkpt lat="45.1348" lon="5.88787">
        <ele>1571</ele>
        <time>2022-02-09T12:56:56Z</time>
      </trkpt>
      <trkpt lat="45.13487" lon="5.88793">
        <ele>1568</ele>
        <time>2022-02-09T12:56:57Z</time>
      </trkpt>
      <trkpt lat="45.13493" lon="5.88802">
        <ele>1565</ele>
        <time>2022-02-09T12:56:58Z</time>
      </trkpt>
      <trkpt lat="45.13502" lon="5.88805">
        <ele>1562</ele>
        <time>2022-02-09T12:56:59Z</time>
      </trkpt>
      <trkpt lat="45.1351" lon="5.88802">
        <ele>1560</ele>
        <time>2022-02-09T12:57:00Z</time>
      </trkpt>
      <trkpt lat="45.13516" lon="5.88798">
        <ele>1558</ele>
        <time>2022-02-09T12:57:01Z</time>
      </trkpt>
      <trkpt lat="45.13523" lon="5.88793">
        <ele>1556</ele>
        <time>2022-02-09T12:57:02Z</time>
      </trkpt>
      <trkpt lat="45.1353" lon="5.88793">
        <ele>1554</ele>
        <time>2022-02-09T12:57:03Z</time>
      </trkpt>
      <trkpt lat="45.13537" lon="5.88794">
        <ele>1551</ele>
        <time>2022-02-09T12:57:04Z</time>
      </trkpt>
      <trkpt lat="45.13553" lon="5.8879">
        <ele>1548</ele>
        <time>2022-02-09T12:57:06Z</time>
      </trkpt>
      <trkpt lat="45.13561" lon="5.88793">
        <ele>1547</ele>
        <time>2022-02-09T12:57:07Z</time>
      </trkpt>
      <trkpt lat="45.13565" lon="5.88803">
        <ele>1544</ele>
        <time>2022-02-09T12:57:08Z</time>
      </trkpt>
      <trkpt lat="45.13574" lon="5.88804">
        <ele>1541</ele>
        <time>2022-02-09T12:57:09Z</time>
      </trkpt>
      <trkpt lat="45.13581" lon="5.888">
        <ele>1539</ele>
        <time>2022-02-09T12:57:10Z</time>
      </trkpt>
      <trkpt lat="45.13589" lon="5.88797">
        <ele>1537</ele>
        <time>2022-02-09T12:57:11Z</time>
      </trkpt>
      <trkpt lat="45.13597" lon="5.88799">
        <ele>1535</ele>
        <time>2022-02-09T12:57:12Z</time>
      </trkpt>
      <trkpt lat="45.13605" lon="5.88795">
        <ele>1532</ele>
        <time>2022-02-09T12:57:13Z</time>
      </trkpt>
      <trkpt lat="45.13614" lon="5.88796">
        <ele>1530</ele>
        <time>2022-02-09T12:57:14Z</time>
      </trkpt>
      <trkpt lat="45.13622" lon="5.88803">
        <ele>1527</ele>
        <time>2022-02-09T12:57:15Z</time>
      </trkpt>
      <trkpt lat="45.13632" lon="5.88799">
        <ele>1525</ele>
        <time>2022-02-09T12:57:16Z</time>
      </trkpt>
      <trkpt lat="45.13646" lon="5.88786">
        <ele>1521</ele>
        <time>2022-02-09T12:57:18Z</time>
      </trkpt>
      <trkpt lat="45.13654" lon="5.88784">
        <ele>1518</ele>
        <time>2022-02-09T12:57:19Z</time>
      </trkpt>
      <trkpt lat="45.13662" lon="5.88787">
        <ele>1516</ele>
        <time>2022-02-09T12:57:20Z</time>
      </trkpt>
      <trkpt lat="45.13668" lon="5.88793">
        <ele>1514</ele>
        <time>2022-02-09T12:57:21Z</time>
      </trkpt>
      <trkpt lat="45.13677" lon="5.88794">
        <ele>1512</ele>
        <time>2022-02-09T12:57:22Z</time>
      </trkpt>
      <trkpt lat="45.13684" lon="5.88789">
        <ele>1510</ele>
        <time>2022-02-09T12:57:23Z</time>
      </trkpt>
      <trkpt lat="45.13691" lon="5.88787">
        <ele>1508</ele>
        <time>2022-02-09T12:57:24Z</time>
      </trkpt>
      <trkpt lat="45.13704" lon="5.88792">
        <ele>1505</ele>
        <time>2022-02-09T12:57:26Z</time>
      </trkpt>
      <trkpt lat="45.13709" lon="5.88795">
        <ele>1503</ele>
        <time>2022-02-09T12:57:27Z</time>
      </trkpt>
      <trkpt lat="45.13714" lon="5.88793">
        <ele>1502</ele>
        <time>2022-02-09T12:57:29Z</time>
      </trkpt>
      <trkpt lat="45.13724" lon="5.88784">
        <ele>1497</ele>
        <time>2022-02-09T12:57:34Z</time>
      </trkpt>
      <trkpt lat="45.13731" lon="5.88782">
        <ele>1496</ele>
        <time>2022-02-09T12:57:35Z</time>
      </trkpt>
      <trkpt lat="45.13737" lon="5.88785">
        <ele>1493</ele>
        <time>2022-02-09T12:57:36Z</time>
      </trkpt>
      <trkpt lat="45.13743" lon="5.8879">
        <ele>1490</ele>
        <time>2022-02-09T12:57:37Z</time>
      </trkpt>
      <trkpt lat="45.13749" lon="5.88796">
        <ele>1488</ele>
        <time>2022-02-09T12:57:38Z</time>
      </trkpt>
      <trkpt lat="45.13758" lon="5.88813">
        <ele>1485</ele>
        <time>2022-02-09T12:57:40Z</time>
      </trkpt>
      <trkpt lat="45.13765" lon="5.88819">
        <ele>1482</ele>
        <time>2022-02-09T12:57:41Z</time>
      </trkpt>
      <trkpt lat="45.13773" lon="5.88817">
        <ele>1480</ele>
        <time>2022-02-09T12:57:42Z</time>
      </trkpt>
      <trkpt lat="45.1378" lon="5.88812">
        <ele>1478</ele>
        <time>2022-02-09T12:57:43Z</time>
      </trkpt>
      <trkpt lat="45.13785" lon="5.88803">
        <ele>1475</ele>
        <time>2022-02-09T12:57:44Z</time>
      </trkpt>
      <trkpt lat="45.13791" lon="5.88795">
        <ele>1473</ele>
        <time>2022-02-09T12:57:45Z</time>
      </trkpt>
      <trkpt lat="45.13799" lon="5.88792">
        <ele>1472</ele>
        <time>2022-02-09T12:57:46Z</time>
      </trkpt>
      <trkpt lat="45.13806" lon="5.888">
        <ele>1469</ele>
        <time>2022-02-09T12:57:47Z</time>
      </trkpt>
      <trkpt lat="45.13815" lon="5.88801">
        <ele>1466</ele>
        <time>2022-02-09T12:57:48Z</time>
      </trkpt>
      <trkpt lat="45.13825" lon="5.888">
        <ele>1463</ele>
        <time>2022-02-09T12:57:49Z</time>
      </trkpt>
      <trkpt lat="45.13835" lon="5.88795">
        <ele>1460</ele>
        <time>2022-02-09T12:57:50Z</time>
      </trkpt>
      <trkpt lat="45.13849" lon="5.8878">
        <ele>1457</ele>
        <time>2022-02-09T12:57:52Z</time>
      </trkpt>
      <trkpt lat="45.13856" lon="5.88775">
        <ele>1455</ele>
        <time>2022-02-09T12:57:53Z</time>
      </trkpt>
      <trkpt lat="45.13863" lon="5.88784">
        <ele>1453</ele>
        <time>2022-02-09T12:57:54Z</time>
      </trkpt>
      <trkpt lat="45.1387" lon="5.8879">
        <ele>1451</ele>
        <time>2022-02-09T12:57:55Z</time>
      </trkpt>
      <trkpt lat="45.1388" lon="5.88792">
        <ele>1448</ele>
        <time>2022-02-09T12:57:56Z</time>
      </trkpt>
      <trkpt lat="45.1389" lon="5.88791">
        <ele>1444</ele>
        <time>2022-02-09T12:57:57Z</time>
      </trkpt>
      <trkpt lat="45.139" lon="5.88788">
        <ele>1442</ele>
        <time>2022-02-09T12:57:58Z</time>
      </trkpt>
      <trkpt lat="45.13909" lon="5.88783">
        <ele>1439</ele>
        <time>2022-02-09T12:57:59Z</time>
      </trkpt>
      <trkpt lat="45.1394" lon="5.88753">
        <ele>1432</ele>
        <time>2022-02-09T12:58:03Z</time>
      </trkpt>
      <trkpt lat="45.13947" lon="5.88757">
        <ele>1430</ele>
        <time>2022-02-09T12:58:04Z</time>
      </trkpt>
      <trkpt lat="45.13955" lon="5.88759">
        <ele>1428</ele>
        <time>2022-02-09T12:58:05Z</time>
      </trkpt>
      <trkpt lat="45.13963" lon="5.88757">
        <ele>1426</ele>
        <time>2022-02-09T12:58:06Z</time>
      </trkpt>
      <trkpt lat="45.13971" lon="5.88752">
        <ele>1424</ele>
        <time>2022-02-09T12:58:07Z</time>
      </trkpt>
      <trkpt lat="45.13979" lon="5.88753">
        <ele>1421</ele>
        <time>2022-02-09T12:58:08Z</time>
      </trkpt>
      <trkpt lat="45.13991" lon="5.88767">
        <ele>1418</ele>
        <time>2022-02-09T12:58:10Z</time>
      </trkpt>
      <trkpt lat="45.13998" lon="5.88771">
        <ele>1416</ele>
        <time>2022-02-09T12:58:11Z</time>
      </trkpt>
      <trkpt lat="45.1401" lon="5.8877">
        <ele>1414</ele>
        <time>2022-02-09T12:58:13Z</time>
      </trkpt>
      <trkpt lat="45.14017" lon="5.88771">
        <ele>1414</ele>
        <time>2022-02-09T12:58:14Z</time>
      </trkpt>
      <trkpt lat="45.14021" lon="5.88774">
        <ele>1413</ele>
        <time>2022-02-09T12:58:15Z</time>
      </trkpt>
      <trkpt lat="45.14026" lon="5.88776">
        <ele>1412</ele>
        <time>2022-02-09T12:58:16Z</time>
      </trkpt>
      <trkpt lat="45.14035" lon="5.88776">
        <ele>1411</ele>
        <time>2022-02-09T12:58:18Z</time>
      </trkpt>
      <trkpt lat="45.14039" lon="5.88778">
        <ele>1411</ele>
        <time>2022-02-09T12:58:20Z</time>
      </trkpt>
      <trkpt lat="45.14042" lon="5.88783">
        <ele>1410</ele>
        <time>2022-02-09T12:58:22Z</time>
      </trkpt>
      <trkpt lat="45.14047" lon="5.88782">
        <ele>1408</ele>
        <time>2022-02-09T12:58:23Z</time>
      </trkpt>
      <trkpt lat="45.1405" lon="5.88783">
        <ele>1408</ele>
        <time>2022-02-09T12:58:24Z</time>
      </trkpt>
      <trkpt lat="45.14051" lon="5.88788">
        <ele>1407</ele>
        <time>2022-02-09T12:58:25Z</time>
      </trkpt>
      <trkpt lat="45.1406" lon="5.88792">
        <ele>1405</ele>
        <time>2022-02-09T12:58:27Z</time>
      </trkpt>
      <trkpt lat="45.14064" lon="5.88796">
        <ele>1404</ele>
        <time>2022-02-09T12:58:28Z</time>
      </trkpt>
      <trkpt lat="45.14066" lon="5.88801">
        <ele>1403</ele>
        <time>2022-02-09T12:58:29Z</time>
      </trkpt>
      <trkpt lat="45.14061" lon="5.88809">
        <ele>1402</ele>
        <time>2022-02-09T12:58:30Z</time>
      </trkpt>
      <trkpt lat="45.14055" lon="5.88813">
        <ele>1402</ele>
        <time>2022-02-09T12:58:31Z</time>
      </trkpt>
      <trkpt lat="45.1405" lon="5.88816">
        <ele>1400</ele>
        <time>2022-02-09T12:58:32Z</time>
      </trkpt>
      <trkpt lat="45.14048" lon="5.88821">
        <ele>1399</ele>
        <time>2022-02-09T12:58:33Z</time>
      </trkpt>
      <trkpt lat="45.14046" lon="5.88827">
        <ele>1398</ele>
        <time>2022-02-09T12:58:35Z</time>
      </trkpt>
      <trkpt lat="45.14043" lon="5.8883">
        <ele>1398</ele>
        <time>2022-02-09T12:58:39Z</time>
      </trkpt>
      <trkpt lat="45.14043" lon="5.88835">
        <ele>1397</ele>
        <time>2022-02-09T12:59:28Z</time>
      </trkpt>
      <trkpt lat="45.14045" lon="5.88839">
        <ele>1397</ele>
        <time>2022-02-09T12:59:33Z</time>
      </trkpt>
    </trkseg>
  </trk>
</gpx>